[[{"header":{"parameterUnit":"m.s-1","parameterCategory":1,"la1":31.0,"la2":29.5877,"lo1":-88.7671,"lo2":-86.6584,"dy":0.0162,"dx":0.0185,"nx":115,"ny":88,"refTime":"2023-08-11T06:00:00:Z","depth":0,"parameterNumber":2,"parameterNumberName":"U-component_of_WINDS"},"data":[0.0,0.0,0.0,0.0,0.0,0.0,0.0,0.0,0.0,0.0,0.0,0.0,0.0,0.0,0.0,0.0,0.0,0.0,0.0,0.0,0.0,0.0,0.0,0.0,0.0,0.0,0.0,0.0,0.0,0.0,0.0,0.0,0.0,0.0,0.0,0.0,0.0,0.0,0.0,0.0,0.0,0.0,0.0,0.0,0.0,0.0,0.0,0.0,0.0,0.0,0.0,0.0,0.0,0.0,0.0,0.0,0.0,0.0,0.0,0.0,0.0,0.0,0.0,0.0,0.0,0.0,0.0,0.0,0.0,0.0,0.0,0.0,0.0,0.0,0.0,0.0,0.0,0.0,0.0,0.0,0.0,0.0,0.0,0.0,0.0,0.0,0.0,0.0,0.0,0.0,0.0,0.0,0.0,0.0,0.0,0.0,0.0,0.0,0.0,0.0,0.0,0.0,0.0,0.0,0.0,0.0,0.0,0.0,0.0,0.0,0.0,0.0,0.0,0.0,0.0,0.0,0.0,0.0,0.0,0.0,0.0,0.0,0.0,0.0,0.0,0.0,0.0,0.0,0.0,0.0,0.0,0.0,0.0,0.0,0.0,0.0,0.0,0.0,0.0,0.0,0.0,0.0,0.0,0.0,0.0,0.0,0.0,0.0,0.0,0.0,0.0,0.0,0.0,0.0,0.0,0.0,0.0,0.0,0.0,0.0,0.0,0.0,0.0,0.0,0.0,0.0,0.0,0.0,0.0,0.0,0.0,0.0,0.0,0.0,0.0,0.0,0.0,0.0,0.0,0.0,0.0,0.0,0.0,0.0,0.0,0.0,0.0,0.0,0.0,0.0,0.0,0.0,0.0,0.0,0.0,0.0,0.0,0.0,0.0,0.0,0.0,0.0,0.0,0.0,0.0,0.0,0.0,0.0,0.0,0.0,0.0,0.0,0.0,0.0,0.0,0.0,0.0,0.0,0.0,0.0,0.0,0.0,0.0,0.0,0.0,0.0,0.0,0.0,0.0,0.0,0.0,0.0,0.0,0.0,0.0,0.0,0.0,0.0,0.0,0.0,0.0,0.0,0.0,0.0,0.0,0.0,0.0,0.0,0.0,0.0,0.0,0.0,0.0,0.0,0.0,0.0,0.0,0.0,0.0,0.0,0.0,0.0,0.0,0.0,0.0,0.0,0.0,0.0,0.0,0.0,0.0,0.0,0.0,0.0,0.0,0.0,0.0,0.0,0.0,0.0,0.0,0.0,0.0,0.0,0.0,0.0,0.0,0.0,0.0,0.0,0.0,0.0,0.0,0.0,0.0,0.0,0.0,0.0,0.0,0.0,0.0,0.0,0.0,0.0,0.0,0.0,0.0,0.0,0.0,0.0,0.0,0.0,0.0,0.0,0.0,0.0,0.0,0.0,0.0,0.0,0.0,0.0,0.0,0.0,0.0,0.0,0.0,0.0,0.0,0.0,0.0,0.0,0.0,0.0,0.0,0.0,0.0,0.0,0.0,0.0,0.0,0.0,0.0,0.0,0.0,0.0,0.0,0.0,0.0,0.0,0.0,0.0,0.0,0.0,0.0,0.0,0.0,0.0,0.0,0.0,0.0,0.0,0.0,0.0,0.0,0.0,0.0,0.0,0.0,0.0,0.0,0.0,0.0,0.0,0.0,0.0,0.0,0.0,0.0,0.0,0.0,0.0,0.0,0.0,0.0,0.0,0.0,0.0,0.0,0.0,0.0,0.0,0.0,0.0,0.0,0.0,0.0,0.0,0.0,0.0,0.0,0.0,0.0,0.0,0.0,0.0,0.0,0.0,0.0,0.0,0.0,0.0,0.0,0.0,0.0,0.0,0.0,0.0,0.0,0.0,0.0,0.0,0.0,0.0,0.0,0.0,0.0,0.0,0.0,0.0,0.0,0.0,0.0,0.0,0.0,0.0,0.0,0.0,0.0,0.0,0.0,0.0,0.0,0.0,0.0,0.0,0.0,0.0,0.0,0.0,0.0,0.0,0.0,0.0,0.0,0.0,0.0,0.0,0.0,0.0,0.0,0.0,0.0,0.0,0.0,0.0,0.0,0.0,0.0,0.0,0.0,0.0,0.0,0.0,0.0,0.0,0.0,0.0,0.0,0.0,0.0,0.0,0.0,0.0,0.0,0.0,0.0,0.0,0.0,0.0,0.0,0.0,0.0,0.0,0.0,0.0,0.0,0.0,0.0,0.0,0.0,0.0,0.0,0.0,0.0,0.0,0.0,0.0,0.0,0.0,0.0,0.0,0.0,0.0,0.0,0.0,0.0,0.0,0.0,0.0,0.0,0.0,0.0,0.0,0.0,0.0,0.0,0.0,0.0,0.0,0.0,0.0,0.0,0.0,0.0,0.0,0.0,0.0,0.0,0.0,0.0,0.0,0.0,0.0,0.0,0.0,0.0,0.0,0.0,0.0,0.0,0.0,0.0,0.0,0.0,0.0,0.0,0.0,0.0,0.0,0.0,0.0,0.0,0.0,0.0,0.0,0.0,0.0,0.0,0.0,0.0,0.0,0.0,0.0,0.0,0.0,0.0,0.0,0.0,0.0,0.0,0.0,0.0,0.0,0.0,0.0,0.0,0.0,0.0,0.0,0.0,0.0,0.0,0.0,0.0,0.0,0.0,0.0,0.0,0.0,0.0,0.0,0.0,0.0,0.0,0.0,0.0,0.0,0.0,0.0,0.0,0.0,0.0,0.0,0.0,0.0,0.0,0.0,0.0,0.0,0.0,0.0,0.0,0.0,0.0,0.0,0.0,0.0,0.0,0.0,0.0,0.0,0.0,0.0,0.0,0.0,0.0,0.0,0.0,0.0,0.0,0.0,0.0,0.0,0.0,0.0,0.0,0.0,0.0,0.0,0.0,0.0,0.0,0.0,0.0,0.0,0.0,0.0,0.0,0.0,0.0,0.0,0.0,0.0,0.0,0.0,0.0,0.0,0.0,0.0,0.0,0.0,0.0,0.0,0.0,0.0,0.0,0.0,0.0,0.0,0.0,0.0,0.0,0.0,0.0,0.0,0.0,0.0,0.0,0.0,0.0,0.0,0.0,0.0,0.0,0.0,0.0,0.0,0.0,0.0,0.0,0.0,0.0,0.0,0.0,0.0,0.0,0.0,0.0,0.0,0.0,0.0,0.0,0.0,0.0,0.0,0.0,0.0,0.0,0.0,0.0,0.0,0.0,0.0,0.0,0.0,0.0,0.0,0.0,0.0,0.0,0.0,0.0,0.0,0.0,0.0,0.0,0.0,0.0,0.0,0.0,0.0,0.0,0.0,0.0,0.0,0.0,0.0,0.0,0.0,0.0,0.0,0.0,0.0,0.0,0.0,0.0,0.0,0.0,0.0,0.0,0.0,0.0,0.0,0.0,0.0,0.0,0.0,0.0,0.0,0.0,0.0,0.0,0.0,0.0,0.0,0.0,0.0,0.0,0.0,0.0,0.0,0.0,0.0,0.0,0.0,0.0,0.0,0.0,0.0,0.0,0.0,0.0,0.0,0.0,0.0,0.0,0.0,0.0,0.0,0.0,0.0,0.0,0.0,0.0,0.0,0.0,0.0,0.0,0.0,0.0,0.0,0.0,0.0,0.0,0.0,0.0,0.0,0.0,0.0,0.0,0.0,0.0,0.0,0.0,0.0,0.0,0.0,0.0,0.0,0.0,0.0,0.0,0.0,0.0,0.0,0.0,0.0,0.0,0.0,0.0,0.0,0.0,0.0,0.0,0.0,0.0,0.0,0.0,0.0,0.0,0.0,0.0,0.0,0.0,0.0,0.0,0.0,0.0,0.0,0.0,0.0,0.0,0.0,0.0,0.0,0.0,0.0,0.0,0.0,0.0,0.0,0.0,0.0,0.0,0.0,0.0,0.0,0.0,0.0,0.0,0.0,0.0,0.0,0.0,0.0,0.0,0.0,0.0,0.0,0.0,0.0,0.0,0.0,0.0,0.0,0.0,0.0,0.0,0.0,0.0,0.0,0.0,0.0,0.0,0.0,0.0,0.0,0.0,0.0,0.0,0.0,0.0,0.0,0.0,0.0,0.0,0.0,0.0,0.0,0.0,0.0,0.0,0.0,0.0,0.0,0.0,0.0,0.0,0.0,0.0,0.0,0.0,0.0,0.0,0.0,0.0,0.0,0.0,0.0,0.0,0.0,0.0,0.0,0.0,0.0,0.0,0.0,0.0,0.0,0.0,0.0,0.0,0.0,0.0,0.0,0.0,0.0,0.0,0.0,0.0,0.0,0.0,0.0,0.0,0.0,-0.8756,0.0,0.0,0.0,0.0,0.0,0.0,0.0,0.0,0.0,0.0,0.0,0.0,0.0,0.0,0.0,0.0,0.0,0.0,0.0,0.0,0.0,0.0,0.0,0.0,0.0,0.0,0.0,0.0,0.0,0.0,0.0,0.0,0.0,0.0,0.0,0.0,0.0,0.0,0.0,0.0,0.0,0.0,0.0,0.0,0.0,0.0,0.0,0.0,0.0,0.0,0.0,0.0,0.0,0.0,0.0,0.0,0.0,0.0,0.0,0.0,0.0,0.0,0.0,0.0,0.0,0.0,0.0,0.0,0.0,0.0,0.0,0.0,0.0,0.0,0.0,0.0,0.0,0.0,0.0,0.0,0.0,0.0,0.0,0.0,0.0,0.0,0.0,0.0,0.0,0.0,0.0,0.0,0.0,0.0,0.0,0.0,0.0,0.0,0.0,0.0,0.0,0.0,0.0,0.0,0.0,0.0,0.0,0.0,0.0,0.0,-0.8005,-0.825,-0.8332,-0.8406,-0.8602,0.0,0.0,0.0,0.0,0.0,0.0,0.0,0.0,0.0,0.0,0.0,0.0,0.0,0.0,0.0,0.0,0.0,0.0,0.0,0.0,0.0,0.0,0.0,0.0,0.0,0.0,0.0,0.0,0.0,0.0,0.0,0.0,0.0,0.0,0.0,0.0,0.0,0.0,0.0,0.0,0.0,0.0,0.0,0.0,0.0,0.0,0.0,0.0,0.0,0.0,0.0,0.0,0.0,0.0,0.0,0.0,0.0,0.0,0.0,0.0,0.0,0.0,0.0,0.0,0.0,0.0,0.0,0.0,0.0,0.0,0.0,0.0,0.0,0.0,0.0,0.0,0.0,0.0,0.0,0.0,0.0,0.0,0.0,0.0,0.0,0.0,0.0,0.0,0.0,0.0,0.0,0.0,0.0,0.0,0.0,0.0,0.0,0.0,0.0,0.0,0.0,0.0,0.0,0.0,0.0,0.0,0.0,0.0,0.0,0.0,0.0,0.0,-0.8134,-0.8201,-0.8357,0.0,0.0,0.0,0.0,0.0,0.0,0.0,0.0,0.0,0.0,0.0,0.0,0.0,0.0,0.0,0.0,0.0,0.0,0.0,0.0,0.0,0.0,0.0,0.0,0.0,0.0,0.0,0.0,0.0,0.0,0.0,0.0,0.0,0.0,0.0,0.0,0.0,0.0,0.0,0.0,0.0,0.0,0.0,0.0,0.0,0.0,0.0,0.0,0.0,0.0,0.0,0.0,0.0,0.0,0.0,0.0,0.0,0.0,0.0,0.0,0.0,0.0,0.0,0.0,0.0,0.0,0.0,0.0,0.0,0.0,0.0,0.0,0.0,0.0,0.0,0.0,0.0,0.0,0.0,0.0,0.0,0.0,0.0,0.0,0.0,0.0,0.0,0.0,0.0,0.0,0.0,0.0,0.0,0.0,0.0,0.0,0.0,0.0,0.0,0.0,0.0,0.0,0.0,0.0,0.0,0.0,0.0,0.0,0.0,0.0,-0.7607,-0.7761,-0.7878,0.0,-0.8062,0.0,0.0,0.0,0.0,0.0,0.0,0.0,0.0,0.0,0.0,0.0,0.0,0.0,0.0,0.0,0.0,0.0,0.0,0.0,0.0,0.0,0.0,0.0,0.0,0.0,0.0,0.0,0.0,0.0,0.0,0.0,0.0,0.0,0.0,0.0,0.0,0.0,0.0,0.0,0.0,0.0,0.0,0.0,0.0,0.0,0.0,0.0,0.0,0.0,0.0,0.0,0.0,0.0,0.0,0.0,0.0,0.0,0.0,0.0,0.0,0.0,0.0,0.0,0.0,0.0,0.0,0.0,0.0,0.0,0.0,0.0,0.0,0.0,0.0,0.0,0.0,0.0,0.0,0.0,0.0,0.0,0.0,0.0,0.0,0.0,0.0,0.0,0.0,0.0,0.0,0.0,0.0,0.0,0.0,0.0,0.0,0.0,0.0,0.0,0.0,0.0,0.0,0.0,0.0,0.0,0.0,0.0,0.0,0.0,0.0,-0.744,-0.7572,-0.7787,-0.7912,0.0,0.0,0.0,0.0,0.0,0.0,0.0,0.0,0.0,0.0,0.0,0.0,0.0,0.0,0.0,0.0,0.0,0.0,0.0,0.0,0.0,0.0,0.0,0.0,0.0,0.0,0.0,0.0,0.0,0.0,0.0,0.0,0.0,0.0,0.0,0.0,0.0,0.0,0.0,0.0,0.0,0.0,0.0,0.0,0.0,0.0,0.0,0.0,0.0,0.0,0.0,0.0,0.0,0.0,0.0,0.0,0.0,0.0,0.0,0.0,0.0,0.0,0.0,0.0,0.0,0.0,0.0,0.0,0.0,0.0,0.0,0.0,0.0,0.0,0.0,0.0,0.0,0.0,0.0,0.0,0.0,0.0,0.0,0.0,0.0,0.0,0.0,0.0,0.0,0.0,0.0,0.0,0.0,0.0,0.0,0.0,0.0,0.0,0.0,0.0,0.0,0.0,0.0,0.0,0.0,0.0,0.0,0.0,0.0,0.0,-0.7202,-0.728,-0.7447,-0.7621,-0.7753,-0.7787,0.0,0.0,0.0,0.0,0.0,0.0,0.0,0.0,0.0,0.0,0.0,0.0,0.0,0.0,0.0,0.0,0.0,0.0,0.0,0.0,0.0,0.0,0.0,0.0,0.0,0.0,0.0,0.0,0.0,0.0,0.0,0.0,0.0,0.0,0.0,0.0,0.0,0.0,0.0,0.0,0.0,0.0,0.0,0.0,0.0,0.0,0.0,0.0,0.0,0.0,0.0,0.0,0.0,0.0,0.0,0.0,0.0,0.0,0.0,0.0,0.0,0.0,0.0,0.0,0.0,0.0,0.0,0.0,0.0,0.0,0.0,0.0,0.0,0.0,0.0,0.0,0.0,0.0,0.0,0.0,0.0,0.0,0.0,0.0,0.0,0.0,0.0,0.0,0.0,0.0,0.0,0.0,0.0,0.0,0.0,0.0,0.0,0.0,0.0,0.0,0.0,0.0,0.0,0.0,0.0,0.0,0.0,0.0,-0.6921,-0.6914,-0.7005,-0.7216,-0.7335,-0.7412,0.0,0.0,0.0,0.0,0.0,0.0,0.0,0.0,0.0,0.0,0.0,0.0,0.0,0.0,0.0,0.0,0.0,0.0,0.0,0.0,0.0,0.0,0.0,0.0,0.0,0.0,0.0,0.0,0.0,0.0,0.0,0.0,0.0,0.0,0.0,0.0,0.0,0.0,0.0,0.0,0.0,0.0,0.0,0.0,0.0,0.0,0.0,0.0,0.0,0.0,0.0,0.0,0.0,0.0,0.0,0.0,0.0,0.0,0.0,0.0,0.0,0.0,0.0,0.0,0.0,0.0,0.0,0.0,0.0,0.0,0.0,0.0,0.0,0.0,0.0,0.0,0.0,0.0,0.0,0.0,0.0,0.0,0.0,0.0,0.0,0.0,0.0,0.0,0.0,0.0,0.0,0.0,0.0,0.0,0.0,0.0,0.0,0.0,0.0,0.0,0.0,0.0,0.0,0.0,0.0,0.0,0.0,0.0,0.0,-0.6872,-0.6943,-0.6985,-0.707,-0.7202,-0.7251,0.0,0.0,0.0,0.0,0.0,0.0,0.0,0.0,0.0,0.0,0.0,0.0,0.0,0.0,0.0,0.0,0.0,0.0,0.0,0.0,0.0,0.0,0.0,0.0,0.0,0.0,0.0,0.0,0.0,0.0,0.0,0.0,0.0,0.0,0.0,0.0,0.0,0.0,0.0,0.0,0.0,0.0,0.0,0.0,0.0,0.0,0.0,0.0,0.0,0.0,0.0,0.0,0.0,0.0,0.0,0.0,0.0,0.0,0.0,0.0,0.0,0.0,0.0,0.0,0.0,0.0,0.0,0.0,0.0,0.0,0.0,0.0,0.0,0.0,0.0,0.0,0.0,0.0,0.0,0.0,0.0,0.0,0.0,0.0,0.0,0.0,0.0,0.0,0.0,0.0,0.0,0.0,0.0,0.0,0.0,0.0,0.0,0.0,0.0,0.0,0.0,0.0,0.0,0.0,0.0,0.0,0.0,0.0,0.0,-0.6969,0.0,-0.7095,-0.7089,-0.7191,-0.7231,0.0,0.0,0.0,0.0,0.0,0.0,0.0,0.0,0.0,0.0,0.0,0.0,0.0,0.0,0.0,0.0,0.0,0.0,0.0,0.0,0.0,0.0,0.0,0.0,0.0,0.0,0.0,0.0,0.0,0.0,0.0,0.0,0.0,0.0,0.0,0.0,0.0,0.0,0.0,0.0,0.0,0.0,0.0,0.0,0.0,0.0,0.0,0.0,0.0,0.0,0.0,0.0,0.0,0.0,0.0,0.0,0.0,0.0,0.0,0.0,0.0,0.0,0.0,0.0,0.0,0.0,0.0,0.0,0.0,0.0,0.0,0.0,0.0,0.0,0.0,0.0,0.0,0.0,0.0,0.0,0.0,0.0,0.0,0.0,0.0,0.0,0.0,0.0,0.0,0.0,0.0,0.0,0.0,0.0,0.0,0.0,0.0,0.0,0.0,0.0,0.0,0.0,0.0,0.0,0.0,0.0,0.0,0.0,-0.6939,-0.7182,-0.7236,-0.7271,-0.7296,-0.7301,-0.7295,0.0,0.0,0.0,0.0,0.0,0.0,0.0,0.0,0.0,0.0,0.0,0.0,0.0,0.0,0.0,0.0,0.0,0.0,0.0,0.0,0.0,0.0,0.0,0.0,0.0,0.0,0.0,0.0,0.0,0.0,0.0,0.0,0.0,0.0,0.0,0.0,0.0,0.0,0.0,0.0,0.0,0.0,0.0,0.0,0.0,0.0,0.0,0.0,0.0,0.0,0.0,0.0,0.0,0.0,0.0,0.0,0.0,0.0,0.0,0.0,0.0,0.0,0.0,0.0,0.0,0.0,0.0,0.0,0.0,0.0,0.0,0.0,0.0,0.0,0.0,0.0,0.0,0.0,0.0,0.0,0.0,0.0,0.0,0.0,0.0,0.0,0.0,0.0,0.0,0.0,0.0,0.0,0.0,0.0,0.0,0.0,0.0,0.0,0.0,0.0,0.0,0.0,0.0,0.0,0.0,0.0,0.0,0.0,0.0,-0.7008,-0.7104,-0.7152,-0.7146,-0.7263,-0.7273,0.0,0.0,0.0,0.0,0.0,0.0,0.0,0.0,0.0,0.0,0.0,0.0,0.0,0.0,0.0,0.0,0.0,0.0,0.0,0.0,0.0,0.0,0.0,0.0,0.0,0.0,0.0,0.0,0.0,0.0,0.0,0.0,0.0,0.0,0.0,0.0,0.0,0.0,0.0,0.0,0.0,0.0,0.0,0.0,0.0,0.0,0.0,0.0,0.0,0.0,0.0,0.0,0.0,0.0,0.0,0.0,0.0,0.0,0.0,0.0,0.0,0.0,0.0,0.0,0.0,0.0,0.0,0.0,0.0,0.0,0.0,0.0,0.0,0.0,0.0,0.0,0.0,0.0,0.0,0.0,0.0,0.0,0.0,0.0,0.0,0.0,0.0,0.0,0.0,0.0,0.0,0.0,0.0,0.0,0.0,0.0,0.0,0.0,0.0,0.0,0.0,0.0,0.0,0.0,0.0,0.0,0.0,0.0,0.0,-0.6851,-0.7091,-0.7242,-0.7247,-0.7308,-0.7224,-0.7102,0.0,0.0,0.0,0.0,0.0,0.0,0.0,0.0,0.0,0.0,0.0,0.0,0.0,0.0,0.0,0.0,0.0,0.0,0.0,0.0,0.0,0.0,0.0,0.0,0.0,0.0,0.0,0.0,0.0,0.0,0.0,0.0,0.0,0.0,0.0,0.0,0.0,0.0,0.0,0.0,0.0,0.0,0.0,0.0,0.0,0.0,0.0,0.0,0.0,0.0,0.0,0.0,0.0,0.0,0.0,0.0,0.0,0.0,0.0,0.0,0.0,0.0,0.0,0.0,0.0,0.0,0.0,0.0,0.0,0.0,0.0,0.0,0.0,0.0,0.0,0.0,0.0,0.0,0.0,0.0,0.0,0.0,0.0,0.0,0.0,0.0,0.0,0.0,0.0,0.0,0.0,0.0,0.0,0.0,0.0,0.0,0.0,0.0,0.0,0.0,0.0,0.0,0.0,0.0,0.0,0.0,0.0,0.0,-0.6781,-0.7268,-0.7473,-0.745,-0.7333,-0.7236,0.0,0.0,0.0,0.0,0.0,0.0,0.0,0.0,0.0,0.0,0.0,0.0,0.0,0.0,0.0,0.0,0.0,0.0,0.0,0.0,0.0,0.0,0.0,0.0,0.0,0.0,0.0,0.0,0.0,0.0,0.0,0.0,0.0,0.0,0.0,0.0,0.0,0.0,0.0,0.0,0.0,0.0,0.0,0.0,0.0,0.0,0.0,0.0,0.0,0.0,0.0,0.0,0.0,0.0,0.0,0.0,0.0,0.0,0.0,0.0,0.0,0.0,0.0,0.0,0.0,0.0,0.0,0.0,0.0,0.0,0.0,0.0,0.0,0.0,0.0,0.0,0.0,0.0,0.0,0.0,0.0,0.0,0.0,0.0,0.0,0.0,0.0,0.0,0.0,0.0,0.0,0.0,0.0,0.0,0.0,0.0,0.0,0.0,0.0,0.0,0.0,0.0,0.0,0.0,0.0,0.0,0.0,0.0,0.0,-0.6895,-0.7074,-0.7041,-0.6928,-0.7074,-0.7089,0.0,0.0,0.0,0.0,0.0,0.0,0.0,0.0,0.0,0.0,0.0,0.0,0.0,0.0,0.0,0.0,0.0,0.0,0.0,0.0,0.0,0.0,0.0,0.0,0.0,0.0,0.0,0.0,0.0,0.0,0.0,0.0,0.0,0.0,0.0,0.0,0.0,0.0,0.0,0.0,0.0,0.0,0.0,0.0,0.0,0.0,0.0,0.0,0.0,0.0,0.0,0.0,0.0,0.0,0.0,0.0,0.0,0.0,0.0,0.0,0.0,0.0,0.0,0.0,0.0,0.0,0.0,0.0,0.0,0.0,0.0,0.0,0.0,0.0,0.0,0.0,0.0,0.0,0.0,0.0,0.0,0.0,0.0,0.0,0.0,0.0,0.0,0.0,0.0,0.0,0.0,0.0,0.0,0.0,0.0,0.0,0.0,0.0,0.0,0.0,0.0,0.0,0.0,0.0,0.0,0.0,0.0,0.0,-0.6697,-0.691,-0.6842,-0.6779,-0.6648,-0.6853,-0.6924,0.0,0.0,0.0,0.0,0.0,0.0,0.0,0.0,0.0,0.0,0.0,0.0,0.0,0.0,0.0,0.0,0.0,0.0,0.0,0.0,0.0,0.0,0.0,0.0,0.0,0.0,0.0,0.0,0.0,0.0,0.0,0.0,0.0,0.0,0.0,0.0,0.0,0.0,0.0,0.0,0.0,0.0,0.0,0.0,0.0,0.0,0.0,0.0,0.0,0.0,0.0,0.0,0.0,0.0,0.0,0.0,0.0,0.0,0.0,0.0,0.0,0.0,0.0,0.0,0.0,0.0,0.0,0.0,0.0,0.0,0.0,0.0,0.0,0.0,0.0,0.0,0.0,0.0,0.0,0.0,0.0,0.0,0.0,0.0,0.0,0.0,0.0,0.0,0.0,0.0,0.0,0.0,0.0,0.0,0.0,0.0,0.0,0.0,0.0,0.0,0.0,0.0,0.0,0.0,0.0,0.0,0.0,0.0,-0.6384,-0.6843,-0.6708,-0.6634,-0.6625,-0.6714,-0.6725,0.0,0.0,0.0,0.0,0.0,0.0,0.0,0.0,0.0,0.0,0.0,0.0,0.0,0.0,0.0,0.0,0.0,0.0,0.0,0.0,0.0,0.0,0.0,0.0,0.0,0.0,0.0,0.0,0.0,0.0,0.0,0.0,0.0,0.0,0.0,0.0,0.0,0.0,0.0,0.0,0.0,0.0,0.0,0.0,0.0,0.0,0.0,0.0,0.0,0.0,0.0,0.0,0.0,0.0,0.0,0.0,0.0,0.0,0.0,0.0,0.0,0.0,0.0,0.0,0.0,0.0,0.0,0.0,0.0,0.0,0.0,0.0,0.0,0.0,0.0,0.0,0.0,0.0,0.0,0.0,0.0,0.0,0.0,0.0,0.0,0.0,0.0,0.0,0.0,0.0,0.0,0.0,0.0,0.0,0.0,0.0,0.0,0.0,0.0,0.0,0.0,0.0,0.0,0.0,0.0,0.0,0.0,0.0,-0.6406,-0.6532,-0.6724,-0.6848,-0.6848,-0.6966,-0.6962,0.0,0.0,0.0,0.0,0.0,0.0,0.0,0.0,0.0,0.0,0.0,0.0,0.0,0.0,0.0,0.0,0.0,0.0,0.0,0.0,0.0,0.0,0.0,0.0,0.0,0.0,0.0,0.0,0.0,0.0,0.0,0.0,0.0,0.0,0.0,0.0,0.0,0.0,0.0,0.0,0.0,0.0,0.0,0.0,0.0,0.0,0.0,0.0,-0.559,0.0,0.0,0.0,0.0,0.0,0.0,0.0,0.0,0.0,0.0,0.0,0.0,0.0,0.0,0.0,0.0,0.0,0.0,0.0,0.0,0.0,0.0,0.0,0.0,0.0,0.0,0.0,0.0,0.0,0.0,0.0,0.0,0.0,0.0,0.0,0.0,0.0,0.0,0.0,0.0,0.0,0.0,0.0,0.0,0.0,0.0,0.0,0.0,0.0,0.0,0.0,0.0,0.0,0.0,0.0,0.0,0.0,0.0,0.0,-0.6265,-0.6394,-0.6664,-0.6857,-0.6916,-0.6982,-0.6971,0.0,0.0,0.0,0.0,0.0,0.0,0.0,0.0,0.0,0.0,0.0,0.0,0.0,0.0,0.0,0.0,0.0,0.0,0.0,0.0,0.0,0.0,0.0,0.0,0.0,0.0,0.0,0.0,0.0,0.0,0.0,0.0,0.0,0.0,0.0,0.0,0.0,0.0,0.0,0.0,0.0,0.0,0.0,0.0,0.0,0.0,0.0,0.0,0.0,0.0,0.0,0.0,0.0,0.0,0.0,0.0,0.0,0.0,0.0,0.0,0.0,0.0,0.0,0.0,0.0,0.0,0.0,0.0,0.0,0.0,0.0,0.0,0.0,0.0,0.0,0.0,0.0,0.0,0.0,0.0,0.0,0.0,0.0,0.0,0.0,0.0,0.0,0.0,0.0,0.0,0.0,0.0,0.0,0.0,0.0,0.0,0.0,0.0,0.0,0.0,0.0,0.0,0.0,0.0,0.0,0.0,0.0,-0.5722,-0.6087,-0.6404,-0.6609,-0.6741,-0.6876,-0.6885,-0.6857,-0.6817,0.0,0.0,0.0,0.0,0.0,0.0,0.0,0.0,0.0,0.0,0.0,0.0,0.0,0.0,0.0,0.0,0.0,0.0,0.0,0.0,0.0,0.0,0.0,0.0,0.0,0.0,0.0,0.0,0.0,0.0,0.0,0.0,0.0,0.0,0.0,0.0,0.0,0.0,-0.5617,-0.5692,0.0,0.0,0.0,0.0,0.0,0.0,0.0,0.0,-0.6746,0.0,0.0,0.0,0.0,0.0,0.0,0.0,0.0,0.0,0.0,0.0,0.0,0.0,0.0,0.0,0.0,0.0,0.0,0.0,0.0,0.0,0.0,0.0,0.0,0.0,0.0,0.0,0.0,0.0,0.0,0.0,0.0,0.0,0.0,0.0,0.0,0.0,0.0,0.0,0.0,0.0,0.0,0.0,0.0,0.0,0.0,0.0,0.0,0.0,0.0,0.0,0.0,0.0,0.0,0.0,0.0,-0.5321,-0.5837,-0.6205,-0.6412,-0.6613,-0.6741,-0.6876,-0.6889,-0.6865,-0.6804,0.0,0.0,0.0,0.0,0.0,0.0,0.0,0.0,0.0,0.0,0.0,0.0,0.0,0.0,0.0,0.0,0.0,0.0,0.0,0.0,0.0,0.0,0.0,0.0,0.0,0.0,0.0,0.0,0.0,0.0,0.0,0.0,0.0,0.0,0.0,0.0,0.0,0.0,0.0,-0.6406,-0.6657,0.0,0.0,0.0,0.0,0.0,0.0,0.0,0.0,-0.6983,0.0,0.0,0.0,0.0,0.0,0.0,0.0,0.0,0.0,0.0,0.0,0.0,0.0,0.0,0.0,0.0,0.0,0.0,0.0,0.0,0.0,0.0,0.0,0.0,0.0,0.0,0.0,0.0,0.0,0.0,0.0,0.0,0.0,0.0,0.0,0.0,0.0,0.0,0.0,0.0,0.0,0.0,0.0,0.0,0.0,0.0,0.0,0.0,0.0,0.0,0.0,0.0,0.0,0.0,0.0,-0.5634,-0.5992,-0.6297,-0.6412,-0.6482,-0.6683,-0.6872,-0.6724,-0.6712,0.0,0.0,0.0,0.0,0.0,0.0,0.0,0.0,0.0,0.0,0.0,0.0,0.0,0.0,0.0,0.0,0.0,0.0,0.0,0.0,0.0,0.0,0.0,0.0,0.0,0.0,0.0,0.0,0.0,0.0,0.0,0.0,0.0,0.0,0.0,0.0,0.0,0.0,0.0,0.0,-0.6855,-0.7032,-0.7269,0.0,0.0,0.0,0.0,0.0,0.0,-0.7547,-0.726,0.0,0.0,0.0,0.0,0.0,0.0,0.0,0.0,0.0,0.0,0.0,0.0,0.0,0.0,0.0,0.0,0.0,0.0,0.0,0.0,0.0,0.0,0.0,0.0,0.0,0.0,0.0,0.0,0.0,0.0,0.0,0.0,0.0,0.0,0.0,0.0,0.0,0.0,0.0,0.0,0.0,0.0,0.0,0.0,0.0,0.0,0.0,0.0,0.0,0.0,0.0,0.0,0.0,0.0,0.0,-0.5888,-0.6095,-0.627,-0.6412,-0.642,-0.6552,-0.6876,-0.658,-0.6632,0.0,0.0,0.0,0.0,0.0,0.0,0.0,0.0,0.0,0.0,0.0,0.0,0.0,0.0,0.0,0.0,0.0,0.0,0.0,0.0,0.0,0.0,0.0,0.0,0.0,0.0,0.0,0.0,0.0,0.0,0.0,0.0,0.0,0.0,0.0,0.0,0.0,0.0,0.0,0.0,0.0,-0.7317,-0.773,-0.7799,0.0,0.0,0.0,0.0,-0.7857,-0.7799,0.0,0.0,0.0,0.0,0.0,0.0,0.0,0.0,0.0,0.0,0.0,0.0,0.0,0.0,0.0,0.0,0.0,0.0,0.0,0.0,0.0,0.0,0.0,0.0,0.0,0.0,0.0,0.0,0.0,0.0,0.0,0.0,0.0,0.0,0.0,0.0,0.0,0.0,0.0,0.0,0.0,0.0,0.0,0.0,0.0,0.0,0.0,0.0,0.0,0.0,0.0,0.0,0.0,0.0,0.0,0.0,-0.5896,-0.6217,-0.6396,-0.642,-0.642,-0.6552,-0.6876,-0.6837,-0.6908,0.0,0.0,0.0,0.0,0.0,0.0,0.0,0.0,0.0,0.0,0.0,0.0,0.0,0.0,0.0,0.0,0.0,0.0,0.0,0.0,0.0,0.0,0.0,0.0,0.0,0.0,0.0,0.0,0.0,0.0,0.0,0.0,0.0,0.0,0.0,0.0,0.0,0.0,0.0,0.0,0.0,-0.7844,-0.8209,-0.8485,-0.8687,0.0,0.0,-0.8715,-0.8692,-0.8254,0.0,0.0,0.0,0.0,0.0,0.0,0.0,0.0,0.0,0.0,0.0,0.0,0.0,0.0,0.0,0.0,0.0,0.0,0.0,0.0,0.0,0.0,0.0,0.0,0.0,0.0,0.0,0.0,0.0,0.0,0.0,0.0,0.0,0.0,0.0,0.0,0.0,0.0,0.0,0.0,0.0,0.0,0.0,0.0,0.0,0.0,0.0,0.0,0.0,0.0,0.0,0.0,0.0,0.0,0.0,-0.5888,-0.59,-0.6237,-0.642,-0.642,-0.6548,-0.6745,-0.6881,-0.6905,-0.6966,0.0,0.0,0.0,0.0,0.0,0.0,0.0,0.0,0.0,0.0,0.0,0.0,0.0,0.0,0.0,0.0,0.0,0.0,0.0,0.0,0.0,0.0,0.0,0.0,0.0,0.0,0.0,0.0,0.0,0.0,0.0,0.0,0.0,0.0,0.0,0.0,0.0,0.0,0.0,0.0,0.0,0.0,-0.8559,-0.8768,0.0,0.0,0.0,-0.8888,-0.8835,0.0,0.0,0.0,0.0,0.0,0.0,0.0,0.0,0.0,0.0,0.0,0.0,0.0,0.0,0.0,0.0,0.0,0.0,0.0,0.0,0.0,0.0,0.0,0.0,0.0,0.0,0.0,0.0,0.0,0.0,0.0,0.0,0.0,0.0,0.0,0.0,0.0,0.0,0.0,0.0,0.0,0.0,0.0,0.0,0.0,0.0,0.0,0.0,0.0,0.0,0.0,0.0,0.0,0.0,0.0,0.0,0.0,-0.5896,-0.6237,-0.6416,-0.6552,-0.6618,-0.6749,-0.6876,-0.687,0.0,0.0,0.0,0.0,0.0,0.0,0.0,0.0,0.0,0.0,0.0,0.0,0.0,0.0,0.0,0.0,0.0,0.0,0.0,0.0,0.0,0.0,0.0,0.0,0.0,0.0,0.0,-0.616,0.0,0.0,0.0,0.0,0.0,0.0,0.0,0.0,0.0,0.0,0.0,0.0,0.0,0.0,-0.8523,-0.8954,-0.9017,-0.9022,0.0,0.0,-0.9017,-0.8899,-0.8641,-0.8372,0.0,0.0,0.0,0.0,0.0,0.0,0.0,0.0,0.0,0.0,0.0,0.0,0.0,0.0,0.0,0.0,0.0,0.0,0.0,0.0,0.0,0.0,0.0,0.0,0.0,0.0,0.0,0.0,0.0,0.0,0.0,0.0,0.0,0.0,0.0,0.0,0.0,0.0,0.0,0.0,0.0,0.0,0.0,0.0,0.0,0.0,0.0,0.0,0.0,0.0,0.0,0.0,0.0,0.0,-0.6005,-0.59,-0.6237,-0.6552,-0.6815,-0.6552,-0.6548,-0.6881,-0.6868,-0.6876,0.0,0.0,0.0,0.0,0.0,0.0,0.0,0.0,0.0,0.0,0.0,0.0,0.0,0.0,0.0,0.0,0.0,0.0,0.0,0.0,0.0,0.0,0.0,0.0,0.0,0.0,0.0,0.0,0.0,0.0,0.0,0.0,0.0,0.0,0.0,0.0,0.0,0.0,0.0,0.0,0.0,-0.8873,-0.9382,-0.9332,-0.9274,0.0,-0.9274,-0.921,-0.9017,-0.87,-0.8372,-0.7939,0.0,0.0,0.0,0.0,0.0,0.0,0.0,0.0,0.0,0.0,0.0,0.0,0.0,0.0,0.0,0.0,0.0,0.0,0.0,0.0,0.0,0.0,0.0,0.0,0.0,0.0,0.0,0.0,0.0,0.0,0.0,0.0,0.0,0.0,0.0,0.0,0.0,0.0,0.0,0.0,0.0,0.0,0.0,0.0,0.0,0.0,0.0,0.0,0.0,0.0,0.0,0.0,0.0,-0.612,-0.5914,-0.6218,-0.6478,-0.6613,-0.6683,-0.6749,-0.6881,-0.7012,-0.7136,0.0,0.0,0.0,0.0,0.0,0.0,0.0,0.0,0.0,0.0,0.0,0.0,0.0,0.0,0.0,0.0,0.0,0.0,0.0,0.0,0.0,0.0,0.0,0.0,0.0,0.0,0.0,0.0,-0.7305,-0.7343,-0.7491,0.0,0.0,0.0,0.0,0.0,0.0,0.0,0.0,0.0,0.0,-0.9364,-0.947,-0.953,0.0,0.0,-0.9338,-0.935,-0.921,-0.9081,-0.886,-0.8515,-0.8042,0.0,0.0,0.0,0.0,0.0,0.0,0.0,0.0,0.0,0.0,0.0,0.0,0.0,0.0,0.0,0.0,0.0,0.0,0.0,0.0,0.0,0.0,0.0,0.0,0.0,0.0,0.0,0.0,0.0,0.0,0.0,0.0,0.0,0.0,0.0,0.0,0.0,0.0,0.0,0.0,0.0,0.0,0.0,0.0,0.0,0.0,0.0,0.0,0.0,0.0,0.0,0.0,-0.628,-0.6077,-0.6314,-0.6408,-0.6552,-0.6749,-0.6876,-0.6881,-0.7073,-0.7237,0.0,0.0,0.0,0.0,0.0,0.0,0.0,0.0,0.0,0.0,0.0,0.0,0.0,0.0,0.0,0.0,0.0,0.0,0.0,0.0,0.0,0.0,0.0,0.0,0.0,0.0,0.0,0.0,-0.7712,-0.7608,-0.775,0.0,0.0,0.0,0.0,0.0,0.0,0.0,0.0,0.0,0.0,-0.9735,-0.9679,-0.9734,-0.974,-0.9408,-0.9478,-0.9478,-0.9332,-0.9332,-0.921,-0.8829,0.0,0.0,0.0,0.0,0.0,0.0,0.0,0.0,0.0,0.0,0.0,0.0,0.0,0.0,0.0,0.0,0.0,0.0,0.0,0.0,0.0,0.0,0.0,0.0,0.0,0.0,0.0,-0.3221,0.0,0.0,-0.3168,0.0,0.0,0.0,0.0,0.0,0.0,0.0,0.0,0.0,0.0,0.0,0.0,0.0,0.0,0.0,0.0,0.0,0.0,0.0,0.0,0.0,0.0,-0.6345,-0.6404,-0.6396,-0.6548,-0.6811,-0.6811,-0.6811,-0.6881,-0.7073,-0.7113,-0.6917,0.0,0.0,0.0,0.0,0.0,0.0,0.0,0.0,0.0,0.0,0.0,0.0,0.0,0.0,0.0,0.0,0.0,0.0,0.0,0.0,0.0,0.0,0.0,0.0,0.0,0.0,-0.836,-0.8154,-0.8005,0.0,0.0,0.0,0.0,0.0,0.0,0.0,0.0,0.0,-1.0207,-1.012,-0.9927,-1.0009,-0.9862,-0.974,-0.9548,-0.9478,-0.9478,-0.9338,-0.9332,-0.921,0.0,0.0,0.0,0.0,0.0,0.0,0.0,0.0,0.0,0.0,0.0,0.0,0.0,0.0,0.0,0.0,0.0,0.0,0.0,0.0,0.0,0.0,0.0,0.0,0.0,0.0,0.0,-0.3823,-0.3747,0.0,0.0,0.0,0.0,0.0,0.0,0.0,0.0,0.0,0.0,0.0,-0.4789,-0.4803,0.0,0.0,0.0,0.0,0.0,0.0,0.0,0.0,0.0,0.0,0.0,0.0,-0.6526,-0.6642,-0.6715,-0.6815,-0.7016,-0.6946,-0.6946,-0.7073,-0.7138,-0.7237,-0.7356,0.0,0.0,0.0,0.0,0.0,0.0,0.0,0.0,0.0,0.0,0.0,0.0,0.0,0.0,0.0,0.0,0.0,0.0,0.0,0.0,0.0,0.0,0.0,0.0,0.0,-0.8504,0.0,0.0,0.0,0.0,0.0,0.0,0.0,0.0,0.0,0.0,0.0,-1.0137,-1.0395,-1.0472,-1.0441,-1.0231,-1.0047,-0.9856,0.0,0.0,0.0,0.0,0.0,0.0,0.0,0.0,0.0,0.0,0.0,0.0,0.0,0.0,-0.6571,-0.611,-0.6056,-0.6052,-0.6056,0.0,0.0,0.0,0.0,0.0,0.0,0.0,0.0,0.0,0.0,0.0,0.0,0.0,0.0,-0.4074,-0.394,-0.3878,0.0,0.0,0.0,0.0,0.0,0.0,0.0,0.0,-0.4565,-0.4719,-0.4942,-0.4945,-0.5031,-0.5209,-0.5389,-0.5549,0.0,0.0,0.0,0.0,0.0,0.0,0.0,0.0,-0.6749,-0.6929,-0.6881,-0.6946,-0.7016,-0.7082,-0.7143,-0.7204,-0.7335,-0.75,-0.7731,-0.7964,-0.8034,0.0,0.0,0.0,0.0,0.0,0.0,0.0,0.0,0.0,0.0,0.0,0.0,0.0,0.0,0.0,0.0,0.0,0.0,0.0,0.0,0.0,0.0,0.0,-0.9161,0.0,0.0,0.0,0.0,0.0,0.0,0.0,0.0,0.0,-1.0052,-1.0404,-1.076,-1.0873,-1.0926,-1.0863,-1.0618,0.0,0.0,0.0,0.0,0.0,0.0,0.0,-0.958,-0.935,-0.921,-0.8965,-0.8491,-0.8089,-0.7737,-0.7675,0.0,0.0,-0.6875,-0.6731,-0.6731,-0.6727,-0.6671,-0.6607,-0.6547,-0.6482,-0.65,0.0,0.0,0.0,0.0,-0.4198,0.0,0.0,0.0,-0.396,-0.3969,0.0,-0.396,0.0,0.0,0.0,0.0,-0.4501,-0.4507,0.0,0.0,-0.4836,-0.4968,-0.5365,-0.5442,-0.545,-0.5454,-0.587,-0.6083,-0.6126,-0.5936,0.0,0.0,0.0,0.0,0.0,0.0,-0.7031,-0.7209,-0.7034,-0.6898,-0.6973,-0.7372,-0.7433,-0.7297,-0.755,-0.7777,-0.7944,-0.7928,-0.7992,-0.8114,-0.8097,0.0,0.0,0.0,0.0,0.0,0.0,0.0,0.0,0.0,0.0,0.0,0.0,0.0,0.0,0.0,0.0,0.0,0.0,0.0,0.0,-0.9894,0.0,0.0,0.0,0.0,0.0,0.0,0.0,0.0,0.0,-1.1152,-1.1188,-1.1068,-1.1163,-1.1717,0.0,0.0,0.0,0.0,-1.0624,-1.0501,-1.0346,-1.0147,-0.9934,-0.9934,-0.9772,-0.9379,0.0,0.0,-0.8829,-0.8641,-0.8431,-0.8231,-0.8091,-0.7914,-0.7547,-0.743,-0.7425,-0.742,-0.7255,-0.7115,-0.711,-0.7024,-0.7007,-0.4777,0.0,0.0,0.0,0.0,-0.4683,-0.4538,-0.433,-0.4509,-0.4537,-0.4456,-0.4384,0.0,0.0,0.0,0.0,0.0,0.0,-0.5129,-0.5537,-0.5497,-0.5523,-0.5674,-0.5677,-0.5698,-0.5668,-0.6004,-0.6463,-0.7044,-0.6618,-0.6384,-0.6262,0.0,0.0,0.0,0.0,-0.7373,-0.7369,-0.7061,-0.719,-0.7767,-0.8132,-0.8339,-0.8255,-0.831,-0.8333,-0.8398,-0.8501,-0.8554,-0.8432,-0.8482,0.0,0.0,0.0,0.0,0.0,0.0,0.0,0.0,0.0,0.0,0.0,0.0,0.0,0.0,0.0,0.0,0.0,0.0,0.0,-1.0456,-1.0445,-1.0378,0.0,0.0,0.0,0.0,0.0,0.0,0.0,0.0,0.0,-1.2641,-1.236,-1.2119,0.0,0.0,-1.2387,-1.2189,-1.1864,-1.1618,-1.1431,-1.1106,0.0,-1.0365,-1.0207,-0.9982,-0.9713,-0.9344,-0.9022,-0.8835,-0.8646,-0.8511,-0.8441,-0.8382,-0.8334,-0.8223,-0.7985,-0.7858,-0.7795,-0.7795,-0.7731,-0.7736,-0.7604,-0.7492,-0.5123,-0.511,-0.49,-0.4783,-0.4789,-0.4868,-0.4786,-0.4582,-0.4734,-0.4756,-0.4686,-0.4613,-0.4615,-0.4754,-0.468,0.0,0.0,0.0,-0.529,-0.5584,-0.5584,-0.5584,-0.5663,-0.5719,-0.5818,-0.5895,-0.6177,-0.6659,-0.7335,-0.695,-0.6822,-0.6933,0.0,-0.7127,-0.7052,-0.7617,-0.7897,-0.7855,-0.7509,-0.7703,-0.8297,-0.8594,-0.8735,-0.8795,-0.8869,-0.8938,-0.8938,-0.9142,-0.9145,-0.9023,-0.9082,-0.9056,0.0,0.0,0.0,0.0,0.0,0.0,0.0,0.0,0.0,0.0,0.0,-0.83,-0.8837,0.0,0.0,0.0,-1.0465,-1.0835,-1.1135,-1.1098,0.0,0.0,0.0,0.0,0.0,0.0,0.0,-1.2416,-1.259,-1.2809,-1.3412,-1.3345,-1.3111,-1.2833,-1.2943,-1.3013,-1.2803,0.0,-1.2237,-1.1937,-1.168,-1.1335,-1.0898,-1.0634,-1.0311,-0.986,-0.9478,-0.9151,-0.9022,-0.8894,-0.8765,-0.87,-0.8705,-0.8705,-0.8705,-0.8511,-0.8312,-0.8182,-0.8187,-0.8187,-0.8182,-0.8122,-0.7992,-0.5371,-0.5333,-0.5047,-0.4936,-0.4933,-0.4787,-0.4787,-0.4784,-0.4787,-0.4784,-0.4781,-0.4781,-0.4784,-0.4933,-0.5146,0.0,-0.5219,-0.5216,-0.5295,-0.5292,-0.5289,-0.5365,-0.5596,-0.5719,-0.5852,-0.6088,-0.644,-0.6813,-0.7119,-0.7026,-0.7253,-0.7791,-0.7677,-0.7561,-0.7624,-0.8203,-0.8492,-0.8477,-0.8255,-0.8401,-0.8852,-0.8786,-0.8852,-0.9135,-0.9325,-0.9454,-0.9536,-0.9723,-0.9817,-0.9726,-0.9708,-0.9682,-0.9507,0.0,0.0,0.0,0.0,0.0,0.0,0.0,0.0,0.0,0.0,0.0,0.0,0.0,0.0,0.0,-1.1008,0.0,-1.1744,-1.1765,0.0,0.0,0.0,-1.239,-1.2451,-1.2661,-1.2878,-1.3111,0.0,0.0,-1.3664,-1.395,-1.4037,-1.3711,-1.3561,-1.3434,-1.3224,-1.2901,-1.2579,-1.2283,-1.2118,-1.1826,-1.1449,-1.107,-1.0577,-0.9941,-0.9624,-0.9414,-0.9344,-0.9274,-0.921,-0.9017,-0.8952,-0.8958,-0.8952,-0.8829,-0.8711,-0.8517,-0.8511,-0.8517,-0.8511,-0.8447,-0.8382,-0.5455,-0.5444,-0.5328,-0.5281,-0.5281,-0.5281,-0.52,-0.5197,-0.5197,-0.5197,-0.5197,-0.52,-0.5281,-0.5281,-0.5361,-0.5442,-0.5606,-0.5606,-0.5684,-0.5842,-0.5842,-0.5925,-0.6093,-0.6124,-0.6296,-0.6441,-0.6773,-0.7138,-0.7296,-0.7484,-0.7723,-0.8021,-0.8454,-0.8477,-0.8194,-0.8926,-0.9148,-0.8834,-0.8985,-0.9378,-1.001,-0.9766,-0.9755,-1.0114,-1.0019,-0.999,-1.0067,-1.002,-1.0037,-1.0047,-1.0105,-0.995,-0.9479,-0.942,0.0,0.0,0.0,0.0,0.0,0.0,0.0,0.0,0.0,-0.9599,-1.0071,0.0,-1.11,0.0,-1.1574,-1.1899,-1.2112,-1.2187,0.0,0.0,-1.239,-1.2458,-1.2451,-1.2661,-1.3029,-1.3546,-1.3646,-1.3877,-1.4285,-1.4466,-1.449,-1.4403,-1.4324,-1.4261,-1.4112,-1.3899,-1.363,-1.3201,-1.2998,-1.2704,-1.2026,-1.1286,-1.0603,-1.0199,-0.9799,-0.9466,-0.9338,-0.9145,-0.9022,-0.8894,-0.8835,-0.877,-0.8705,-0.8576,-0.8582,-0.8517,-0.8517,-0.8517,-0.8517,-0.8376,-0.8301,-0.5689,-0.5604,-0.5515,-0.5513,-0.532,-0.5376,-0.5371,-0.5371,-0.5371,-0.5371,-0.5371,-0.5371,-0.5371,-0.5371,-0.5371,-0.5455,-0.5541,-0.5541,-0.5621,-0.5702,-0.5871,-0.5954,-0.6204,-0.6287,-0.6529,-0.6847,-0.7019,-0.7303,-0.7708,-0.7856,-0.8081,-0.8544,-0.8923,-0.9047,-0.8996,-0.9557,-0.9777,-0.9575,-0.9766,-1.0067,-1.0466,-1.0299,-1.0293,-1.0519,-1.0461,-1.046,-1.046,-1.0544,-1.0486,-1.0378,-1.0437,-1.0305,-0.9906,-0.9831,-0.9777,0.0,0.0,0.0,0.0,0.0,0.0,0.0,0.0,0.0,0.0,0.0,-1.1868,-1.2034,-1.2225,-1.2381,-1.2656,-1.267,-1.2747,-1.2817,-1.2888,-1.2958,-1.2958,-1.3097,-1.3382,-1.376,-1.3846,-1.4057,-1.4322,-1.4425,-1.4353,-1.4346,-1.4346,-1.4353,-1.4281,-1.4072,-1.3783,-1.3346,-1.3127,-1.2868,-1.2196,-1.1527,-1.0944,-1.0511,-1.0071,-0.974,-0.956,-0.9344,-0.9215,-0.9092,-0.9092,-0.9098,-0.8964,-0.8899,-0.8835,-0.8835,-0.8765,-0.8705,-0.8511,-0.8441,-0.8306,-0.5897,-0.5618,-0.5618,-0.5521,-0.5301,-0.5375,-0.5376,-0.5373,-0.536,-0.5344,-0.5415,-0.5417,-0.5417,-0.5415,-0.5417,-0.5417,-0.5417,-0.5417,-0.5499,-0.5499,-0.567,-0.5922,-0.6086,-0.6334,-0.6749,-0.7174,-0.7235,-0.7556,-0.8135,-0.8193,-0.8504,-0.8988,-0.9295,-0.9516,-0.9719,-1.016,-1.036,-1.0299,-1.0374,-1.0443,-1.0519,-1.0513,-1.0513,-1.0519,-1.0738,-1.0812,-1.0812,-1.1043,-1.1003,-1.0785,-1.0767,-1.0653,-1.0399,-1.0381,-1.026,0.0,-1.0311,0.0,0.0,0.0,0.0,0.0,0.0,0.0,0.0,-1.2042,-1.2517,-1.2763,-1.2785,-1.2899,-1.3244,-1.3266,-1.3346,-1.3492,-1.3492,-1.3492,-1.3492,-1.3645,-1.379,-1.379,-1.4,-1.4065,-1.4129,-1.4137,-1.4137,-1.4129,-1.4065,-1.4057,-1.4057,-1.3928,-1.3637,-1.3053,-1.29,-1.2736,-1.2213,-1.1826,-1.1396,-1.0886,-1.0498,-1.0192,-0.9974,-0.9701,-0.9542,-0.9548,-0.9484,-0.9484,-0.9478,-0.9408,-0.9338,-0.9274,-0.9139,-0.8958,-0.87,-0.8576,-0.8576,-0.5424,-0.5329,-0.5424,-0.5329,-0.5322,-0.5337,-0.5301,-0.5296,-0.5208,-0.5211,-0.5398,-0.5574,-0.5665,-0.5665,-0.5665,-0.5665,-0.5665,-0.5665,-0.575,-0.6011,-0.6013,-0.6274,-0.6624,-0.6883,-0.7145,-0.7407,-0.7629,-0.7901,-0.8235,-0.8508,-0.8823,-0.9271,-0.9837,-1.0225,-1.0423,0.0,0.0,0.0,-1.0315,-1.0154,-1.046,-1.0524,-1.0588,-1.0738,-1.0962,0.0,-1.1037,-1.1111,-1.1087,-1.1039,-1.1039,0.0,0.0,0.0,0.0,0.0,0.0,0.0,0.0,0.0,0.0,0.0,-1.1792,-1.1937,-1.191,-1.2488,-1.2982,-1.3295,-1.3331,-1.3353,-1.3411,-1.3419,-1.3426,-1.3492,-1.3492,-1.3492,-1.3492,-1.3564,-1.3645,-1.3797,-1.3863,-1.3928,-1.4065,-1.4137,-1.4057,-1.4065,-1.3992,-1.3855,-1.3863,-1.379,-1.3717,-1.3419,-1.3127,-1.2879,-1.275,-1.224,-1.1786,-1.1453,-1.0937,-1.0546,-1.0384,-1.0064,-0.9868,-0.974,-0.974,-0.9664,-0.953,-0.9454,-0.946,-0.946,-0.939,-0.9332,-0.9017,-0.8894,-0.8888,-0.5382,-0.5287,-0.5289,-0.5189,0.0,-0.509,-0.509,-0.5081,-0.5126,-0.5218,-0.5354,-0.5448,-0.5542,-0.5726,-0.5729,-0.5818,-0.5909,-0.5907,-0.5998,-0.6087,-0.6176,-0.645,-0.6819,-0.7021,-0.7348,-0.7796,-0.7899,-0.8163,-0.8763,-0.8926,-0.9251,-0.981,-1.0145,-1.0423,-1.0643,-1.0794,-1.0834,-1.0823,-1.0662,-1.05,-1.0567,-1.0699,-1.0789,-1.086,-1.0808,0.0,0.0,0.0,0.0,0.0,0.0,0.0,0.0,-1.0912,0.0,-1.0725,-1.1,-1.1222,-1.1287,-1.1501,-1.1786,-1.2006,-1.2291,-1.2456,-1.2586,-1.3013,-1.3316,-1.3477,-1.3492,-1.3492,-1.3492,-1.3492,-1.3492,-1.3492,-1.3492,-1.3492,-1.3492,-1.3492,-1.3572,-1.3645,-1.3645,-1.3717,-1.3775,-1.3775,-1.3775,-1.3775,-1.3717,-1.3645,-1.3645,-1.3645,-1.3572,-1.3419,-1.3119,-1.2893,-1.2739,-1.2497,-1.2089,-1.1793,-1.1338,-1.0915,-1.0511,-1.0227,-0.9894,-0.9713,-0.9676,-0.9606,-0.9536,-0.9466,-0.9472,-0.9466,-0.9466,-0.9466,-0.928,-0.9215,-0.9145,-0.5338,-0.5138,-0.5138,-0.5037,-0.4832,-0.4832,-0.4832,-0.4822,-0.5147,0.0,0.0,-0.5232,-0.5424,-0.5616,-0.5616,-0.5805,-0.5992,-0.5992,-0.6086,-0.6178,-0.6364,-0.6646,-0.6835,-0.7102,-0.7506,-0.8139,-0.8188,-0.8545,-0.9314,-0.9398,-0.9735,-1.0309,-1.0373,-1.0538,-1.069,-1.0762,-1.0664,-1.0632,-1.0897,-1.0939,-1.0761,-1.083,-1.0897,-1.0897,-1.0687,-1.0633,-1.0587,-1.0738,-1.079,-1.0812,-1.0962,-1.1037,-1.1117,-1.1117,-1.1117,-1.1111,-1.126,-1.149,-1.1632,-1.1855,-1.2083,-1.2305,-1.2526,-1.2753,-1.3119,-1.3346,-1.3419,-1.3426,-1.3499,-1.3492,-1.3492,-1.3492,-1.3492,-1.3492,-1.3492,-1.3492,-1.3492,-1.3492,-1.3492,-1.3492,-1.3492,-1.3492,-1.3492,-1.3492,-1.3492,-1.3499,-1.3499,-1.3419,-1.3426,-1.3426,-1.3419,-1.3193,-1.2973,-1.282,-1.2673,-1.2519,-1.243,-1.2011,-1.1683,-1.1249,-1.0757,-1.0365,-1.0036,-0.9841,-0.9676,-0.974,-0.974,-0.9734,-0.967,-0.9676,-0.9676,-0.9676,-0.9676,-0.96,-0.9466,-0.4935,-0.4834,-0.4834,-0.4834,-0.4832,-0.4832,-0.4832,-0.4824,-0.5023,-0.5122,-0.5041,-0.5232,-0.5232,-0.5138,-0.5327,-0.5521,-0.5713,-0.5713,-0.5992,-0.6361,-0.6649,-0.6838,-0.7211,-0.7847,-0.821,-0.8303,-0.8934,-0.9304,-0.953,-0.9961,-1.021,-1.0361,-1.0692,-1.1021,-1.1166,-1.1166,-1.1246,-1.1145,-1.0842,-1.0891,-1.1156,-1.102,-1.0906,-1.09,-1.1021,-1.0988,-1.0867,-1.0855,-1.09,-1.083,-1.0812,-1.0962,-1.1111,-1.1123,-1.1117,-1.1111,-1.126,-1.1409,-1.1416,-1.1781,-1.2083,-1.2298,-1.2459,-1.268,-1.29,-1.3119,-1.3266,-1.3273,-1.3419,-1.3492,-1.3492,-1.3492,-1.3492,-1.3492,-1.3492,-1.3492,-1.3492,-1.3492,-1.3492,-1.3492,-1.3492,-1.3499,-1.3492,-1.3492,-1.3492,-1.3492,-1.3346,-1.3193,-1.3119,-1.3127,-1.32,-1.3127,-1.29,-1.2673,-1.2599,-1.2452,-1.2345,-1.2258,-1.1959,-1.1642,-1.1266,-1.0968,-1.066,-1.0417,-1.0308,-1.0371,-1.0371,-1.0434,-1.0308,-1.0308,-1.0308,-1.0371,-1.0314,-1.0174,-0.9983,-0.4832,-0.4832,-0.4832,-0.4832,-0.4832,-0.4832,-0.4832,-0.483,-0.4893,-0.4948,-0.491,-0.5007,-0.5005,-0.5005,-0.5301,-0.5596,-0.5892,-0.5987,-0.6276,-0.6569,-0.6766,-0.7058,-0.7631,-0.7644,-0.8182,-0.8847,-0.9226,-0.9604,-0.9893,-1.0159,-1.0329,-1.048,-1.0809,-1.1094,-1.1267,-1.1267,-1.1267,-1.1262,-1.1133,-1.1115,-1.1299,-1.1067,-1.0985,-1.0985,-1.0865,-1.0831,-1.0721,-1.0869,-1.0892,-1.0857,-1.1086,-1.1241,-1.1397,-1.1474,-1.1552,-1.1552,-1.1629,-1.1707,-1.1778,-1.2254,-1.2479,-1.2639,-1.2792,-1.2952,-1.3029,-1.3021,-1.3046,-1.3046,-1.32,-1.3346,-1.3346,-1.3426,-1.3492,-1.3492,-1.3492,-1.3492,-1.3492,-1.3492,-1.3499,-1.3346,-1.3346,-1.3273,-1.3193,-1.32,-1.3193,-1.32,-1.3046,-1.298,-1.29,-1.29,-1.29,-1.2973,-1.2893,-1.2746,-1.2599,-1.2526,-1.2452,-1.2305,-1.2118,-1.1781,-1.1405,-1.1093,-1.079,-1.0405,-1.0301,-1.0308,-1.0308,-1.0238,-1.0238,-1.0244,-1.0308,-1.0308,-1.0238,-1.0174,-1.0047,-0.4832,-0.4832,-0.4832,-0.4832,-0.4832,-0.4832,-0.4832,-0.4832,-0.4832,-0.4832,-0.4832,-0.4832,-0.4834,-0.5037,-0.5338,-0.5639,-0.6039,-0.6237,-0.6539,-0.6845,-0.6942,-0.7441,-0.7932,-0.771,-0.8243,-0.9304,-0.9461,-0.9853,-1.0286,-1.037,-1.0537,-1.0785,-1.0931,-1.1086,-1.1255,-1.1197,-1.1176,-1.1267,-1.1267,-1.1267,-1.1262,-1.1165,-1.1069,-1.1052,-1.0891,-1.0772,-1.0713,-1.0876,-1.093,-1.088,-1.1278,-1.1519,-1.1605,-1.176,-1.1926,-1.1926,-1.1926,-1.2,-1.216,-1.2571,-1.281,-1.2896,-1.3048,-1.3127,-1.3173,-1.3022,-1.2926,-1.2938,-1.3022,-1.3119,-1.3127,-1.3266,-1.3346,-1.3346,-1.3339,-1.3346,-1.3346,-1.3346,-1.3346,-1.32,-1.3119,-1.3046,-1.2973,-1.29,-1.2893,-1.29,-1.282,-1.2826,-1.2753,-1.2606,-1.2599,-1.268,-1.2753,-1.2673,-1.2526,-1.2526,-1.2452,-1.2305,-1.2144,-1.1913,-1.1473,-1.122,-1.0844,-1.0406,-1.0213,-1.0251,-1.018,-1.018,-1.018,-1.0244,-1.0244,-1.018,-1.0238,-1.018,-1.0117,-0.4832,-0.4832,-0.4734,-0.4832,-0.4734,-0.4734,-0.4734,-0.4734,-0.4834,-0.4832,-0.4832,-0.4832,-0.5037,-0.5443,-0.5343,-0.5539,-0.6042,-0.6237,-0.6539,-0.6845,-0.754,-0.7942,-0.8038,-0.8718,-0.9008,-0.9296,-0.9955,-1.0351,-1.0705,-1.0958,-1.1125,-1.1186,-1.106,-1.1049,-1.1023,-1.084,-1.0921,-1.1289,-1.1105,-1.1094,-1.1267,-1.1241,-1.123,-1.1316,-1.1209,-1.1176,-1.0966,-1.095,-1.0936,-1.0902,-1.1214,-1.145,-1.1611,-1.1766,-1.1932,-1.1938,-1.1938,-1.2,-1.2172,-1.224,-1.2504,-1.2889,-1.2915,-1.3008,-1.316,-1.3166,-1.3155,-1.3058,-1.2993,-1.2928,-1.2907,-1.298,-1.2973,-1.3046,-1.2973,-1.2973,-1.2973,-1.2973,-1.2973,-1.2973,-1.29,-1.29,-1.29,-1.2826,-1.282,-1.2673,-1.2599,-1.2599,-1.2452,-1.2378,-1.2372,-1.2378,-1.2378,-1.2378,-1.2378,-1.2305,-1.2305,-1.2305,-1.2305,-1.2065,-1.1786,-1.15,-1.1242,-1.0837,-1.0637,-1.0504,-1.0491,-1.0555,-1.0498,-1.0434,-1.0498,-1.0491,-1.0498,-1.0498,-1.0364,-0.4636,-0.4334,-0.4435,-0.4435,-0.4334,-0.4334,-0.4435,-0.4537,-0.4537,-0.4636,-0.4834,-0.4832,-0.5037,-0.5443,-0.5644,-0.5842,-0.6042,-0.6239,-0.6637,-0.7039,-0.7437,-0.7836,-0.8531,-0.8931,-0.9335,-0.9727,-1.0319,-1.0685,-1.0993,-1.1058,-1.1133,-1.1219,-1.1012,-1.099,-1.1162,-1.0959,-1.0936,-1.0931,-1.0896,-1.0911,-1.0997,-1.117,-1.1267,-1.1267,-1.1267,-1.1225,-1.1219,-1.1198,-1.1155,-1.1147,-1.1394,-1.1645,-1.1819,-1.2058,-1.2218,-1.2385,-1.2385,-1.2385,-1.2468,-1.264,-1.2806,-1.2978,-1.3144,-1.3309,-1.3461,-1.3323,-1.3239,-1.3326,-1.3076,-1.2941,-1.2927,-1.2931,-1.29,-1.29,-1.29,-1.29,-1.29,-1.29,-1.29,-1.2753,-1.2753,-1.268,-1.2599,-1.2526,-1.2526,-1.2445,-1.2445,-1.2378,-1.2305,-1.2305,-1.2305,-1.2305,-1.2305,-1.2305,-1.2305,-1.2305,-1.2305,-1.2305,-1.2305,-1.2198,-1.1931,-1.163,-1.1329,-1.1049,-1.0762,-1.0645,-1.0555,-1.0618,-1.0618,-1.0618,-1.0618,-1.0618,-1.0618,-1.0618,-1.0498,-0.444,-0.4034,-0.4137,-0.4135,-0.4034,-0.4034,-0.4137,-0.434,-0.444,-0.4537,-0.4834,-0.4935,-0.5135,-0.5438,-0.5741,-0.5942,-0.6139,-0.6437,-0.6836,-0.7238,-0.7534,-0.8031,-0.8829,-0.9126,-0.9525,-1.0023,-1.0417,-1.0815,-1.1096,-1.1061,-1.1072,-1.1135,-1.0947,-1.1032,-1.1101,-1.1005,-1.0765,-1.0513,-1.0632,-1.0619,-1.0564,-1.0906,-1.1176,-1.1181,-1.1267,-1.1267,-1.1267,-1.1267,-1.1267,-1.1267,-1.1527,-1.1785,-1.1952,-1.2283,-1.2448,-1.2705,-1.2705,-1.2705,-1.2705,-1.2875,-1.3052,-1.3143,-1.3228,-1.3392,-1.3529,-1.3458,-1.3354,-1.3474,-1.3207,-1.2973,-1.3,-1.2982,-1.2981,-1.2898,-1.2878,-1.285,-1.2767,-1.2746,-1.268,-1.2526,-1.2526,-1.2452,-1.2378,-1.2305,-1.2305,-1.2305,-1.2305,-1.2305,-1.2305,-1.2305,-1.2305,-1.2305,-1.2305,-1.2305,-1.2305,-1.2305,-1.2305,-1.2305,-1.2305,-1.2238,-1.1977,-1.1697,-1.1416,-1.1182,-1.0822,-1.0658,-1.0624,-1.0618,-1.0618,-1.0618,-1.0555,-1.0555,-1.0618,-1.0555,-1.0491,-0.4137,-0.4034,-0.4034,-0.4034,-0.4034,-0.4034,-0.4137,-0.444,-0.444,-0.4537,-0.4834,-0.5334,-0.5534,-0.5634,-0.5737,-0.5937,-0.6439,-0.6936,-0.7138,-0.7338,-0.823,-0.8726,-0.8821,-0.9327,-0.9624,-0.9809,-1.0212,-1.0708,-1.1194,-1.1179,-1.1179,-1.1161,-1.0976,-1.0882,-1.0948,-1.0762,-1.0461,-1.0224,-1.0433,-1.0416,-1.0144,-1.0467,-1.0819,-1.1008,-1.1181,-1.1267,-1.1267,-1.1267,-1.1267,-1.1267,-1.1527,-1.1785,-1.1957,-1.2198,-1.2534,-1.2705,-1.2705,-1.2705,-1.2705,-1.2705,-1.2875,-1.3052,-1.3058,-1.3222,-1.3392,-1.336,-1.3341,-1.3451,-1.3163,-1.3063,-1.3174,-1.3126,-1.3064,-1.2842,-1.2808,-1.2688,-1.2432,-1.2439,-1.2311,-1.2325,-1.2318,-1.2305,-1.2305,-1.2305,-1.2305,-1.2305,-1.2305,-1.2305,-1.2305,-1.2305,-1.2305,-1.2305,-1.2305,-1.2305,-1.2305,-1.2305,-1.2305,-1.2305,-1.2298,-1.2291,-1.2098,-1.1877,-1.159,-1.1283,-1.0862,-1.0678,-1.0638,-1.0618,-1.0618,-1.0555,-1.0561,-1.0561,-1.0491,-1.0428,-1.0364,-0.3836,-0.3533,-0.3633,-0.3734,-0.3734,-0.3934,-0.4137,-0.434,-0.444,-0.4638,-0.5037,-0.524,-0.5639,-0.6137,-0.6137,-0.6337,-0.6639,-0.7039,-0.7338,-0.7739,-0.8137,-0.8531,-0.9031,-0.943,-0.9727,-1.0019,-1.0408,-1.0806,-1.1194,-1.1194,-1.1194,-1.1189,-1.1127,-1.109,-1.1052,-1.0882,-1.074,-1.0753,-1.0515,-1.0314,-1.0042,-1.0275,-1.0559,-1.0824,-1.1003,-1.1181,-1.1267,-1.1267,-1.1267,-1.1267,-1.1354,-1.1527,-1.1785,-1.2198,-1.2534,-1.2705,-1.2705,-1.2705,-1.2705,-1.2705,-1.2705,-1.2796,-1.2881,-1.2966,-1.3137,-1.3222,-1.3222,-1.3281,-1.3315,-1.3265,-1.3226,-1.3118,-1.3015,-1.3073,-1.3039,-1.2999,-1.2872,-1.2719,-1.2592,-1.2559,-1.2432,-1.2305,-1.2305,-1.2305,-1.2305,-1.2305,-1.2305,-1.2305,-1.2305,-1.2305,-1.2305,-1.2305,-1.2305,-1.2305,-1.2305,-1.2305,-1.2305,-1.2305,-1.2305,-1.2298,-1.2178,-1.1713,-1.1394,-1.1275,-1.0935,-1.0608,-1.0561,-1.0618,-1.0618,-1.0555,-1.0561,-1.0498,-1.0428,-1.0301,-1.0238,-0.3835,-0.3533,-0.3635,-0.3736,-0.3736,-0.3934,-0.4234,-0.4537,-0.4537,-0.4839,-0.5238,-0.5539,-0.5937,-0.6434,-0.6639,-0.6839,-0.7045,-0.7341,-0.7739,-0.8134,-0.834,-0.8638,-0.9133,-0.9529,-0.9924,-1.0323,-1.0712,-1.0998,-1.1194,-1.1194,-1.1194,-1.1194,-1.1194,-1.1194,-1.117,-1.1057,-1.1067,-1.1048,-1.0643,-1.0248,-1.0069,-1.0138,-1.0381,-1.0646,-1.0824,-1.1003,-1.1267,-1.1267,-1.1267,-1.1267,-1.1267,-1.1435,-1.1693,-1.2198,-1.2443,-1.2705,-1.2705,-1.2705,-1.2705,-1.2705,-1.2705,-1.2705,-1.2705,-1.2796,-1.2966,-1.2966,-1.3052,-1.3137,-1.3137,-1.3215,-1.3243,-1.3054,-1.305,-1.3133,-1.3113,-1.3061,-1.2975,-1.2778,-1.2628,-1.249,-1.2247,-1.2103,-1.2077,-1.2077,-1.2157,-1.215,-1.2224,-1.2231,-1.2305,-1.2305,-1.2231,-1.2224,-1.215,-1.2157,-1.2083,-1.2009,-1.2157,-1.2157,-1.2157,-1.2231,-1.2098,-1.1609,-1.1306,-1.1187,-1.1002,-1.0728,-1.0561,-1.0561,-1.0618,-1.0618,-1.0561,-1.0498,-1.0364,-1.0238,-1.0174,-0.4034,-0.3934,-0.4034,-0.4033,-0.4033,-0.4133,-0.4334,-0.4834,-0.4834,-0.5135,-0.5634,-0.6137,-0.6339,-0.6639,-0.7141,-0.7543,-0.7643,-0.7839,-0.8137,-0.8432,-0.8832,-0.9133,-0.9232,-0.9727,-1.022,-1.0717,-1.1002,-1.1194,-1.1194,-1.1194,-1.1194,-1.1194,-1.1194,-1.1194,-1.1194,-1.1165,-1.1187,-1.1111,-1.0777,-1.037,-1.0088,-1.0064,-1.0212,-1.0646,-1.0733,-1.0906,-1.1267,-1.1267,-1.1267,-1.1267,-1.1267,-1.1435,-1.1763,-1.2112,-1.2448,-1.2619,-1.2705,-1.2705,-1.2705,-1.2705,-1.2705,-1.2705,-1.2705,-1.2705,-1.2705,-1.2705,-1.279,-1.279,-1.279,-1.2881,-1.3052,-1.3087,-1.3058,-1.3042,-1.3067,-1.2971,-1.2692,-1.2584,-1.2457,-1.2183,-1.1985,-1.1732,-1.1706,-1.1781,-1.1855,-1.1929,-1.2003,-1.2077,-1.2157,-1.2231,-1.2157,-1.2077,-1.2003,-1.2003,-1.1855,-1.1706,-1.1861,-1.1935,-1.2009,-1.207,-1.1939,-1.1546,-1.1303,-1.1193,-1.0811,-1.0544,-1.0561,-1.0618,-1.0618,-1.0555,-1.0561,-1.0498,-1.0371,-1.0301,-1.0238,-0.4034,-0.4237,-0.4237,-0.4435,-0.4535,-0.4738,-0.5037,-0.5336,-0.5539,-0.5839,-0.6134,-0.6539,-0.6842,-0.7241,-0.7543,-0.7842,-0.8134,-0.8432,-0.8627,-0.873,-0.8829,-0.913,-0.9525,-0.9826,-1.0314,-1.0712,-1.11,-1.1194,-1.1194,-1.1194,-1.1194,-1.1194,-1.1194,-1.1194,-1.1194,-1.1189,-1.1151,-1.1172,-1.0848,-1.044,-1.0255,-1.0126,-1.0212,-1.0646,-1.0733,-1.0906,-1.1267,-1.1267,-1.1267,-1.1267,-1.1267,-1.1338,-1.1488,-1.1849,-1.2283,-1.2619,-1.2705,-1.2705,-1.2705,-1.2705,-1.2705,-1.2705,-1.2705,-1.2705,-1.2705,-1.2705,-1.2705,-1.2705,-1.2705,-1.2705,-1.279,-1.2796,-1.2917,-1.3271,-1.3264,-1.322,-1.301,-1.2946,-1.2641,-1.2163,-1.2063,-1.1935,-1.177,-1.1713,-1.1706,-1.1787,-1.1781,-1.1855,-1.1855,-1.1929,-1.1855,-1.1781,-1.1774,-1.1848,-1.1781,-1.1781,-1.1855,-1.2009,-1.2009,-1.2003,-1.1793,-1.1566,-1.1331,-1.1108,-1.0783,-1.0621,-1.0638,-1.0618,-1.0681,-1.0555,-1.0561,-1.0498,-1.0371,-1.0371,-1.0364,-0.4734,-0.4836,-0.4839,-0.4937,-0.5138,-0.5238,-0.5536,-0.5937,-0.6039,-0.6339,-0.6736,-0.6942,-0.7244,-0.7547,-0.7746,-0.8038,-0.8432,-0.8528,-0.873,-0.8928,-0.9027,-0.9327,-0.9628,-1.0019,-1.031,-1.0806,-1.1096,-1.1194,-1.1194,-1.1194,-1.1194,-1.1194,-1.1194,-1.1194,-1.1194,-1.1189,-1.117,-1.1047,-1.0745,-1.0532,-1.0309,-1.0126,-1.0212,-1.0467,-1.0641,-1.0819,-1.1176,-1.1267,-1.1267,-1.1267,-1.1267,-1.1251,-1.1305,-1.1763,-1.2203,-1.2619,-1.2705,-1.2705,-1.2705,-1.2705,-1.2705,-1.2705,-1.2705,-1.2705,-1.2705,-1.2705,-1.2705,-1.2705,-1.2705,-1.2705,-1.2705,-1.2705,-1.2875,-1.313,-1.3124,-1.3137,-1.3099,-1.2893,-1.2631,-1.2203,-1.1973,-1.1852,-1.1702,-1.1527,-1.1496,-1.1558,-1.1558,-1.1626,-1.1632,-1.1706,-1.1706,-1.1706,-1.1706,-1.1781,-1.1855,-1.1929,-1.1929,-1.2003,-1.2083,-1.2003,-1.187,-1.1585,-1.1281,-1.1135,-1.0866,-1.0876,-1.087,-1.0807,-1.0807,-1.0688,-1.0688,-1.0688,-1.0751,-1.0688,-1.0618,-0.5737,-0.5839,-0.5636,-0.5536,-0.5634,-0.5636,-0.5937,-0.6337,-0.6537,-0.6739,-0.7241,-0.7444,-0.7646,-0.7743,-0.7939,-0.8137,-0.8432,-0.8535,-0.8733,-0.9133,-0.943,-0.9529,-0.9628,-1.0019,-1.0408,-1.0708,-1.0998,-1.1198,-1.1194,-1.1194,-1.1194,-1.1194,-1.1194,-1.1194,-1.1194,-1.1194,-1.1099,-1.0819,-1.0688,-1.0388,-1.0102,-0.9976,-1.0125,-1.0294,-1.0554,-1.0819,-1.1003,-1.1181,-1.1267,-1.1267,-1.1267,-1.1332,-1.1397,-1.1763,-1.2203,-1.2619,-1.2705,-1.2705,-1.2705,-1.2705,-1.2705,-1.2705,-1.2705,-1.2705,-1.2705,-1.2705,-1.2705,-1.2705,-1.2705,-1.2705,-1.2705,-1.2705,-1.2705,-1.2705,-1.279,-1.279,-1.2681,-1.2487,-1.2413,-1.221,-1.1878,-1.1552,-1.1522,-1.1368,-1.1334,-1.1335,-1.1409,-1.1484,-1.1552,-1.1626,-1.1706,-1.1706,-1.1706,-1.1855,-1.1929,-1.2003,-1.2077,-1.2372,-1.2378,-1.2305,-1.2078,-1.1787,-1.1368,-1.1216,-1.1152,-1.1171,-1.1122,-1.1059,-1.1122,-1.1122,-1.1122,-1.1129,-1.1129,-1.1003,-1.0996,-0.5636,-0.5636,-0.5636,-0.5737,-0.5939,-0.6137,-0.6339,-0.6742,-0.7141,-0.7341,-0.7543,-0.7739,-0.7842,-0.7942,-0.8137,-0.8333,-0.8531,-0.8832,-0.9038,-0.9232,-0.9529,-0.9628,-0.9624,-0.9715,-1.0109,-1.0507,-1.0801,-1.0998,-1.1194,-1.1194,-1.1194,-1.1194,-1.1194,-1.1194,-1.1194,-1.1189,-1.1085,-1.0896,-1.0679,-1.0471,-1.0263,-1.006,-1.0033,-1.0111,-1.0463,-1.0824,-1.1008,-1.1176,-1.1267,-1.1267,-1.1267,-1.1251,-1.1322,-1.1768,-1.2215,-1.2637,-1.2711,-1.2705,-1.2705,-1.2705,-1.2705,-1.2705,-1.2705,-1.2705,-1.2705,-1.2705,-1.2705,-1.2705,-1.2705,-1.2705,-1.2705,-1.2705,-1.2705,-1.2705,-1.2705,-1.2705,-1.2693,-1.265,-1.2536,-1.2337,-1.2174,-1.1932,-1.1661,-1.1467,-1.1335,-1.1259,-1.1267,-1.1335,-1.1484,-1.1552,-1.1632,-1.1706,-1.1781,-1.1929,-1.2077,-1.215,-1.2305,-1.2673,-1.2746,-1.2746,-1.2508,-1.2232,-1.182,-1.1452,-1.1496,-1.1495,-1.1416,-1.1373,-1.1373,-1.1498,-1.1498,-1.156,-1.1498,-1.1435,-1.1435,-0.5837,-0.5739,-0.5837,-0.6137,-0.6342,-0.6539,-0.6739,-0.7144,-0.7447,-0.7643,-0.7743,-0.7942,-0.8038,-0.8237,-0.8333,-0.8531,-0.8733,-0.9034,-0.9236,-0.9434,-0.9529,-0.9624,-0.9624,-0.9719,-1.001,-1.0408,-1.0605,-1.09,-1.1194,-1.1194,-1.1194,-1.1194,-1.1194,-1.1194,-1.1189,-1.1099,-1.0967,-1.0754,-1.0551,-1.0443,-1.0233,-1.0109,-1.0052,-1.0115,-1.0467,-1.0824,-1.1089,-1.1262,-1.1267,-1.1267,-1.1262,-1.1257,-1.1327,-1.1768,-1.2215,-1.2643,-1.2717,-1.2705,-1.2705,-1.2705,-1.2705,-1.2705,-1.2705,-1.2705,-1.2705,-1.2705,-1.2705,-1.2705,-1.2705,-1.2705,-1.2705,-1.2705,-1.2705,-1.2705,-1.2705,-1.2705,-1.2705,-1.2699,-1.2632,-1.2499,-1.2367,-1.2222,-1.1872,-1.1763,-1.1557,-1.1468,-1.1403,-1.1446,-1.1558,-1.1558,-1.1558,-1.1781,-1.1855,-1.2077,-1.2224,-1.2378,-1.2599,-1.2893,-1.3185,-1.3193,-1.3028,-1.2756,-1.2488,-1.2107,-1.1984,-1.1855,-1.1788,-1.1784,-1.1872,-1.1934,-1.1934,-1.1988,-1.1934,-1.1934,-1.1926,-0.6237,-0.6042,-0.6239,-0.6539,-0.6742,-0.6842,-0.7045,-0.7444,-0.7646,-0.7743,-0.7942,-0.8038,-0.8137,-0.8432,-0.8531,-0.8737,-0.9137,-0.9236,-0.943,-0.9529,-0.9624,-0.9624,-0.9624,-0.9727,-1.0019,-1.0413,-1.0605,-1.09,-1.1096,-1.1194,-1.1194,-1.1179,-1.117,-1.1156,-1.109,-1.0957,-1.0754,-1.056,-1.04,-1.0206,-1.0124,-1.0047,-1.0038,-1.0038,-1.0467,-1.0911,-1.1176,-1.1267,-1.1267,-1.1267,-1.1267,-1.1257,-1.1332,-1.1774,-1.2215,-1.2564,-1.2723,-1.2705,-1.2705,-1.2705,-1.2705,-1.2705,-1.2705,-1.2705,-1.2705,-1.2705,-1.2705,-1.2705,-1.2705,-1.2705,-1.2705,-1.2705,-1.2705,-1.2705,-1.2705,-1.2705,-1.2705,-1.2705,-1.2705,-1.2693,-1.2487,-1.2379,-1.2192,-1.2074,-1.1791,-1.1655,-1.1583,-1.1589,-1.1632,-1.1706,-1.1855,-1.2009,-1.2083,-1.2224,-1.2452,-1.2606,-1.29,-1.3193,-1.3557,-1.3695,-1.3556,-1.3383,-1.3185,-1.2923,-1.2664,-1.2488,-1.2367,-1.236,-1.2352,-1.2367,-1.2428,-1.249,-1.2482,-1.2428,-1.2421,-0.6042,-0.6042,-0.6044,-0.6239,-0.6539,-0.6939,-0.7238,-0.7341,-0.7739,-0.7939,-0.8038,-0.8233,-0.8333,-0.8432,-0.8832,-0.9137,-0.9236,-0.9434,-0.9525,-0.9624,-0.9624,-0.9624,-0.9624,-0.9727,-0.9924,-1.0314,-1.0413,-1.0703,-1.1096,-1.1194,-1.1189,-1.117,-1.1047,-1.0957,-1.0929,-1.0749,-1.0542,-1.0367,-1.0286,-1.0154,-1.0081,-1.0038,-1.0038,-1.0038,-1.0467,-1.0906,-1.1176,-1.1267,-1.1267,-1.1267,-1.1267,-1.1348,-1.1429,-1.178,-1.2227,-1.2588,-1.2729,-1.2705,-1.2705,-1.2705,-1.2705,-1.2705,-1.2705,-1.2705,-1.2705,-1.2705,-1.2705,-1.2705,-1.2705,-1.2705,-1.2705,-1.2705,-1.2705,-1.2705,-1.2705,-1.2705,-1.2705,-1.2705,-1.2705,-1.2687,-1.2644,-1.2548,-1.2343,-1.2158,-1.1945,-1.1797,-1.1739,-1.1683,-1.1787,-1.1929,-1.2083,-1.2231,-1.2305,-1.2378,-1.2673,-1.2973,-1.3266,-1.3557,-1.3848,-1.4145,-1.4076,-1.3953,-1.3754,-1.3559,-1.3259,-1.3115,-1.2941,-1.2905,-1.2878,-1.2907,-1.2858,-1.292,-1.2981,-1.292,-1.2981,-0.5741,-0.5641,-0.5942,-0.6139,-0.6437,-0.6939,-0.7238,-0.7441,-0.7842,-0.8038,-0.8038,-0.8333,-0.8432,-0.8627,-0.9034,-0.9232,-0.9434,-0.9529,-0.9624,-0.9624,-0.9624,-0.9624,-0.9624,-0.9624,-0.9924,-1.0314,-1.0413,-1.0708,-1.1096,-1.1179,-1.1142,-1.1057,-1.0938,-1.0839,-1.0726,-1.0542,-1.04,-1.0277,-1.0168,-1.006,-1.0052,-1.0038,-1.012,-1.0299,-1.0554,-1.0906,-1.1267,-1.1267,-1.1267,-1.1354,-1.1435,-1.1435,-1.1435,-1.1699,-1.2232,-1.2599,-1.2655,-1.2705,-1.2705,-1.2705,-1.2705,-1.2705,-1.2705,-1.2705,-1.2705,-1.2705,-1.2705,-1.2705,-1.2705,-1.2705,-1.2705,-1.2705,-1.2705,-1.2705,-1.2705,-1.2705,-1.2705,-1.2705,-1.2705,-1.2705,-1.2693,-1.2632,-1.2463,-1.2392,-1.224,-1.2242,-1.228,-1.2218,-1.2009,-1.2157,-1.2224,-1.2378,-1.2452,-1.2606,-1.2973,-1.3266,-1.3637,-1.392,-1.4201,-1.4433,-1.4553,-1.449,-1.4401,-1.4159,-1.3929,-1.3672,-1.3549,-1.3438,-1.3375,-1.3266,-1.3285,-1.3346,-1.3467,-1.3467,-1.3528,-0.5438,-0.5238,-0.5724,-0.6114,-0.641,-0.6904,-0.7301,-0.7505,-0.7836,-0.8038,-0.8038,-0.8333,-0.8528,-0.8825,-0.9034,-0.9331,-0.9529,-0.9628,-0.9624,-0.9624,-0.9624,-0.9624,-0.962,-0.9587,-0.9853,-1.0275,-1.04,-1.0694,-1.1044,-1.1132,-1.1014,-1.0872,-1.0797,-1.0674,-1.0508,-1.0334,-1.0211,-1.0168,-1.006,-1.0067,-1.0038,-1.0038,-1.0207,-1.0554,-1.0646,-1.0906,-1.1262,-1.1435,-1.144,-1.144,-1.1618,-1.1613,-1.1613,-1.1785,-1.2227,-1.2691,-1.2735,-1.2705,-1.2705,-1.2705,-1.2705,-1.2705,-1.2705,-1.2705,-1.2705,-1.2705,-1.2705,-1.2705,-1.2705,-1.2705,-1.2705,-1.2705,-1.2705,-1.279,-1.279,-1.279,-1.279,-1.279,-1.2875,-1.279,-1.2875,-1.2838,-1.2837,-1.2831,-1.2682,-1.2676,-1.2784,-1.2735,-1.2506,-1.2378,-1.2526,-1.2599,-1.2673,-1.29,-1.3273,-1.355,-1.392,-1.4209,-1.4489,-1.4713,-1.4935,-1.4925,-1.4866,-1.4874,-1.4662,-1.4397,-1.4137,-1.4052,-1.3922,-1.3735,-1.3649,-1.3709,-1.383,-1.401,-1.395,-0.524,-0.5233,-0.5452,-0.5709,-0.6095,-0.6775,-0.7164,-0.7287,-0.7773,-0.8035,-0.8028,-0.8329,-0.8506,-0.8817,-0.9031,-0.9331,-0.9521,-0.9624,-0.962,-0.9608,-0.9604,-0.96,-0.9547,-0.9453,-0.9694,-1.0132,-1.029,-1.0586,-1.0875,-1.0934,-1.083,-1.0641,-1.049,-1.0376,-1.0291,-1.013,-1.0124,-1.0133,-1.0067,-1.0038,-1.0038,-1.0038,-1.0207,-1.0641,-1.0733,-1.0992,-1.1435,-1.1613,-1.1699,-1.1871,-1.1957,-1.2049,-1.2135,-1.2295,-1.2466,-1.2649,-1.2723,-1.2705,-1.2705,-1.2705,-1.2705,-1.2705,-1.2705,-1.2705,-1.2705,-1.2705,-1.279,-1.279,-1.279,-1.2705,-1.2705,-1.279,-1.2875,-1.2966,-1.3052,-1.3052,-1.3222,-1.3222,-1.3222,-1.3222,-1.3137,-1.313,-1.314,-1.3182,-1.3091,-1.2981,-1.3019,-1.2906,-1.2674,-1.268,-1.282,-1.2893,-1.2973,-1.3273,-1.3645,-1.3848,-1.4129,-1.4425,-1.4705,-1.4919,-1.5141,-1.5355,-1.5334,-1.5286,-1.5282,-1.5087,-1.4878,-1.4719,-1.4469,-1.4268,-1.4153,-1.4028,-1.4079,-1.413,-1.407,-0.4942,-0.499,-0.5234,-0.5502,-0.5691,-0.655,-0.6936,-0.7037,-0.7488,-0.7814,-0.7911,-0.8101,-0.834,-0.8687,-0.8999,-0.9237,-0.9505,-0.9624,-0.9575,-0.9518,-0.9486,-0.9425,-0.9376,-0.9263,-0.9415,-0.9613,-0.9962,-1.0364,-1.074,-1.0731,-1.0612,-1.0447,-1.031,-1.0225,-1.0116,-1.0017,-1.0043,-1.0038,-1.0038,-1.0038,-1.0038,-1.0038,-1.0294,-1.0554,-1.0733,-1.1084,-1.1521,-1.1699,-1.1785,-1.1957,-1.2209,-1.2381,-1.2552,-1.2723,-1.2887,-1.2729,-1.2717,-1.2705,-1.2705,-1.279,-1.2966,-1.2973,-1.3052,-1.3143,-1.3143,-1.3143,-1.3052,-1.3052,-1.3045,-1.3052,-1.3052,-1.3052,-1.3137,-1.3222,-1.3222,-1.3398,-1.3483,-1.3568,-1.3646,-1.3646,-1.3476,-1.347,-1.3464,-1.3464,-1.347,-1.3367,-1.3328,-1.3134,-1.2977,-1.3046,-1.3193,-1.3339,-1.3484,-1.3702,-1.4,-1.4209,-1.4418,-1.4705,-1.4927,-1.5141,-1.5426,-1.5568,-1.5709,-1.579,-1.5705,-1.5687,-1.544,-1.5177,-1.5005,-1.4729,-1.4416,-1.4243,-1.4276,-1.4258,-1.4198,-0.4733,-0.4761,-0.5117,-0.5296,-0.5487,-0.6332,-0.6798,-0.6901,-0.7406,-0.7617,-0.7597,-0.7799,-0.8146,-0.8512,-0.8841,-0.9188,-0.9522,-0.9506,-0.9417,-0.9332,-0.9303,-0.9226,-0.9137,-0.9051,-0.9124,-0.9292,-0.9522,-1.0021,-1.0426,-1.0518,-1.04,-1.0258,-1.0206,-1.0135,-1.0071,-1.0052,-1.0038,-1.0038,-1.0038,-1.0038,-1.0038,-1.0125,-1.0299,-1.0733,-1.0733,-1.1089,-1.1613,-1.1785,-1.1957,-1.2209,-1.2546,-1.279,-1.2875,-1.3222,-1.3234,-1.2985,-1.2887,-1.2875,-1.2875,-1.3052,-1.3143,-1.3228,-1.3313,-1.3404,-1.3489,-1.3404,-1.3398,-1.3398,-1.3398,-1.3392,-1.3392,-1.3483,-1.3476,-1.3646,-1.3646,-1.3737,-1.3899,-1.4068,-1.4237,-1.4153,-1.3984,-1.3977,-1.4055,-1.4099,-1.4125,-1.3978,-1.3923,-1.376,-1.3621,-1.3455,-1.3557,-1.3855,-1.4072,-1.4209,-1.4425,-1.4561,-1.4776,-1.4999,-1.5213,-1.5434,-1.5638,-1.585,-1.5991,-1.6123,-1.6175,-1.606,-1.5886,-1.5632,-1.5386,-1.5061,-1.4644,-1.4399,-1.4405,-1.4387,-1.4387,-0.4769,-0.4937,-0.5039,-0.5281,-0.556,-0.6385,-0.6661,-0.6768,-0.734,-0.7597,-0.7556,-0.7677,-0.7959,-0.837,-0.8855,-0.9149,-0.9177,-0.9206,-0.9185,-0.9133,-0.9125,-0.91,-0.9051,-0.8922,-0.8952,-0.9096,-0.925,-0.9616,-1.0078,-1.0305,-1.0206,-1.0055,-1.0027,-0.9975,-1.0047,-1.0038,-1.0038,-1.0038,-1.0038,-1.0125,-1.0299,-1.0299,-1.0564,-1.0829,-1.1003,-1.1176,-1.1699,-1.1871,-1.2123,-1.2631,-1.2881,-1.3137,-1.3307,-1.3313,-1.3483,-1.3483,-1.3392,-1.3307,-1.3307,-1.3392,-1.3476,-1.3476,-1.3483,-1.3398,-1.3568,-1.3568,-1.3561,-1.3398,-1.3483,-1.3561,-1.373,-1.373,-1.3899,-1.4062,-1.4237,-1.4405,-1.4566,-1.4657,-1.4824,-1.4999,-1.4824,-1.4741,-1.4727,-1.4866,-1.4871,-1.4698,-1.4525,-1.4337,-1.4238,-1.4109,-1.4065,-1.4353,-1.4425,-1.4633,-1.4784,-1.4919,-1.5062,-1.5284,-1.5505,-1.5647,-1.585,-1.6061,-1.6263,-1.6333,-1.6473,-1.6464,-1.6309,-1.6093,-1.577,-1.536,-1.4967,-1.4684,-1.4465,-1.4515,-1.4515,-0.4693,-0.4965,-0.5008,-0.517,-0.5536,-0.6251,-0.652,-0.6622,-0.7128,-0.7339,-0.7339,-0.7528,-0.7843,-0.8387,-0.8946,-0.9096,-0.9096,-0.908,-0.9027,-0.8954,-0.8938,-0.8893,-0.8792,-0.8723,-0.8856,-0.9013,-0.9222,-0.9578,-0.9902,-1.0088,-1.0022,-1.0062,-1.0038,-1.0047,-1.0033,-1.0038,-1.0038,-1.0207,-1.0294,-1.0467,-1.0554,-1.0554,-1.0646,-1.1008,-1.1084,-1.1429,-1.178,-1.2118,-1.246,-1.2881,-1.3143,-1.3398,-1.373,-1.3899,-1.4062,-1.4237,-1.4237,-1.4068,-1.3899,-1.3893,-1.3977,-1.3977,-1.4068,-1.4153,-1.4153,-1.4153,-1.4146,-1.4153,-1.4153,-1.4153,-1.423,-1.423,-1.4489,-1.4657,-1.4824,-1.4992,-1.5151,-1.5318,-1.5492,-1.5582,-1.5748,-1.5575,-1.5484,-1.547,-1.5457,-1.5264,-1.505,-1.482,-1.4793,-1.4775,-1.4768,-1.4848,-1.4919,-1.4991,-1.5062,-1.5204,-1.5284,-1.5497,-1.578,-1.5921,-1.6061,-1.6193,-1.6403,-1.6542,-1.6691,-1.6673,-1.6706,-1.6437,-1.5944,-1.5615,-1.5239,-1.4909,-1.4598,-1.4515,-1.4506,-0.4569,-0.5018,-0.5013,-0.5191,-0.5636,-0.6166,-0.6432,-0.652,-0.6972,-0.7146,-0.7231,-0.7429,-0.7938,-0.8395,-0.879,-0.8926,-0.895,-0.8966,-0.8889,-0.8796,-0.8747,-0.869,-0.8637,-0.8668,-0.8748,-0.8982,-0.9178,-0.9533,-0.9873,-1.0047,-1.0057,-1.0038,-1.0033,-1.012,-1.012,-1.0207,-1.0294,-1.0381,-1.0554,-1.0819,-1.0997,-1.0906,-1.1079,-1.1257,-1.1429,-1.1677,-1.2026,-1.2369,-1.2711,-1.3137,-1.3398,-1.3652,-1.4068,-1.4237,-1.4482,-1.4734,-1.4817,-1.4817,-1.465,-1.465,-1.4566,-1.465,-1.4734,-1.4817,-1.4817,-1.4894,-1.4901,-1.4817,-1.481,-1.4894,-1.4985,-1.4985,-1.5159,-1.5249,-1.5333,-1.5582,-1.5741,-1.5816,-1.5982,-1.6154,-1.6245,-1.6409,-1.6319,-1.6229,-1.6106,-1.5875,-1.567,-1.5394,-1.5247,-1.5258,-1.5152,-1.5133,-1.5204,-1.5204,-1.5355,-1.5426,-1.5497,-1.5638,-1.5921,-1.6132,-1.6263,-1.6403,-1.6542,-1.6691,-1.683,-1.683,-1.6811,-1.6464,-1.6184,-1.5735,-1.5313,-1.4955,-1.4689,-1.4579,-1.4565,-0.4656,-0.5282,-0.5099,-0.5366,-0.5994,-0.6254,-0.652,-0.6792,-0.6966,-0.7139,-0.7228,-0.7588,-0.7952,-0.8243,-0.8549,-0.8662,-0.8629,-0.8605,-0.8625,-0.8617,-0.858,-0.8593,-0.8568,-0.8652,-0.8736,-0.899,-0.9257,-0.9607,-0.9951,-1.0212,-1.0125,-1.0038,-1.0207,-1.0294,-1.0381,-1.0554,-1.0549,-1.0636,-1.0727,-1.1257,-1.1527,-1.1521,-1.151,-1.1774,-1.1952,-1.2118,-1.2369,-1.2619,-1.2966,-1.3392,-1.3646,-1.3899,-1.4314,-1.4489,-1.4734,-1.5144,-1.5311,-1.5401,-1.5492,-1.5325,-1.5082,-1.5082,-1.5242,-1.5401,-1.5311,-1.5394,-1.5394,-1.5318,-1.5318,-1.5401,-1.5484,-1.5658,-1.5665,-1.5831,-1.5914,-1.6079,-1.6245,-1.6319,-1.6484,-1.6656,-1.682,-1.6902,-1.6976,-1.6886,-1.673,-1.6516,-1.6124,-1.5834,-1.5463,-1.5408,-1.5342,-1.5284,-1.5426,-1.5426,-1.5497,-1.5638,-1.578,-1.5921,-1.6123,-1.6333,-1.6473,-1.6612,-1.6691,-1.676,-1.6908,-1.6908,-1.6881,-1.6633,-1.6312,-1.5808,-1.5386,-1.5074,-1.4805,-1.4653,-1.4725,-0.5013,-0.5371,-0.5282,-0.5549,-0.6086,-0.6343,-0.652,-0.6792,-0.7054,-0.7228,-0.7404,-0.776,-0.812,-0.8384,-0.848,-0.8572,-0.8572,-0.8572,-0.8572,-0.8572,-0.8572,-0.8572,-0.8656,-0.874,-0.8911,-0.917,-0.9432,-0.9689,-1.0125,-1.0299,-1.0381,-1.0381,-1.0554,-1.0554,-1.0641,-1.0901,-1.089,-1.088,-1.1154,-1.1785,-1.1785,-1.1871,-1.186,-1.2198,-1.2369,-1.254,-1.2881,-1.3137,-1.3483,-1.3737,-1.3984,-1.4314,-1.4734,-1.4824,-1.5068,-1.556,-1.556,-1.5824,-1.6004,-1.5839,-1.5756,-1.5748,-1.5748,-1.5831,-1.5824,-1.5824,-1.5824,-1.5824,-1.5824,-1.5906,-1.5914,-1.5997,-1.5997,-1.6327,-1.6492,-1.6582,-1.6738,-1.6812,-1.6894,-1.7057,-1.7147,-1.7229,-1.7383,-1.7456,-1.7302,-1.7147,-1.6698,-1.628,-1.5911,-1.5576,-1.5589,-1.5513,-1.5576,-1.5655,-1.5655,-1.5788,-1.5991,-1.6132,-1.6263,-1.6473,-1.6612,-1.676,-1.6839,-1.6908,-1.6908,-1.6908,-1.6862,-1.6771,-1.6413,-1.5845,-1.5569,-1.5311,-1.5032,-1.4821,-1.4893,-0.5191,-0.5371,-0.5371,-0.5727,-0.6171,-0.6343,-0.6609,-0.6881,-0.7051,-0.7316,-0.758,-0.7852,-0.8208,-0.848,-0.8572,-0.8572,-0.8572,-0.8572,-0.8572,-0.8572,-0.8572,-0.8572,-0.8656,-0.8828,-0.8999,-0.9345,-0.9607,-0.9951,-1.0294,-1.0467,-1.0641,-1.0814,-1.0992,-1.0992,-1.0982,-1.1241,-1.1322,-1.1305,-1.1666,-1.2301,-1.2386,-1.2381,-1.2466,-1.2711,-1.2881,-1.3137,-1.3392,-1.373,-1.3984,-1.4237,-1.4405,-1.4734,-1.4992,-1.5249,-1.5492,-1.5733,-1.5899,-1.5989,-1.6162,-1.6252,-1.6245,-1.6245,-1.6252,-1.6252,-1.6252,-1.6327,-1.6327,-1.6409,-1.6409,-1.6417,-1.6409,-1.6574,-1.6656,-1.6902,-1.6902,-1.6984,-1.7066,-1.7221,-1.7302,-1.7383,-1.7465,-1.7473,-1.7635,-1.7691,-1.759,-1.7388,-1.7195,-1.6691,-1.6176,-1.5961,-1.5905,-1.5811,-1.5735,-1.5805,-1.5805,-1.5938,-1.6061,-1.6202,-1.6333,-1.6542,-1.6682,-1.683,-1.6908,-1.6908,-1.6908,-1.6908,-1.6872,-1.6817,-1.6386,-1.5835,-1.5523,-1.5223,-1.5209,-1.502,-1.5186,-0.5191,-0.5371,-0.5371,-0.5813,-0.6343,-0.6428,-0.6694,-0.7054,-0.7139,-0.7312,-0.7669,-0.8021,-0.8296,-0.8568,-0.8572,-0.8572,-0.8572,-0.8572,-0.8572,-0.8572,-0.8572,-0.8572,-0.8656,-0.8828,-0.9082,-0.9349,-0.9781,-1.0125,-1.0381,-1.0733,-1.1079,-1.1332,-1.151,-1.1602,-1.1413,-1.1774,-1.1935,-1.1997,-1.2266,-1.2717,-1.3083,-1.307,-1.3143,-1.3313,-1.3476,-1.373,-1.399,-1.4237,-1.4482,-1.465,-1.4824,-1.5068,-1.5401,-1.5484,-1.5733,-1.6229,-1.6312,-1.6394,-1.6648,-1.6476,-1.6484,-1.6574,-1.6574,-1.6574,-1.6656,-1.6648,-1.673,-1.6812,-1.6886,-1.7057,-1.7229,-1.7318,-1.7318,-1.731,-1.731,-1.7392,-1.7473,-1.7554,-1.7627,-1.7708,-1.77,-1.7781,-1.787,-1.7908,-1.7746,-1.7618,-1.7535,-1.7141,-1.6553,-1.6268,-1.6122,-1.6002,-1.5891,-1.5867,-1.5938,-1.607,-1.6202,-1.6263,-1.6473,-1.6682,-1.676,-1.6839,-1.6908,-1.6908,-1.6978,-1.6968,-1.6968,-1.689,-1.6483,-1.6113,-1.542,-1.5059,-1.5145,-1.5323,-1.5488,-0.5552,-0.5644,-0.5644,-0.5905,-0.634,-0.6428,-0.6697,-0.7051,-0.7319,-0.7496,-0.7845,-0.8109,-0.8384,-0.8568,-0.8572,-0.8572,-0.8572,-0.8572,-0.8572,-0.8572,-0.8572,-0.8572,-0.8744,-0.8999,-0.9257,-0.9607,-0.9951,-1.0391,-1.0829,-1.1084,-1.1343,-1.1602,-1.2026,-1.2192,-1.2192,-1.2277,-1.2345,-1.2225,-1.2681,-1.3326,-1.3789,-1.3678,-1.3652,-1.3828,-1.4068,-1.4321,-1.4496,-1.4741,-1.4992,-1.5151,-1.5235,-1.5484,-1.5733,-1.5824,-1.5989,-1.6312,-1.6394,-1.6476,-1.6648,-1.6648,-1.6656,-1.6656,-1.673,-1.673,-1.673,-1.673,-1.6812,-1.7057,-1.7131,-1.7229,-1.731,-1.74,-1.7392,-1.7546,-1.7627,-1.7708,-1.7789,-1.7789,-1.787,-1.787,-1.7951,-1.7951,-1.8031,-1.8121,-1.8063,-1.7871,-1.783,-1.7596,-1.709,-1.6567,-1.6259,-1.6211,-1.6091,-1.6016,-1.607,-1.6202,-1.6333,-1.6473,-1.6612,-1.683,-1.6908,-1.6978,-1.6978,-1.6978,-1.7038,-1.7107,-1.7088,-1.7045,-1.6769,-1.6313,-1.5894,-1.5436,-1.54,-1.5614,-1.5846,-0.5733,-0.5735,-0.5822,-0.6083,-0.634,-0.6428,-0.6694,-0.7234,-0.7588,-0.7845,-0.7929,-0.8201,-0.8476,-0.8568,-0.8572,-0.8572,-0.8572,-0.8572,-0.8572,-0.8572,-0.8572,-0.8656,-0.8828,-0.9082,-0.9432,-0.9777,-1.0212,-1.0646,-1.1084,-1.1338,-1.1682,-1.2112,-1.2625,-1.2881,-1.2881,-1.2869,-1.2857,-1.2753,-1.3203,-1.375,-1.4017,-1.4179,-1.4068,-1.4321,-1.4566,-1.4817,-1.4992,-1.5242,-1.5499,-1.5658,-1.5824,-1.5989,-1.6162,-1.6245,-1.6319,-1.6484,-1.6558,-1.6566,-1.6648,-1.673,-1.6656,-1.673,-1.673,-1.673,-1.673,-1.673,-1.6902,-1.7066,-1.7147,-1.7392,-1.7554,-1.7554,-1.7635,-1.7781,-1.7789,-1.787,-1.7951,-1.7951,-1.7959,-1.8031,-1.8121,-1.8121,-1.8201,-1.829,-1.8327,-1.816,-1.8073,-1.783,-1.757,-1.7046,-1.6612,-1.6439,-1.6303,-1.6245,-1.6211,-1.6403,-1.6464,-1.6603,-1.6751,-1.6978,-1.7047,-1.7107,-1.7116,-1.7116,-1.7254,-1.7304,-1.7335,-1.7205,-1.7187,-1.709,-1.6819,-1.6346,-1.586,-1.5951,-1.6202,-0.5733,-0.5733,-0.5994,-0.6257,-0.6432,-0.6517,-0.6877,-0.7507,-0.794,-0.8109,-0.8017,-0.8388,-0.8568,-0.8572,-0.8572,-0.8572,-0.8572,-0.8572,-0.8572,-0.8656,-0.8656,-0.874,-0.8911,-0.9257,-0.9602,-1.0038,-1.0472,-1.0987,-1.1332,-1.1682,-1.2112,-1.2711,-1.3137,-1.3392,-1.3476,-1.3555,-1.3457,-1.3444,-1.3626,-1.4082,-1.4426,-1.4496,-1.4573,-1.4734,-1.5068,-1.5318,-1.5484,-1.5748,-1.6004,-1.6079,-1.6087,-1.6245,-1.6319,-1.6394,-1.6558,-1.6648,-1.6648,-1.6648,-1.673,-1.673,-1.673,-1.673,-1.6738,-1.673,-1.673,-1.673,-1.6902,-1.7147,-1.731,-1.7635,-1.787,-1.787,-1.7951,-1.7951,-1.7951,-1.7951,-1.7951,-1.8031,-1.804,-1.8121,-1.8282,-1.8371,-1.854,-1.854,-1.8531,-1.8505,-1.8337,-1.8241,-1.7952,-1.7604,-1.7116,-1.6741,-1.6578,-1.6387,-1.6438,-1.6612,-1.6742,-1.6811,-1.7028,-1.7245,-1.7314,-1.7314,-1.7323,-1.7323,-1.7461,-1.7588,-1.7696,-1.7765,-1.7764,-1.7625,-1.7435,-1.6992,-1.6384,-1.6368,-1.6534,-0.5733,-0.5733,-0.5994,-0.6257,-0.652,-0.7143,-0.7588,-0.7856,-0.8113,-0.8204,-0.8388,-0.8568,-0.8572,-0.8572,-0.8572,-0.8572,-0.8572,-0.8572,-0.8572,-0.8656,-0.874,-0.8828,-0.9087,-0.9519,-0.9859,-1.0294,-1.0814,-1.1246,-1.1682,-1.2032,-1.2711,-1.3392,-1.3561,-1.3808,-1.4062,-1.4146,-1.4048,-1.3957,-1.4132,-1.4405,-1.4755,-1.4831,-1.4992,-1.5235,-1.5484,-1.565,-1.5906,-1.5997,-1.6162,-1.6327,-1.6319,-1.6394,-1.6566,-1.6648,-1.6648,-1.6648,-1.6648,-1.673,-1.673,-1.673,-1.6812,-1.6894,-1.6976,-1.6894,-1.6812,-1.682,-1.6984,-1.7229,-1.7473,-1.7708,-1.7951,-1.804,-1.8121,-1.8121,-1.8121,-1.8121,-1.8121,-1.8121,-1.8201,-1.8362,-1.8523,-1.8612,-1.878,-1.878,-1.8692,-1.87,-1.8674,-1.8506,-1.8338,-1.7985,-1.7614,-1.7217,-1.7008,-1.6741,-1.6745,-1.6821,-1.6959,-1.7097,-1.7314,-1.7461,-1.7461,-1.7529,-1.7461,-1.7598,-1.7735,-1.8008,-1.8202,-1.8267,-1.8265,-1.8116,-1.7862,-1.7441,-1.7036,-1.6974,-1.6906,-0.5659,-0.5841,-0.6062,-0.6435,-0.6877,-0.7588,-0.794,-0.8028,-0.8292,-0.8476,-0.8572,-0.8572,-0.8572,-0.8572,-0.8572,-0.8568,-0.8564,-0.874,-0.874,-0.8828,-0.8999,-0.9087,-0.9345,-0.9689,-1.0125,-1.0554,-1.0987,-1.1424,-1.1946,-1.2631,-1.3307,-1.3646,-1.3815,-1.4146,-1.4314,-1.4391,-1.4461,-1.4448,-1.4538,-1.4824,-1.509,-1.5257,-1.5409,-1.5658,-1.5824,-1.6072,-1.6162,-1.6245,-1.6402,-1.6484,-1.6558,-1.6566,-1.673,-1.6812,-1.6894,-1.6894,-1.6976,-1.6984,-1.7066,-1.6984,-1.7066,-1.7139,-1.7221,-1.7147,-1.7066,-1.7066,-1.7229,-1.7465,-1.7546,-1.7708,-1.7951,-1.8201,-1.8201,-1.8282,-1.8282,-1.8282,-1.829,-1.829,-1.8442,-1.8603,-1.8763,-1.8851,-1.8931,-1.8922,-1.8922,-1.9002,-1.9002,-1.8975,-1.8734,-1.8395,-1.8002,-1.7608,-1.7388,-1.7188,-1.7128,-1.7056,-1.7166,-1.7304,-1.7588,-1.7666,-1.7666,-1.7872,-1.8008,-1.8076,-1.8076,-1.8347,-1.8617,-1.8674,-1.8696,-1.8568,-1.8543,-1.8394,-1.7924,-1.7423,-1.744,-0.562,-0.5883,-0.6262,-0.6747,-0.7482,-0.7735,-0.8006,-0.8204,-0.8476,-0.8572,-0.8572,-0.8572,-0.8572,-0.8572,-0.8572,-0.8656,-0.8652,-0.8823,-0.8911,-0.8999,-0.9174,-0.9345,-0.9602,-0.9951,-1.0381,-1.0809,-1.1246,-1.1768,-1.2289,-1.2973,-1.3476,-1.3737,-1.4153,-1.4398,-1.4566,-1.4727,-1.4796,-1.4844,-1.4956,-1.5249,-1.5695,-1.5771,-1.565,-1.6079,-1.6237,-1.6394,-1.6476,-1.6566,-1.673,-1.673,-1.673,-1.673,-1.6894,-1.6976,-1.7057,-1.7139,-1.7229,-1.7229,-1.731,-1.731,-1.7392,-1.7392,-1.7473,-1.7554,-1.7554,-1.731,-1.7392,-1.7546,-1.7627,-1.7789,-1.8031,-1.8201,-1.8362,-1.8442,-1.8451,-1.8451,-1.854,-1.8531,-1.8683,-1.8843,-1.8993,-1.9082,-1.924,-1.924,-1.9311,-1.9311,-1.939,-1.9311,-1.9219,-1.8921,-1.8534,-1.8133,-1.7843,-1.7631,-1.7483,-1.7436,-1.7401,-1.7588,-1.7872,-1.8076,-1.8144,-1.8347,-1.8549,-1.8549,-1.8607,-1.8674,-1.8875,-1.9065,-1.9243,-1.9293,-1.9287,-1.9399,-1.8988,-1.8335,-1.8189,-0.5583,-0.5754,-0.612,-0.6701,-0.7318,-0.7576,-0.7906,-0.8201,-0.8476,-0.8552,-0.8568,-0.8564,-0.8568,-0.8656,-0.8656,-0.8652,-0.8823,-0.8911,-0.8999,-0.9257,-0.9432,-0.9689,-0.9951,-1.0386,-1.0722,-1.1154,-1.1677,-1.2198,-1.2887,-1.3392,-1.3815,-1.4153,-1.4482,-1.4566,-1.4908,-1.5068,-1.5213,-1.526,-1.5545,-1.5748,-1.6102,-1.6102,-1.6079,-1.6237,-1.6394,-1.6566,-1.6648,-1.673,-1.673,-1.673,-1.6894,-1.7057,-1.7221,-1.7302,-1.731,-1.731,-1.7481,-1.7473,-1.7554,-1.7554,-1.7644,-1.7797,-1.787,-1.8121,-1.804,-1.7635,-1.7473,-1.7627,-1.7781,-1.7951,-1.8112,-1.8282,-1.8442,-1.8531,-1.87,-1.87,-1.8789,-1.8851,-1.9002,-1.9073,-1.9143,-1.9311,-1.9469,-1.9548,-1.9627,-1.9706,-1.9706,-1.9784,-1.9784,-1.9565,-1.9378,-1.8919,-1.8369,-1.8136,-1.792,-1.77,-1.7705,-1.7862,-1.8134,-1.8337,-1.8549,-1.8818,-1.9019,-1.9085,-1.9152,-1.9208,-1.9341,-1.9539,-1.9704,-1.9792,-1.991,-1.9965,-2.0053,-1.9565,-1.9351,-0.5539,-0.5876,-0.6423,-0.6916,-0.7323,-0.7582,-0.7801,-0.813,-0.8231,-0.8321,-0.8361,-0.8479,-0.8648,-0.8736,-0.874,-0.8915,-0.9087,-0.917,-0.9432,-0.9602,-0.9864,-1.0033,-1.0381,-1.0727,-1.089,-1.1322,-1.202,-1.2711,-1.3476,-1.3822,-1.4075,-1.4405,-1.4566,-1.4908,-1.5249,-1.5401,-1.5636,-1.5786,-1.6154,-1.6409,-1.65,-1.6417,-1.6327,-1.6476,-1.664,-1.673,-1.6894,-1.6976,-1.6976,-1.7066,-1.7139,-1.7221,-1.7383,-1.7465,-1.7546,-1.7716,-1.7797,-1.7887,-1.7959,-1.7959,-1.8049,-1.8282,-1.8282,-1.8531,-1.8531,-1.8201,-1.821,-1.8362,-1.8282,-1.8362,-1.8523,-1.8683,-1.8834,-1.8913,-1.9082,-1.925,-1.9329,-1.9399,-1.9478,-1.9469,-1.9548,-1.9627,-1.9706,-1.9706,-1.9784,-1.9863,-1.9942,-2.0108,-2.0108,-2.0255,-2.0004,-1.9765,-1.9239,-1.8661,-1.8289,-1.8074,-1.7959,-1.8134,-1.8472,-1.8808,-1.9075,-1.9274,-1.9473,-1.955,-1.9671,-1.9802,-1.9933,-2.0064,-2.0205,-2.0302,-2.0415,-2.0488,-2.0595,-2.0703,-2.0733,-0.5485,-0.5984,-0.6661,-0.7062,-0.7334,-0.7577,-0.7761,-0.8024,-0.802,-0.8028,-0.816,-0.8443,-0.8657,-0.8786,-0.8999,-0.917,-0.9345,-0.9515,-0.9777,-1.0125,-1.0294,-1.0554,-1.0814,-1.1154,-1.1316,-1.1746,-1.2443,-1.3045,-1.3737,-1.399,-1.4243,-1.4573,-1.4824,-1.5166,-1.5401,-1.5726,-1.5974,-1.6304,-1.664,-1.6902,-1.6902,-1.682,-1.673,-1.6812,-1.6968,-1.7131,-1.7221,-1.7302,-1.7392,-1.7473,-1.7473,-1.7546,-1.7708,-1.787,-1.7951,-1.8121,-1.8282,-1.8442,-1.8603,-1.8683,-1.8772,-1.8851,-1.878,-1.8851,-1.8851,-1.8931,-1.8931,-1.8931,-1.8851,-1.8851,-1.9002,-1.9082,-1.9231,-1.9301,-1.9469,-1.9715,-1.9794,-1.9951,-1.9951,-1.9942,-2.002,-2.002,-2.002,-2.002,-2.0098,-2.0098,-2.0177,-2.0342,-2.0508,-2.0654,-2.072,-2.0473,-2.0053,-1.9502,-1.8909,-1.8596,-1.8448,-1.8539,-1.8875,-1.9274,-1.9605,-1.9878,-2.0009,-2.0009,-2.014,-2.0259,-2.0388,-2.0518,-2.0593,-2.0722,-2.0899,-2.1037,-2.1276,-2.1504,-2.1944,-0.5349,-0.5827,-0.6404,-0.6882,-0.7148,-0.74,-0.7635,-0.8,-0.8,-0.8098,-0.818,-0.8317,-0.8447,-0.8687,-0.9113,-0.9401,-0.9684,-0.9894,-1.0197,-1.0549,-1.0804,-1.0982,-1.1241,-1.1585,-1.1923,-1.2443,-1.3045,-1.3561,-1.4075,-1.4237,-1.4573,-1.4915,-1.4999,-1.5333,-1.5658,-1.5982,-1.6394,-1.664,-1.7057,-1.7392,-1.7408,-1.7327,-1.7229,-1.731,-1.731,-1.7302,-1.7383,-1.7392,-1.7392,-1.7473,-1.7716,-1.7951,-1.8112,-1.8362,-1.8442,-1.8603,-1.8772,-1.8922,-1.9002,-1.9161,-1.9161,-1.932,-1.932,-1.9399,-1.9478,-1.9557,-1.9557,-1.9548,-1.9469,-1.9311,-1.939,-1.9478,-1.9557,-1.9627,-1.9784,-2.002,-2.0186,-2.0264,-2.0342,-2.0411,-2.0479,-2.0557,-2.0722,-2.0722,-2.0799,-2.0799,-2.0876,-2.1041,-2.1041,-2.1195,-2.1339,-2.1106,-2.0917,-2.0373,-1.9827,-1.9374,-1.9178,-1.9204,-1.9274,-1.9671,-2.0064,-2.0399,-2.054,-2.0518,-2.0593,-2.0658,-2.0786,-2.0914,-2.1031,-2.1221,-2.1434,-2.1663,-2.1874,-2.2111,-2.242]},{"header":{"parameterUnit":"m.s-1","parameterCategory":1,"la1":31.0,"la2":29.5877,"lo1":-88.7671,"lo2":-86.6584,"dy":0.0162,"dx":0.0185,"nx":115,"ny":88,"refTime":"2023-08-11T06:00:00:Z","depth":0,"parameterNumber":3,"parameterNumberName":"V-component_of_WINDS"},"data":[0.0,0.0,0.0,0.0,0.0,0.0,0.0,0.0,0.0,0.0,0.0,0.0,0.0,0.0,0.0,0.0,0.0,0.0,0.0,0.0,0.0,0.0,0.0,0.0,0.0,0.0,0.0,0.0,0.0,0.0,0.0,0.0,0.0,0.0,0.0,0.0,0.0,0.0,0.0,0.0,0.0,0.0,0.0,0.0,0.0,0.0,0.0,0.0,0.0,0.0,0.0,0.0,0.0,0.0,0.0,0.0,0.0,0.0,0.0,0.0,0.0,0.0,0.0,0.0,0.0,0.0,0.0,0.0,0.0,0.0,0.0,0.0,0.0,0.0,0.0,0.0,0.0,0.0,0.0,0.0,0.0,0.0,0.0,0.0,0.0,0.0,0.0,0.0,0.0,0.0,0.0,0.0,0.0,0.0,0.0,0.0,0.0,0.0,0.0,0.0,0.0,0.0,0.0,0.0,0.0,0.0,0.0,0.0,0.0,0.0,0.0,0.0,0.0,0.0,0.0,0.0,0.0,0.0,0.0,0.0,0.0,0.0,0.0,0.0,0.0,0.0,0.0,0.0,0.0,0.0,0.0,0.0,0.0,0.0,0.0,0.0,0.0,0.0,0.0,0.0,0.0,0.0,0.0,0.0,0.0,0.0,0.0,0.0,0.0,0.0,0.0,0.0,0.0,0.0,0.0,0.0,0.0,0.0,0.0,0.0,0.0,0.0,0.0,0.0,0.0,0.0,0.0,0.0,0.0,0.0,0.0,0.0,0.0,0.0,0.0,0.0,0.0,0.0,0.0,0.0,0.0,0.0,0.0,0.0,0.0,0.0,0.0,0.0,0.0,0.0,0.0,0.0,0.0,0.0,0.0,0.0,0.0,0.0,0.0,0.0,0.0,0.0,0.0,0.0,0.0,0.0,0.0,0.0,0.0,0.0,0.0,0.0,0.0,0.0,0.0,0.0,0.0,0.0,0.0,0.0,0.0,0.0,0.0,0.0,0.0,0.0,0.0,0.0,0.0,0.0,0.0,0.0,0.0,0.0,0.0,0.0,0.0,0.0,0.0,0.0,0.0,0.0,0.0,0.0,0.0,0.0,0.0,0.0,0.0,0.0,0.0,0.0,0.0,0.0,0.0,0.0,0.0,0.0,0.0,0.0,0.0,0.0,0.0,0.0,0.0,0.0,0.0,0.0,0.0,0.0,0.0,0.0,0.0,0.0,0.0,0.0,0.0,0.0,0.0,0.0,0.0,0.0,0.0,0.0,0.0,0.0,0.0,0.0,0.0,0.0,0.0,0.0,0.0,0.0,0.0,0.0,0.0,0.0,0.0,0.0,0.0,0.0,0.0,0.0,0.0,0.0,0.0,0.0,0.0,0.0,0.0,0.0,0.0,0.0,0.0,0.0,0.0,0.0,0.0,0.0,0.0,0.0,0.0,0.0,0.0,0.0,0.0,0.0,0.0,0.0,0.0,0.0,0.0,0.0,0.0,0.0,0.0,0.0,0.0,0.0,0.0,0.0,0.0,0.0,0.0,0.0,0.0,0.0,0.0,0.0,0.0,0.0,0.0,0.0,0.0,0.0,0.0,0.0,0.0,0.0,0.0,0.0,0.0,0.0,0.0,0.0,0.0,0.0,0.0,0.0,0.0,0.0,0.0,0.0,0.0,0.0,0.0,0.0,0.0,0.0,0.0,0.0,0.0,0.0,0.0,0.0,0.0,0.0,0.0,0.0,0.0,0.0,0.0,0.0,0.0,0.0,0.0,0.0,0.0,0.0,0.0,0.0,0.0,0.0,0.0,0.0,0.0,0.0,0.0,0.0,0.0,0.0,0.0,0.0,0.0,0.0,0.0,0.0,0.0,0.0,0.0,0.0,0.0,0.0,0.0,0.0,0.0,0.0,0.0,0.0,0.0,0.0,0.0,0.0,0.0,0.0,0.0,0.0,0.0,0.0,0.0,0.0,0.0,0.0,0.0,0.0,0.0,0.0,0.0,0.0,0.0,0.0,0.0,0.0,0.0,0.0,0.0,0.0,0.0,0.0,0.0,0.0,0.0,0.0,0.0,0.0,0.0,0.0,0.0,0.0,0.0,0.0,0.0,0.0,0.0,0.0,0.0,0.0,0.0,0.0,0.0,0.0,0.0,0.0,0.0,0.0,0.0,0.0,0.0,0.0,0.0,0.0,0.0,0.0,0.0,0.0,0.0,0.0,0.0,0.0,0.0,0.0,0.0,0.0,0.0,0.0,0.0,0.0,0.0,0.0,0.0,0.0,0.0,0.0,0.0,0.0,0.0,0.0,0.0,0.0,0.0,0.0,0.0,0.0,0.0,0.0,0.0,0.0,0.0,0.0,0.0,0.0,0.0,0.0,0.0,0.0,0.0,0.0,0.0,0.0,0.0,0.0,0.0,0.0,0.0,0.0,0.0,0.0,0.0,0.0,0.0,0.0,0.0,0.0,0.0,0.0,0.0,0.0,0.0,0.0,0.0,0.0,0.0,0.0,0.0,0.0,0.0,0.0,0.0,0.0,0.0,0.0,0.0,0.0,0.0,0.0,0.0,0.0,0.0,0.0,0.0,0.0,0.0,0.0,0.0,0.0,0.0,0.0,0.0,0.0,0.0,0.0,0.0,0.0,0.0,0.0,0.0,0.0,0.0,0.0,0.0,0.0,0.0,0.0,0.0,0.0,0.0,0.0,0.0,0.0,0.0,0.0,0.0,0.0,0.0,0.0,0.0,0.0,0.0,0.0,0.0,0.0,0.0,0.0,0.0,0.0,0.0,0.0,0.0,0.0,0.0,0.0,0.0,0.0,0.0,0.0,0.0,0.0,0.0,0.0,0.0,0.0,0.0,0.0,0.0,0.0,0.0,0.0,0.0,0.0,0.0,0.0,0.0,0.0,0.0,0.0,0.0,0.0,0.0,0.0,0.0,0.0,0.0,0.0,0.0,0.0,0.0,0.0,0.0,0.0,0.0,0.0,0.0,0.0,0.0,0.0,0.0,0.0,0.0,0.0,0.0,0.0,0.0,0.0,0.0,0.0,0.0,0.0,0.0,0.0,0.0,0.0,0.0,0.0,0.0,0.0,0.0,0.0,0.0,0.0,0.0,0.0,0.0,0.0,0.0,0.0,0.0,0.0,0.0,0.0,0.0,0.0,0.0,0.0,0.0,0.0,0.0,0.0,0.0,0.0,0.0,0.0,0.0,0.0,0.0,0.0,0.0,0.0,0.0,0.0,0.0,0.0,0.0,0.0,0.0,0.0,0.0,0.0,0.0,0.0,0.0,0.0,0.0,0.0,0.0,0.0,0.0,0.0,0.0,0.0,0.0,0.0,0.0,0.0,0.0,0.0,0.0,0.0,0.0,0.0,0.0,0.0,0.0,0.0,0.0,0.0,0.0,0.0,0.0,0.0,0.0,0.0,0.0,0.0,0.0,0.0,0.0,0.0,0.0,0.0,0.0,0.0,0.0,0.0,0.0,0.0,0.0,0.0,0.0,0.0,0.0,0.0,0.0,0.0,0.0,0.0,0.0,0.0,0.0,0.0,0.0,0.0,0.0,0.0,0.0,0.0,0.0,0.0,0.0,0.0,0.0,0.0,0.0,0.0,0.0,0.0,0.0,0.0,0.0,0.0,0.0,0.0,0.0,0.0,0.0,0.0,0.0,0.0,0.0,0.0,0.0,0.0,0.0,0.0,0.0,0.0,0.0,0.0,0.0,0.0,0.0,0.0,0.0,0.0,0.0,0.0,0.0,0.0,0.0,0.0,0.0,0.0,0.0,0.0,0.0,0.0,0.0,0.0,0.0,0.0,0.0,0.0,0.0,0.0,0.0,0.0,0.0,0.0,0.0,0.0,0.0,0.0,0.0,0.0,0.0,0.0,0.0,0.0,0.0,0.0,0.0,0.0,0.0,0.0,0.0,0.0,0.0,0.0,0.0,0.0,0.0,0.0,0.0,0.0,0.0,0.0,0.0,0.0,0.0,0.0,0.0,0.0,0.0,0.0,0.0,0.0,0.0,0.0,0.0,0.0,0.0,0.0,0.0,0.0,0.0,0.0,0.0,0.0,0.0,0.0,0.0,0.0,0.0,0.0,0.0,0.0,0.0,0.0,0.0,0.0,0.0,0.0,0.0,0.0,0.0,0.0,0.0,0.0,0.0,0.0,0.0,0.0,0.0,0.0,0.0,0.0,0.0,0.0,0.0,0.0,0.0,0.0,0.0,0.0,0.0,0.0,0.0,0.0,0.0,0.0,0.0,0.0,0.0,0.0,0.0,0.0,-1.8566,0.0,0.0,0.0,0.0,0.0,0.0,0.0,0.0,0.0,0.0,0.0,0.0,0.0,0.0,0.0,0.0,0.0,0.0,0.0,0.0,0.0,0.0,0.0,0.0,0.0,0.0,0.0,0.0,0.0,0.0,0.0,0.0,0.0,0.0,0.0,0.0,0.0,0.0,0.0,0.0,0.0,0.0,0.0,0.0,0.0,0.0,0.0,0.0,0.0,0.0,0.0,0.0,0.0,0.0,0.0,0.0,0.0,0.0,0.0,0.0,0.0,0.0,0.0,0.0,0.0,0.0,0.0,0.0,0.0,0.0,0.0,0.0,0.0,0.0,0.0,0.0,0.0,0.0,0.0,0.0,0.0,0.0,0.0,0.0,0.0,0.0,0.0,0.0,0.0,0.0,0.0,0.0,0.0,0.0,0.0,0.0,0.0,0.0,0.0,0.0,0.0,0.0,0.0,0.0,0.0,0.0,0.0,0.0,0.0,0.0,-1.886,-1.8861,-1.8824,-1.877,-1.8659,0.0,0.0,0.0,0.0,0.0,0.0,0.0,0.0,0.0,0.0,0.0,0.0,0.0,0.0,0.0,0.0,0.0,0.0,0.0,0.0,0.0,0.0,0.0,0.0,0.0,0.0,0.0,0.0,0.0,0.0,0.0,0.0,0.0,0.0,0.0,0.0,0.0,0.0,0.0,0.0,0.0,0.0,0.0,0.0,0.0,0.0,0.0,0.0,0.0,0.0,0.0,0.0,0.0,0.0,0.0,0.0,0.0,0.0,0.0,0.0,0.0,0.0,0.0,0.0,0.0,0.0,0.0,0.0,0.0,0.0,0.0,0.0,0.0,0.0,0.0,0.0,0.0,0.0,0.0,0.0,0.0,0.0,0.0,0.0,0.0,0.0,0.0,0.0,0.0,0.0,0.0,0.0,0.0,0.0,0.0,0.0,0.0,0.0,0.0,0.0,0.0,0.0,0.0,0.0,0.0,0.0,0.0,0.0,0.0,0.0,0.0,0.0,-1.8932,-1.8861,-1.877,0.0,0.0,0.0,0.0,0.0,0.0,0.0,0.0,0.0,0.0,0.0,0.0,0.0,0.0,0.0,0.0,0.0,0.0,0.0,0.0,0.0,0.0,0.0,0.0,0.0,0.0,0.0,0.0,0.0,0.0,0.0,0.0,0.0,0.0,0.0,0.0,0.0,0.0,0.0,0.0,0.0,0.0,0.0,0.0,0.0,0.0,0.0,0.0,0.0,0.0,0.0,0.0,0.0,0.0,0.0,0.0,0.0,0.0,0.0,0.0,0.0,0.0,0.0,0.0,0.0,0.0,0.0,0.0,0.0,0.0,0.0,0.0,0.0,0.0,0.0,0.0,0.0,0.0,0.0,0.0,0.0,0.0,0.0,0.0,0.0,0.0,0.0,0.0,0.0,0.0,0.0,0.0,0.0,0.0,0.0,0.0,0.0,0.0,0.0,0.0,0.0,0.0,0.0,0.0,0.0,0.0,0.0,0.0,0.0,0.0,-1.9066,-1.9088,-1.9019,0.0,-1.8878,0.0,0.0,0.0,0.0,0.0,0.0,0.0,0.0,0.0,0.0,0.0,0.0,0.0,0.0,0.0,0.0,0.0,0.0,0.0,0.0,0.0,0.0,0.0,0.0,0.0,0.0,0.0,0.0,0.0,0.0,0.0,0.0,0.0,0.0,0.0,0.0,0.0,0.0,0.0,0.0,0.0,0.0,0.0,0.0,0.0,0.0,0.0,0.0,0.0,0.0,0.0,0.0,0.0,0.0,0.0,0.0,0.0,0.0,0.0,0.0,0.0,0.0,0.0,0.0,0.0,0.0,0.0,0.0,0.0,0.0,0.0,0.0,0.0,0.0,0.0,0.0,0.0,0.0,0.0,0.0,0.0,0.0,0.0,0.0,0.0,0.0,0.0,0.0,0.0,0.0,0.0,0.0,0.0,0.0,0.0,0.0,0.0,0.0,0.0,0.0,0.0,0.0,0.0,0.0,0.0,0.0,0.0,0.0,0.0,0.0,-1.9132,-1.9101,-1.9035,-1.8984,0.0,0.0,0.0,0.0,0.0,0.0,0.0,0.0,0.0,0.0,0.0,0.0,0.0,0.0,0.0,0.0,0.0,0.0,0.0,0.0,0.0,0.0,0.0,0.0,0.0,0.0,0.0,0.0,0.0,0.0,0.0,0.0,0.0,0.0,0.0,0.0,0.0,0.0,0.0,0.0,0.0,0.0,0.0,0.0,0.0,0.0,0.0,0.0,0.0,0.0,0.0,0.0,0.0,0.0,0.0,0.0,0.0,0.0,0.0,0.0,0.0,0.0,0.0,0.0,0.0,0.0,0.0,0.0,0.0,0.0,0.0,0.0,0.0,0.0,0.0,0.0,0.0,0.0,0.0,0.0,0.0,0.0,0.0,0.0,0.0,0.0,0.0,0.0,0.0,0.0,0.0,0.0,0.0,0.0,0.0,0.0,0.0,0.0,0.0,0.0,0.0,0.0,0.0,0.0,0.0,0.0,0.0,0.0,0.0,0.0,-1.9264,-1.9214,-1.915,-1.9102,-1.907,-1.9035,0.0,0.0,0.0,0.0,0.0,0.0,0.0,0.0,0.0,0.0,0.0,0.0,0.0,0.0,0.0,0.0,0.0,0.0,0.0,0.0,0.0,0.0,0.0,0.0,0.0,0.0,0.0,0.0,0.0,0.0,0.0,0.0,0.0,0.0,0.0,0.0,0.0,0.0,0.0,0.0,0.0,0.0,0.0,0.0,0.0,0.0,0.0,0.0,0.0,0.0,0.0,0.0,0.0,0.0,0.0,0.0,0.0,0.0,0.0,0.0,0.0,0.0,0.0,0.0,0.0,0.0,0.0,0.0,0.0,0.0,0.0,0.0,0.0,0.0,0.0,0.0,0.0,0.0,0.0,0.0,0.0,0.0,0.0,0.0,0.0,0.0,0.0,0.0,0.0,0.0,0.0,0.0,0.0,0.0,0.0,0.0,0.0,0.0,0.0,0.0,0.0,0.0,0.0,0.0,0.0,0.0,0.0,0.0,-1.9408,-1.939,-1.9378,-1.9301,-1.9235,-1.9184,0.0,0.0,0.0,0.0,0.0,0.0,0.0,0.0,0.0,0.0,0.0,0.0,0.0,0.0,0.0,0.0,0.0,0.0,0.0,0.0,0.0,0.0,0.0,0.0,0.0,0.0,0.0,0.0,0.0,0.0,0.0,0.0,0.0,0.0,0.0,0.0,0.0,0.0,0.0,0.0,0.0,0.0,0.0,0.0,0.0,0.0,0.0,0.0,0.0,0.0,0.0,0.0,0.0,0.0,0.0,0.0,0.0,0.0,0.0,0.0,0.0,0.0,0.0,0.0,0.0,0.0,0.0,0.0,0.0,0.0,0.0,0.0,0.0,0.0,0.0,0.0,0.0,0.0,0.0,0.0,0.0,0.0,0.0,0.0,0.0,0.0,0.0,0.0,0.0,0.0,0.0,0.0,0.0,0.0,0.0,0.0,0.0,0.0,0.0,0.0,0.0,0.0,0.0,0.0,0.0,0.0,0.0,0.0,0.0,-1.9405,-1.9338,-1.9323,-1.9292,-1.9264,-1.9266,0.0,0.0,0.0,0.0,0.0,0.0,0.0,0.0,0.0,0.0,0.0,0.0,0.0,0.0,0.0,0.0,0.0,0.0,0.0,0.0,0.0,0.0,0.0,0.0,0.0,0.0,0.0,0.0,0.0,0.0,0.0,0.0,0.0,0.0,0.0,0.0,0.0,0.0,0.0,0.0,0.0,0.0,0.0,0.0,0.0,0.0,0.0,0.0,0.0,0.0,0.0,0.0,0.0,0.0,0.0,0.0,0.0,0.0,0.0,0.0,0.0,0.0,0.0,0.0,0.0,0.0,0.0,0.0,0.0,0.0,0.0,0.0,0.0,0.0,0.0,0.0,0.0,0.0,0.0,0.0,0.0,0.0,0.0,0.0,0.0,0.0,0.0,0.0,0.0,0.0,0.0,0.0,0.0,0.0,0.0,0.0,0.0,0.0,0.0,0.0,0.0,0.0,0.0,0.0,0.0,0.0,0.0,0.0,0.0,-2.024,0.0,-2.0175,-2.0157,-1.9892,-1.9732,0.0,0.0,0.0,0.0,0.0,0.0,0.0,0.0,0.0,0.0,0.0,0.0,0.0,0.0,0.0,0.0,0.0,0.0,0.0,0.0,0.0,0.0,0.0,0.0,0.0,0.0,0.0,0.0,0.0,0.0,0.0,0.0,0.0,0.0,0.0,0.0,0.0,0.0,0.0,0.0,0.0,0.0,0.0,0.0,0.0,0.0,0.0,0.0,0.0,0.0,0.0,0.0,0.0,0.0,0.0,0.0,0.0,0.0,0.0,0.0,0.0,0.0,0.0,0.0,0.0,0.0,0.0,0.0,0.0,0.0,0.0,0.0,0.0,0.0,0.0,0.0,0.0,0.0,0.0,0.0,0.0,0.0,0.0,0.0,0.0,0.0,0.0,0.0,0.0,0.0,0.0,0.0,0.0,0.0,0.0,0.0,0.0,0.0,0.0,0.0,0.0,0.0,0.0,0.0,0.0,0.0,0.0,0.0,-2.1198,-2.194,-2.1943,-2.189,-2.1964,-2.1055,-2.0602,0.0,0.0,0.0,0.0,0.0,0.0,0.0,0.0,0.0,0.0,0.0,0.0,0.0,0.0,0.0,0.0,0.0,0.0,0.0,0.0,0.0,0.0,0.0,0.0,0.0,0.0,0.0,0.0,0.0,0.0,0.0,0.0,0.0,0.0,0.0,0.0,0.0,0.0,0.0,0.0,0.0,0.0,0.0,0.0,0.0,0.0,0.0,0.0,0.0,0.0,0.0,0.0,0.0,0.0,0.0,0.0,0.0,0.0,0.0,0.0,0.0,0.0,0.0,0.0,0.0,0.0,0.0,0.0,0.0,0.0,0.0,0.0,0.0,0.0,0.0,0.0,0.0,0.0,0.0,0.0,0.0,0.0,0.0,0.0,0.0,0.0,0.0,0.0,0.0,0.0,0.0,0.0,0.0,0.0,0.0,0.0,0.0,0.0,0.0,0.0,0.0,0.0,0.0,0.0,0.0,0.0,0.0,0.0,0.0,-2.2058,-2.2027,-2.2012,-2.1993,-2.1708,-2.1272,0.0,0.0,0.0,0.0,0.0,0.0,0.0,0.0,0.0,0.0,0.0,0.0,0.0,0.0,0.0,0.0,0.0,0.0,0.0,0.0,0.0,0.0,0.0,0.0,0.0,0.0,0.0,0.0,0.0,0.0,0.0,0.0,0.0,0.0,0.0,0.0,0.0,0.0,0.0,0.0,0.0,0.0,0.0,0.0,0.0,0.0,0.0,0.0,0.0,0.0,0.0,0.0,0.0,0.0,0.0,0.0,0.0,0.0,0.0,0.0,0.0,0.0,0.0,0.0,0.0,0.0,0.0,0.0,0.0,0.0,0.0,0.0,0.0,0.0,0.0,0.0,0.0,0.0,0.0,0.0,0.0,0.0,0.0,0.0,0.0,0.0,0.0,0.0,0.0,0.0,0.0,0.0,0.0,0.0,0.0,0.0,0.0,0.0,0.0,0.0,0.0,0.0,0.0,0.0,0.0,0.0,0.0,0.0,0.0,-2.3128,-2.3014,-2.2967,-2.2986,-2.2659,-2.207,-2.1226,0.0,0.0,0.0,0.0,0.0,0.0,0.0,0.0,0.0,0.0,0.0,0.0,0.0,0.0,0.0,0.0,0.0,0.0,0.0,0.0,0.0,0.0,0.0,0.0,0.0,0.0,0.0,0.0,0.0,0.0,0.0,0.0,0.0,0.0,0.0,0.0,0.0,0.0,0.0,0.0,0.0,0.0,0.0,0.0,0.0,0.0,0.0,0.0,0.0,0.0,0.0,0.0,0.0,0.0,0.0,0.0,0.0,0.0,0.0,0.0,0.0,0.0,0.0,0.0,0.0,0.0,0.0,0.0,0.0,0.0,0.0,0.0,0.0,0.0,0.0,0.0,0.0,0.0,0.0,0.0,0.0,0.0,0.0,0.0,0.0,0.0,0.0,0.0,0.0,0.0,0.0,0.0,0.0,0.0,0.0,0.0,0.0,0.0,0.0,0.0,0.0,0.0,0.0,0.0,0.0,0.0,0.0,0.0,-2.4873,-2.4735,-2.4634,-2.4559,-2.3798,-2.2949,0.0,0.0,0.0,0.0,0.0,0.0,0.0,0.0,0.0,0.0,0.0,0.0,0.0,0.0,0.0,0.0,0.0,0.0,0.0,0.0,0.0,0.0,0.0,0.0,0.0,0.0,0.0,0.0,0.0,0.0,0.0,0.0,0.0,0.0,0.0,0.0,0.0,0.0,0.0,0.0,0.0,0.0,0.0,0.0,0.0,0.0,0.0,0.0,0.0,0.0,0.0,0.0,0.0,0.0,0.0,0.0,0.0,0.0,0.0,0.0,0.0,0.0,0.0,0.0,0.0,0.0,0.0,0.0,0.0,0.0,0.0,0.0,0.0,0.0,0.0,0.0,0.0,0.0,0.0,0.0,0.0,0.0,0.0,0.0,0.0,0.0,0.0,0.0,0.0,0.0,0.0,0.0,0.0,0.0,0.0,0.0,0.0,0.0,0.0,0.0,0.0,0.0,0.0,0.0,0.0,0.0,0.0,0.0,0.0,-2.5733,-2.5725,-2.5389,-2.4772,-2.4467,-2.3933,0.0,0.0,0.0,0.0,0.0,0.0,0.0,0.0,0.0,0.0,0.0,0.0,0.0,0.0,0.0,0.0,0.0,0.0,0.0,0.0,0.0,0.0,0.0,0.0,0.0,0.0,0.0,0.0,0.0,0.0,0.0,0.0,0.0,0.0,0.0,0.0,0.0,0.0,0.0,0.0,0.0,0.0,0.0,0.0,0.0,0.0,0.0,0.0,0.0,0.0,0.0,0.0,0.0,0.0,0.0,0.0,0.0,0.0,0.0,0.0,0.0,0.0,0.0,0.0,0.0,0.0,0.0,0.0,0.0,0.0,0.0,0.0,0.0,0.0,0.0,0.0,0.0,0.0,0.0,0.0,0.0,0.0,0.0,0.0,0.0,0.0,0.0,0.0,0.0,0.0,0.0,0.0,0.0,0.0,0.0,0.0,0.0,0.0,0.0,0.0,0.0,0.0,0.0,0.0,0.0,0.0,0.0,0.0,-2.637,-2.6719,-2.6696,-2.645,-2.5939,-2.5137,-2.4347,0.0,0.0,0.0,0.0,0.0,0.0,0.0,0.0,0.0,0.0,0.0,0.0,0.0,0.0,0.0,0.0,0.0,0.0,0.0,0.0,0.0,0.0,0.0,0.0,0.0,0.0,0.0,0.0,0.0,0.0,0.0,0.0,0.0,0.0,0.0,0.0,0.0,0.0,0.0,0.0,0.0,0.0,0.0,0.0,0.0,0.0,0.0,0.0,0.0,0.0,0.0,0.0,0.0,0.0,0.0,0.0,0.0,0.0,0.0,0.0,0.0,0.0,0.0,0.0,0.0,0.0,0.0,0.0,0.0,0.0,0.0,0.0,0.0,0.0,0.0,0.0,0.0,0.0,0.0,0.0,0.0,0.0,0.0,0.0,0.0,0.0,0.0,0.0,0.0,0.0,0.0,0.0,0.0,0.0,0.0,0.0,0.0,0.0,0.0,0.0,0.0,0.0,0.0,0.0,0.0,0.0,0.0,0.0,-2.6849,-2.7702,-2.7675,-2.7633,-2.7595,-2.5962,-2.4666,0.0,0.0,0.0,0.0,0.0,0.0,0.0,0.0,0.0,0.0,0.0,0.0,0.0,0.0,0.0,0.0,0.0,0.0,0.0,0.0,0.0,0.0,0.0,0.0,0.0,0.0,0.0,0.0,0.0,0.0,0.0,0.0,0.0,0.0,0.0,0.0,0.0,0.0,0.0,0.0,0.0,0.0,0.0,0.0,0.0,0.0,0.0,0.0,0.0,0.0,0.0,0.0,0.0,0.0,0.0,0.0,0.0,0.0,0.0,0.0,0.0,0.0,0.0,0.0,0.0,0.0,0.0,0.0,0.0,0.0,0.0,0.0,0.0,0.0,0.0,0.0,0.0,0.0,0.0,0.0,0.0,0.0,0.0,0.0,0.0,0.0,0.0,0.0,0.0,0.0,0.0,0.0,0.0,0.0,0.0,0.0,0.0,0.0,0.0,0.0,0.0,0.0,0.0,0.0,0.0,0.0,0.0,0.0,-2.7747,-2.8579,-2.8555,-2.8525,-2.8525,-2.743,-2.6443,0.0,0.0,0.0,0.0,0.0,0.0,0.0,0.0,0.0,0.0,0.0,0.0,0.0,0.0,0.0,0.0,0.0,0.0,0.0,0.0,0.0,0.0,0.0,0.0,0.0,0.0,0.0,0.0,0.0,0.0,0.0,0.0,0.0,0.0,0.0,0.0,0.0,0.0,0.0,0.0,0.0,0.0,0.0,0.0,0.0,0.0,0.0,0.0,-2.2419,0.0,0.0,0.0,0.0,0.0,0.0,0.0,0.0,0.0,0.0,0.0,0.0,0.0,0.0,0.0,0.0,0.0,0.0,0.0,0.0,0.0,0.0,0.0,0.0,0.0,0.0,0.0,0.0,0.0,0.0,0.0,0.0,0.0,0.0,0.0,0.0,0.0,0.0,0.0,0.0,0.0,0.0,0.0,0.0,0.0,0.0,0.0,0.0,0.0,0.0,0.0,0.0,0.0,0.0,0.0,0.0,0.0,0.0,0.0,-2.8259,-2.945,-2.9451,-2.9406,-2.9372,-2.8533,-2.7449,0.0,0.0,0.0,0.0,0.0,0.0,0.0,0.0,0.0,0.0,0.0,0.0,0.0,0.0,0.0,0.0,0.0,0.0,0.0,0.0,0.0,0.0,0.0,0.0,0.0,0.0,0.0,0.0,0.0,0.0,0.0,0.0,0.0,0.0,0.0,0.0,0.0,0.0,0.0,0.0,0.0,0.0,0.0,0.0,0.0,0.0,0.0,0.0,0.0,0.0,0.0,0.0,0.0,0.0,0.0,0.0,0.0,0.0,0.0,0.0,0.0,0.0,0.0,0.0,0.0,0.0,0.0,0.0,0.0,0.0,0.0,0.0,0.0,0.0,0.0,0.0,0.0,0.0,0.0,0.0,0.0,0.0,0.0,0.0,0.0,0.0,0.0,0.0,0.0,0.0,0.0,0.0,0.0,0.0,0.0,0.0,0.0,0.0,0.0,0.0,0.0,0.0,0.0,0.0,0.0,0.0,0.0,-2.7816,-2.8637,-3.0128,-3.0123,-3.0094,-3.0083,-2.9239,-2.8021,-2.6359,0.0,0.0,0.0,0.0,0.0,0.0,0.0,0.0,0.0,0.0,0.0,0.0,0.0,0.0,0.0,0.0,0.0,0.0,0.0,0.0,0.0,0.0,0.0,0.0,0.0,0.0,0.0,0.0,0.0,0.0,0.0,0.0,0.0,0.0,0.0,0.0,0.0,0.0,-2.1525,-2.2413,0.0,0.0,0.0,0.0,0.0,0.0,0.0,0.0,-2.5853,0.0,0.0,0.0,0.0,0.0,0.0,0.0,0.0,0.0,0.0,0.0,0.0,0.0,0.0,0.0,0.0,0.0,0.0,0.0,0.0,0.0,0.0,0.0,0.0,0.0,0.0,0.0,0.0,0.0,0.0,0.0,0.0,0.0,0.0,0.0,0.0,0.0,0.0,0.0,0.0,0.0,0.0,0.0,0.0,0.0,0.0,0.0,0.0,0.0,0.0,0.0,0.0,0.0,0.0,0.0,0.0,-2.7697,-2.8371,-2.9192,-3.0166,-3.0142,-3.0094,-3.0083,-2.9258,-2.832,-2.729,0.0,0.0,0.0,0.0,0.0,0.0,0.0,0.0,0.0,0.0,0.0,0.0,0.0,0.0,0.0,0.0,0.0,0.0,0.0,0.0,0.0,0.0,0.0,0.0,0.0,0.0,0.0,0.0,0.0,0.0,0.0,0.0,0.0,0.0,0.0,0.0,0.0,0.0,0.0,-2.4549,-2.5513,0.0,0.0,0.0,0.0,0.0,0.0,0.0,0.0,-2.676,0.0,0.0,0.0,0.0,0.0,0.0,0.0,0.0,0.0,0.0,0.0,0.0,0.0,0.0,0.0,0.0,0.0,0.0,0.0,0.0,0.0,0.0,0.0,0.0,0.0,0.0,0.0,0.0,0.0,0.0,0.0,0.0,0.0,0.0,0.0,0.0,0.0,0.0,0.0,0.0,0.0,0.0,0.0,0.0,0.0,0.0,0.0,0.0,0.0,0.0,0.0,0.0,0.0,0.0,0.0,-2.7694,-2.8498,-2.9312,-3.0166,-3.0171,-3.0147,-3.0064,-2.8836,-2.7956,0.0,0.0,0.0,0.0,0.0,0.0,0.0,0.0,0.0,0.0,0.0,0.0,0.0,0.0,0.0,0.0,0.0,0.0,0.0,0.0,0.0,0.0,0.0,0.0,0.0,0.0,0.0,0.0,0.0,0.0,0.0,0.0,0.0,0.0,0.0,0.0,0.0,0.0,0.0,0.0,-2.5582,-2.6242,-2.6663,0.0,0.0,0.0,0.0,0.0,0.0,-2.7681,-2.7576,0.0,0.0,0.0,0.0,0.0,0.0,0.0,0.0,0.0,0.0,0.0,0.0,0.0,0.0,0.0,0.0,0.0,0.0,0.0,0.0,0.0,0.0,0.0,0.0,0.0,0.0,0.0,0.0,0.0,0.0,0.0,0.0,0.0,0.0,0.0,0.0,0.0,0.0,0.0,0.0,0.0,0.0,0.0,0.0,0.0,0.0,0.0,0.0,0.0,0.0,0.0,0.0,0.0,0.0,0.0,-2.7701,-2.8676,-2.9497,-3.0166,-3.0204,-3.0176,-3.0083,-2.8789,-2.7894,0.0,0.0,0.0,0.0,0.0,0.0,0.0,0.0,0.0,0.0,0.0,0.0,0.0,0.0,0.0,0.0,0.0,0.0,0.0,0.0,0.0,0.0,0.0,0.0,0.0,0.0,0.0,0.0,0.0,0.0,0.0,0.0,0.0,0.0,0.0,0.0,0.0,0.0,0.0,0.0,0.0,-2.661,-2.7407,-2.7652,0.0,0.0,0.0,0.0,-2.7859,-2.8361,0.0,0.0,0.0,0.0,0.0,0.0,0.0,0.0,0.0,0.0,0.0,0.0,0.0,0.0,0.0,0.0,0.0,0.0,0.0,0.0,0.0,0.0,0.0,0.0,0.0,0.0,0.0,0.0,0.0,0.0,0.0,0.0,0.0,0.0,0.0,0.0,0.0,0.0,0.0,0.0,0.0,0.0,0.0,0.0,0.0,0.0,0.0,0.0,0.0,0.0,0.0,0.0,0.0,0.0,0.0,0.0,-2.774,-2.9249,-3.0089,-3.0204,-3.0204,-3.0176,-3.0083,-2.9912,-2.9053,0.0,0.0,0.0,0.0,0.0,0.0,0.0,0.0,0.0,0.0,0.0,0.0,0.0,0.0,0.0,0.0,0.0,0.0,0.0,0.0,0.0,0.0,0.0,0.0,0.0,0.0,0.0,0.0,0.0,0.0,0.0,0.0,0.0,0.0,0.0,0.0,0.0,0.0,0.0,0.0,0.0,-2.7355,-2.8164,-2.8877,-2.9326,0.0,0.0,-2.942,-2.9345,-2.9512,0.0,0.0,0.0,0.0,0.0,0.0,0.0,0.0,0.0,0.0,0.0,0.0,0.0,0.0,0.0,0.0,0.0,0.0,0.0,0.0,0.0,0.0,0.0,0.0,0.0,0.0,0.0,0.0,0.0,0.0,0.0,0.0,0.0,0.0,0.0,0.0,0.0,0.0,0.0,0.0,0.0,0.0,0.0,0.0,0.0,0.0,0.0,0.0,0.0,0.0,0.0,0.0,0.0,0.0,0.0,-2.7701,-2.7759,-2.9344,-3.0204,-3.0204,-3.0157,-3.0113,-3.0102,-2.9616,-2.8738,0.0,0.0,0.0,0.0,0.0,0.0,0.0,0.0,0.0,0.0,0.0,0.0,0.0,0.0,0.0,0.0,0.0,0.0,0.0,0.0,0.0,0.0,0.0,0.0,0.0,0.0,0.0,0.0,0.0,0.0,0.0,0.0,0.0,0.0,0.0,0.0,0.0,0.0,0.0,0.0,0.0,0.0,-2.8896,-2.9363,0.0,0.0,0.0,-2.9531,-2.9588,0.0,0.0,0.0,0.0,0.0,0.0,0.0,0.0,0.0,0.0,0.0,0.0,0.0,0.0,0.0,0.0,0.0,0.0,0.0,0.0,0.0,0.0,0.0,0.0,0.0,0.0,0.0,0.0,0.0,0.0,0.0,0.0,0.0,0.0,0.0,0.0,0.0,0.0,0.0,0.0,0.0,0.0,0.0,0.0,0.0,0.0,0.0,0.0,0.0,0.0,0.0,0.0,0.0,0.0,0.0,0.0,0.0,-2.774,-2.9344,-3.0185,-3.0176,-3.0161,-3.0132,-3.0083,-2.9464,0.0,0.0,0.0,0.0,0.0,0.0,0.0,0.0,0.0,0.0,0.0,0.0,0.0,0.0,0.0,0.0,0.0,0.0,0.0,0.0,0.0,0.0,0.0,0.0,0.0,0.0,0.0,-2.2026,0.0,0.0,0.0,0.0,0.0,0.0,0.0,0.0,0.0,0.0,0.0,0.0,0.0,0.0,-2.7662,-2.9287,-2.9492,-2.9511,0.0,0.0,-2.9492,-2.9569,-2.9645,-2.9438,0.0,0.0,0.0,0.0,0.0,0.0,0.0,0.0,0.0,0.0,0.0,0.0,0.0,0.0,0.0,0.0,0.0,0.0,0.0,0.0,0.0,0.0,0.0,0.0,0.0,0.0,0.0,0.0,0.0,0.0,0.0,0.0,0.0,0.0,0.0,0.0,0.0,0.0,0.0,0.0,0.0,0.0,0.0,0.0,0.0,0.0,0.0,0.0,0.0,0.0,0.0,0.0,0.0,0.0,-2.7656,-2.7759,-2.9344,-3.0176,-3.0117,-3.0176,-3.0157,-3.0102,-3.0045,-2.9201,0.0,0.0,0.0,0.0,0.0,0.0,0.0,0.0,0.0,0.0,0.0,0.0,0.0,0.0,0.0,0.0,0.0,0.0,0.0,0.0,0.0,0.0,0.0,0.0,0.0,0.0,0.0,0.0,0.0,0.0,0.0,0.0,0.0,0.0,0.0,0.0,0.0,0.0,0.0,0.0,0.0,-2.7511,-2.9091,-2.9373,-2.9412,0.0,-2.9412,-2.9433,-2.9492,-2.9608,-2.9438,-2.8627,0.0,0.0,0.0,0.0,0.0,0.0,0.0,0.0,0.0,0.0,0.0,0.0,0.0,0.0,0.0,0.0,0.0,0.0,0.0,0.0,0.0,0.0,0.0,0.0,0.0,0.0,0.0,0.0,0.0,0.0,0.0,0.0,0.0,0.0,0.0,0.0,0.0,0.0,0.0,0.0,0.0,0.0,0.0,0.0,0.0,0.0,0.0,0.0,0.0,0.0,0.0,0.0,0.0,-2.7891,-2.8434,-2.9568,-3.0152,-3.0142,-3.0147,-3.0132,-3.0102,-3.0072,-2.944,0.0,0.0,0.0,0.0,0.0,0.0,0.0,0.0,0.0,0.0,0.0,0.0,0.0,0.0,0.0,0.0,0.0,0.0,0.0,0.0,0.0,0.0,0.0,0.0,0.0,0.0,0.0,0.0,-2.5477,-2.5609,-2.5911,0.0,0.0,0.0,0.0,0.0,0.0,0.0,0.0,0.0,0.0,-2.7987,-2.9145,-2.933,0.0,0.0,-2.9392,-2.9429,-2.9433,-2.9472,-2.9438,-2.9214,-2.8516,0.0,0.0,0.0,0.0,0.0,0.0,0.0,0.0,0.0,0.0,0.0,0.0,0.0,0.0,0.0,0.0,0.0,0.0,0.0,0.0,0.0,0.0,0.0,0.0,0.0,0.0,0.0,0.0,0.0,0.0,0.0,0.0,0.0,0.0,0.0,0.0,0.0,0.0,0.0,0.0,0.0,0.0,0.0,0.0,0.0,0.0,0.0,0.0,0.0,0.0,0.0,0.0,-2.8036,-2.8899,-2.9707,-3.0147,-3.0176,-3.0132,-3.0083,-3.0102,-3.0038,-2.9577,0.0,0.0,0.0,0.0,0.0,0.0,0.0,0.0,0.0,0.0,0.0,0.0,0.0,0.0,0.0,0.0,0.0,0.0,0.0,0.0,0.0,0.0,0.0,0.0,0.0,0.0,0.0,0.0,-2.6458,-2.6101,-2.5549,0.0,0.0,0.0,0.0,0.0,0.0,0.0,0.0,0.0,0.0,-2.8273,-2.9138,-2.9304,-2.9323,-2.939,-2.9388,-2.9388,-2.9373,-2.9373,-2.9433,-2.9569,0.0,0.0,0.0,0.0,0.0,0.0,0.0,0.0,0.0,0.0,0.0,0.0,0.0,0.0,0.0,0.0,0.0,0.0,0.0,0.0,0.0,0.0,0.0,0.0,0.0,0.0,0.0,-2.2919,0.0,0.0,-2.2907,0.0,0.0,0.0,0.0,0.0,0.0,0.0,0.0,0.0,0.0,0.0,0.0,0.0,0.0,0.0,0.0,0.0,0.0,0.0,0.0,0.0,0.0,-2.8041,-2.8888,-2.977,-3.0157,-3.0098,-3.0098,-3.0098,-3.0102,-3.0038,-2.9627,-2.881,0.0,0.0,0.0,0.0,0.0,0.0,0.0,0.0,0.0,0.0,0.0,0.0,0.0,0.0,0.0,0.0,0.0,0.0,0.0,0.0,0.0,0.0,0.0,0.0,0.0,0.0,-2.7997,-2.7529,-2.6391,0.0,0.0,0.0,0.0,0.0,0.0,0.0,0.0,0.0,-2.7482,-2.7805,-2.8227,-2.9067,-2.9262,-2.9323,-2.9386,-2.9388,-2.9388,-2.9392,-2.9373,-2.9433,0.0,0.0,0.0,0.0,0.0,0.0,0.0,0.0,0.0,0.0,0.0,0.0,0.0,0.0,0.0,0.0,0.0,0.0,0.0,0.0,0.0,0.0,0.0,0.0,0.0,0.0,0.0,-2.597,-2.5448,0.0,0.0,0.0,0.0,0.0,0.0,0.0,0.0,0.0,0.0,0.0,-2.7873,-2.7593,0.0,0.0,0.0,0.0,0.0,0.0,0.0,0.0,0.0,0.0,0.0,0.0,-2.8841,-2.9656,-2.998,-3.0117,-3.0091,-3.0087,-3.0087,-3.0038,-3.0022,-2.9577,-2.8701,0.0,0.0,0.0,0.0,0.0,0.0,0.0,0.0,0.0,0.0,0.0,0.0,0.0,0.0,0.0,0.0,0.0,0.0,0.0,0.0,0.0,0.0,0.0,0.0,0.0,-2.6767,0.0,0.0,0.0,0.0,0.0,0.0,0.0,0.0,0.0,0.0,0.0,-2.7112,-2.762,-2.8196,-2.8686,-2.9093,-2.9178,-2.9243,0.0,0.0,0.0,0.0,0.0,0.0,0.0,0.0,0.0,0.0,0.0,0.0,0.0,0.0,-2.6603,-2.6732,-2.6765,-2.6746,-2.6765,0.0,0.0,0.0,0.0,0.0,0.0,0.0,0.0,0.0,0.0,0.0,0.0,0.0,0.0,-2.767,-2.7177,-2.7166,0.0,0.0,0.0,0.0,0.0,0.0,0.0,0.0,-2.8029,-2.8202,-2.8758,-2.8777,-2.8901,-2.9167,-2.9433,-2.9582,0.0,0.0,0.0,0.0,0.0,0.0,0.0,0.0,-2.9231,-3.0011,-3.0102,-3.0087,-3.0091,-3.0076,-3.0041,-3.0007,-2.9975,-2.9531,-2.8602,-2.8477,-2.7788,0.0,0.0,0.0,0.0,0.0,0.0,0.0,0.0,0.0,0.0,0.0,0.0,0.0,0.0,0.0,0.0,0.0,0.0,0.0,0.0,0.0,0.0,0.0,-2.7581,0.0,0.0,0.0,0.0,0.0,0.0,0.0,0.0,0.0,-2.6016,-2.6927,-2.7669,-2.796,-2.8463,-2.8863,-2.8975,0.0,0.0,0.0,0.0,0.0,0.0,0.0,-2.9704,-2.9429,-2.9433,-2.9324,-2.8895,-2.8442,-2.8135,-2.8152,0.0,0.0,-2.7574,-2.7509,-2.7509,-2.749,-2.7523,-2.7519,-2.7533,-2.7528,-2.7604,0.0,0.0,0.0,0.0,-2.8086,0.0,0.0,0.0,-2.818,-2.8238,0.0,-2.818,0.0,0.0,0.0,0.0,-2.802,-2.8058,0.0,0.0,-2.8519,-2.8912,-3.0429,-3.0475,-3.091,-3.1742,-3.2462,-3.282,-3.2653,-2.9506,0.0,0.0,0.0,0.0,0.0,0.0,-2.9285,-3.0026,-3.0167,-3.0179,-3.0202,-3.0127,-3.0092,-3.0105,-3.0002,-2.954,-2.8645,-2.8589,-2.8104,-2.7174,-2.7118,0.0,0.0,0.0,0.0,0.0,0.0,0.0,0.0,0.0,0.0,0.0,0.0,0.0,0.0,0.0,0.0,0.0,0.0,0.0,0.0,-2.8735,0.0,0.0,0.0,0.0,0.0,0.0,0.0,0.0,0.0,-2.7429,-2.7519,-2.7568,-2.7804,-2.8464,0.0,0.0,0.0,0.0,-2.9389,-3.0282,-3.0479,-3.0546,-3.0575,-3.0575,-3.0299,-2.9522,0.0,0.0,-2.9569,-2.9645,-2.9645,-2.9681,-2.9678,-2.9281,-2.7681,-2.749,-2.7471,-2.7452,-2.7557,-2.7513,-2.7494,-2.7657,-2.7843,-3.1495,0.0,0.0,0.0,0.0,-3.0423,-3.0366,-2.9863,-3.11,-3.1294,-3.0733,-3.0704,0.0,0.0,0.0,0.0,0.0,0.0,-3.1064,-3.1807,-3.1576,-3.173,-3.2179,-3.2199,-3.2314,-3.2557,-3.2795,-3.2867,-3.2787,-3.1819,-3.103,-3.0437,0.0,0.0,0.0,0.0,-3.1312,-3.0991,-3.1524,-3.1775,-3.1739,-3.1728,-3.1674,-3.1636,-3.1015,-3.0564,-3.0283,-2.9645,-2.8877,-2.8016,-2.7961,0.0,0.0,0.0,0.0,0.0,0.0,0.0,0.0,0.0,0.0,0.0,0.0,0.0,0.0,0.0,0.0,0.0,0.0,0.0,-2.8535,-2.8893,-2.8709,0.0,0.0,0.0,0.0,0.0,0.0,0.0,0.0,0.0,-2.9601,-2.9296,-2.9079,0.0,0.0,-3.0279,-3.0359,-3.0509,-3.0666,-3.0986,-3.1146,0.0,-3.0535,-3.0506,-3.0272,-2.9455,-2.9411,-2.9511,-2.9588,-2.9664,-2.9683,-2.9682,-2.9719,-2.955,-2.9156,-2.9039,-2.9074,-2.9091,-2.9091,-2.9108,-2.9127,-2.9141,-2.9231,-3.4801,-3.4191,-3.2306,-3.1534,-3.1572,-3.2094,-3.2027,-3.1603,-3.2647,-3.2801,-3.2318,-3.2309,-3.2328,-3.2289,-3.1786,0.0,0.0,0.0,-3.2482,-3.2928,-3.2928,-3.2928,-3.2954,-3.3282,-3.3423,-3.343,-3.3736,-3.3863,-3.3783,-3.3785,-3.3532,-3.297,0.0,-3.2149,-3.1165,-3.2036,-3.227,-3.1798,-3.2203,-3.2397,-3.2372,-3.2355,-3.2317,-3.226,-3.1713,-3.1429,-3.1429,-3.0862,-3.0147,-2.9286,-2.9247,-2.8723,0.0,0.0,0.0,0.0,0.0,0.0,0.0,0.0,0.0,0.0,0.0,-2.3934,-2.4614,0.0,0.0,0.0,-2.799,-2.8978,-2.9783,-2.9881,0.0,0.0,0.0,0.0,0.0,0.0,0.0,-2.9251,-2.9304,-2.9635,-3.0481,-3.051,-3.0335,-3.005,-3.0492,-3.0844,-3.091,0.0,-3.1265,-3.1715,-3.1873,-3.1789,-3.1426,-3.1103,-3.0594,-2.9468,-2.9388,-2.9471,-2.9511,-2.955,-2.9589,-2.9608,-2.9626,-2.9626,-2.9626,-2.9683,-2.9719,-2.9755,-2.9774,-2.9774,-2.9755,-2.9792,-2.9827,-3.8218,-3.7947,-3.4812,-3.3525,-3.3506,-3.3527,-3.3527,-3.3508,-3.3527,-3.3508,-3.3488,-3.3488,-3.3508,-3.3506,-3.3434,0.0,-3.3423,-3.3404,-3.3431,-3.3412,-3.3392,-3.34,-3.3441,-3.4173,-3.4507,-3.4526,-3.5177,-3.5465,-3.5385,-3.5324,-3.5258,-3.5143,-3.3587,-3.2752,-3.2697,-3.2597,-3.2543,-3.2486,-3.2503,-3.2486,-3.2467,-3.2505,-3.2467,-3.2389,-3.2253,-3.2175,-3.2192,-3.2054,-3.1616,-3.0847,-3.0791,-3.002,-2.8413,0.0,0.0,0.0,0.0,0.0,0.0,0.0,0.0,0.0,0.0,0.0,0.0,0.0,0.0,0.0,-2.9247,0.0,-3.1203,-3.1258,0.0,0.0,0.0,-3.1057,-3.1012,-3.0948,-3.09,-3.0887,0.0,0.0,-3.0689,-3.1332,-3.1528,-3.0796,-3.082,-3.0897,-3.0966,-3.1145,-3.1529,-3.2419,-3.2627,-3.2713,-3.2557,-3.1924,-3.0937,-2.9709,-2.9402,-2.9409,-2.9411,-2.9412,-2.9433,-2.9492,-2.9512,-2.9531,-2.9512,-2.9569,-2.9645,-2.9701,-2.9683,-2.9701,-2.9683,-2.9701,-2.9719,-3.8206,-3.8129,-3.7317,-3.6988,-3.6988,-3.6988,-3.7,-3.698,-3.698,-3.698,-3.698,-3.7,-3.6988,-3.6988,-3.6977,-3.6965,-3.696,-3.696,-3.6928,-3.6884,-3.6884,-3.689,-3.6903,-3.7095,-3.7126,-3.7002,-3.6546,-3.6297,-3.6265,-3.5589,-3.5198,-3.5091,-3.4547,-3.3998,-3.3485,-3.3903,-3.3844,-3.3261,-3.3827,-3.4105,-3.4067,-3.4057,-3.402,-3.3874,-3.329,-3.2932,-3.2929,-3.2269,-3.1834,-3.1626,-3.1567,-3.1083,-3.0064,-2.9427,0.0,0.0,0.0,0.0,0.0,0.0,0.0,0.0,0.0,-2.6374,-2.7116,0.0,-2.8543,0.0,-3.0348,-3.0998,-3.1146,-3.1137,0.0,0.0,-3.1057,-3.103,-3.1012,-3.0948,-3.107,-3.153,-3.1572,-3.1727,-3.2273,-3.2491,-3.2545,-3.2349,-3.2362,-3.2411,-3.2455,-3.2547,-3.2703,-3.3089,-3.3211,-3.3095,-3.2598,-3.1434,-3.0577,-3.0261,-2.9715,-2.9351,-2.9392,-2.9453,-2.9511,-2.955,-2.9588,-2.9607,-2.9626,-2.9664,-2.9683,-2.9701,-2.9701,-2.9701,-2.9701,-2.9701,-2.9681,-4.0481,-4.0513,-4.0525,-4.0505,-4.0413,-3.8868,-3.8218,-3.8218,-3.8218,-3.8218,-3.8218,-3.8218,-3.8218,-3.8218,-3.8218,-3.8206,-3.8214,-3.8214,-3.8182,-3.815,-3.8144,-3.8132,-3.8092,-3.8078,-3.7998,-3.7862,-3.7414,-3.714,-3.7058,-3.6568,-3.6079,-3.559,-3.5457,-3.4982,-3.4168,-3.4461,-3.4379,-3.3949,-3.4341,-3.4539,-3.4502,-3.4491,-3.4473,-3.4404,-3.3952,-3.3687,-3.3687,-3.3189,-3.2757,-3.2422,-3.2362,-3.1953,-3.1179,-3.0711,-3.0092,0.0,0.0,0.0,0.0,0.0,0.0,0.0,0.0,0.0,0.0,0.0,-3.0129,-3.0946,-3.1437,-3.1837,-3.2128,-3.2165,-3.2155,-3.2127,-3.2099,-3.2071,-3.2071,-3.2014,-3.2108,-3.2415,-3.2421,-3.2522,-3.2939,-3.2979,-3.3011,-3.2993,-3.2993,-3.3011,-3.3042,-3.3152,-3.3274,-3.3452,-3.3538,-3.3304,-3.2619,-3.1887,-3.112,-3.0526,-3.0098,-2.9755,-2.9423,-2.9411,-2.9451,-2.951,-2.951,-2.9528,-2.9549,-2.9569,-2.9588,-2.9588,-2.9589,-2.9626,-2.9683,-2.9682,-2.97,-4.3331,-4.3407,-4.3407,-4.34,-4.3172,-4.015,-3.8868,-3.8849,-3.8752,-3.8636,-3.8528,-3.8547,-3.8547,-3.8528,-3.8547,-3.8547,-3.8547,-3.8547,-3.8516,-3.8516,-3.8511,-3.8473,-3.8427,-3.8367,-3.8277,-3.8239,-3.8108,-3.7986,-3.7866,-3.7734,-3.7204,-3.6387,-3.6269,-3.5828,-3.5044,-3.4858,-3.4697,-3.4491,-3.4469,-3.4427,-3.4404,-3.4386,-3.4386,-3.4404,-3.4316,-3.4293,-3.4293,-3.424,-3.3863,-3.3194,-3.3138,-3.2785,-3.2005,-3.1949,-3.1578,0.0,-3.0594,0.0,0.0,0.0,0.0,0.0,0.0,0.0,0.0,-3.0376,-3.1574,-3.2401,-3.2456,-3.2746,-3.3408,-3.3462,-3.3452,-3.3393,-3.3393,-3.3393,-3.3393,-3.3352,-3.3292,-3.3292,-3.3183,-3.3135,-3.3086,-3.3104,-3.3104,-3.3086,-3.3135,-3.3117,-3.3117,-3.3214,-3.3334,-3.3567,-3.3605,-3.3396,-3.2883,-3.2713,-3.2182,-3.0954,-3.0489,-3.0243,-2.9595,-2.9418,-2.9368,-2.9386,-2.9407,-2.9407,-2.9388,-2.939,-2.9392,-2.9412,-2.9434,-2.9531,-2.9608,-2.9664,-2.9664,-4.3393,-4.3404,-4.3393,-4.3404,-4.3346,-4.2695,-4.2404,-4.2366,-4.1668,-4.0959,-4.0324,-4.03,-4.0307,-4.0307,-4.0307,-4.0307,-4.0307,-4.0307,-4.0275,-4.0217,-4.0237,-4.0177,-4.0121,-4.0057,-4.0011,-3.9964,-3.9246,-3.8833,-3.8744,-3.7985,-3.7471,-3.7182,-3.7036,-3.687,-3.6652,0.0,0.0,0.0,-3.4547,-3.4555,-3.4483,-3.4423,-3.4363,-3.4316,-3.4245,0.0,-3.4221,-3.4197,-3.4123,-3.3974,-3.3974,0.0,0.0,0.0,0.0,0.0,0.0,0.0,0.0,0.0,0.0,0.0,-3.1539,-3.1506,-3.0826,-3.1502,-3.2335,-3.3114,-3.3205,-3.3259,-3.3404,-3.3422,-3.3441,-3.3393,-3.3393,-3.3393,-3.3393,-3.3364,-3.3352,-3.331,-3.3262,-3.3214,-3.3135,-3.3104,-3.3117,-3.3135,-3.3165,-3.3244,-3.3262,-3.3292,-3.3322,-3.3422,-3.3538,-3.355,-3.3432,-3.2957,-3.2603,-3.2121,-3.1102,-3.0411,-3.0157,-2.9647,-2.928,-2.9323,-2.9323,-2.9307,-2.933,-2.9314,-2.9332,-2.9332,-2.9334,-2.9373,-2.9492,-2.955,-2.9531,-4.4638,-4.4669,-4.4688,-4.468,0.0,-4.4672,-4.4672,-4.4594,-4.3311,-4.2493,-4.2083,-4.209,-4.2098,-4.2073,-4.2092,-4.206,-4.2048,-4.2028,-4.2015,-4.1983,-4.195,-4.1909,-4.187,-4.1401,-4.1146,-4.1063,-4.0168,-3.9677,-3.9528,-3.9051,-3.8534,-3.7932,-3.7863,-3.7585,-3.7117,-3.7033,-3.6574,-3.568,-3.5708,-3.5735,-3.5675,-3.5268,-3.5016,-3.4974,-3.454,0.0,0.0,0.0,0.0,0.0,0.0,0.0,0.0,-3.3584,0.0,-3.3008,-3.2876,-3.2822,-3.2779,-3.2705,-3.2603,-3.2543,-3.2875,-3.2876,-3.2365,-3.2617,-3.2958,-3.3357,-3.3393,-3.3393,-3.3393,-3.3393,-3.3393,-3.3393,-3.3393,-3.3393,-3.3393,-3.3393,-3.3382,-3.3352,-3.3352,-3.3322,-3.3256,-3.3256,-3.3256,-3.3256,-3.3322,-3.3352,-3.3352,-3.3352,-3.3382,-3.3422,-3.352,-3.3587,-3.3625,-3.3424,-3.2991,-3.2621,-3.2017,-3.1254,-3.0526,-3.0128,-2.9786,-2.9455,-2.9344,-2.9347,-2.9349,-2.9351,-2.937,-2.9351,-2.9351,-2.9351,-2.9431,-2.9451,-2.9453,-4.596,-4.5983,-4.5983,-4.5994,-4.5977,-4.5977,-4.5977,-4.588,-4.4311,0.0,0.0,-4.3397,-4.3393,-4.3388,-4.3388,-4.3363,-4.3318,-4.3318,-4.3305,-4.3272,-4.3225,-4.3183,-4.3153,-4.2437,-4.203,-4.1872,-4.1166,-4.0635,-4.0345,-4.0305,-3.9783,-3.881,-3.8712,-3.8324,-3.7591,-3.753,-3.7497,-3.7385,-3.7084,-3.6929,-3.6921,-3.6269,-3.5923,-3.5923,-3.5231,-3.4778,-3.4629,-3.4582,-3.4484,-3.4293,-3.4245,-3.4221,-3.4216,-3.4216,-3.4216,-3.4197,-3.4148,-3.4092,-3.4023,-3.3947,-3.3887,-3.3807,-3.3726,-3.3661,-3.352,-3.3452,-3.3422,-3.3441,-3.3411,-3.3393,-3.3393,-3.3393,-3.3393,-3.3393,-3.3393,-3.3393,-3.3393,-3.3393,-3.3393,-3.3393,-3.3393,-3.3393,-3.3393,-3.3393,-3.3393,-3.3411,-3.3411,-3.3422,-3.3441,-3.3441,-3.3422,-3.3491,-3.3577,-3.3615,-3.3671,-3.3707,-3.3469,-3.2999,-3.2764,-3.2213,-3.102,-3.0535,-3.0213,-2.9413,-2.9344,-2.9323,-2.9323,-2.9304,-2.9326,-2.9344,-2.9344,-2.9344,-2.9344,-2.9328,-2.9351,-4.5986,-4.5997,-4.5997,-4.5997,-4.5977,-4.5977,-4.5977,-4.5899,-4.4955,-4.4098,-4.34,-4.3397,-4.3397,-4.3408,-4.3385,-4.34,-4.3395,-4.3395,-4.3318,-4.3206,-4.3202,-4.3173,-4.3092,-4.2862,-4.2734,-4.2716,-4.2489,-4.1969,-4.1277,-4.1095,-4.0571,-3.9705,-3.9557,-3.9406,-3.9263,-3.9263,-3.922,-3.9188,-3.7812,-3.7066,-3.7068,-3.6906,-3.6817,-3.6798,-3.662,-3.6222,-3.5544,-3.5506,-3.5104,-3.4349,-3.4293,-3.4245,-3.4197,-3.4234,-3.4216,-3.4197,-3.4148,-3.4099,-3.4117,-3.3972,-3.3887,-3.3788,-3.3771,-3.3689,-3.3605,-3.352,-3.3462,-3.3481,-3.3422,-3.3393,-3.3393,-3.3393,-3.3393,-3.3393,-3.3393,-3.3393,-3.3393,-3.3393,-3.3393,-3.3393,-3.3393,-3.3411,-3.3393,-3.3393,-3.3393,-3.3393,-3.3452,-3.3491,-3.352,-3.3538,-3.3509,-3.3538,-3.3605,-3.3671,-3.3698,-3.3753,-3.3688,-3.3678,-3.3081,-3.2426,-3.1379,-3.0759,-3.0102,-2.9214,-2.9108,-2.9085,-2.9085,-2.9062,-2.9108,-2.9108,-2.9108,-2.9085,-2.9126,-2.9134,-2.92,-4.5977,-4.5977,-4.5977,-4.5977,-4.5977,-4.5977,-4.5977,-4.5958,-4.5597,-4.5179,-4.483,-4.4819,-4.4799,-4.4799,-4.4785,-4.4769,-4.475,-4.4718,-4.4659,-4.4617,-4.4607,-4.4562,-4.4408,-4.391,-4.3614,-4.3484,-4.2946,-4.2443,-4.2015,-4.1911,-4.1427,-4.0522,-3.9991,-3.9669,-3.962,-3.962,-3.962,-3.9602,-3.8826,-3.8445,-3.8452,-3.7971,-3.7689,-3.7689,-3.7277,-3.686,-3.6485,-3.64,-3.6189,-3.5792,-3.5701,-3.5653,-3.5603,-3.5578,-3.5553,-3.5553,-3.5528,-3.5502,-3.5458,-3.5338,-3.5239,-3.5202,-3.5147,-3.5109,-3.508,-3.4144,-3.3549,-3.3549,-3.3509,-3.3452,-3.3452,-3.3441,-3.3393,-3.3393,-3.3393,-3.3393,-3.3393,-3.3393,-3.3411,-3.3452,-3.3452,-3.3481,-3.3491,-3.3509,-3.3491,-3.3509,-3.3549,-3.3595,-3.3605,-3.3605,-3.3605,-3.3577,-3.3587,-3.3643,-3.3698,-3.3726,-3.3753,-3.3807,-3.3521,-3.2812,-3.1765,-3.1109,-3.047,-2.9384,-2.9089,-2.9108,-2.9108,-2.9112,-2.9112,-2.913,-2.9108,-2.9108,-2.9112,-2.9134,-2.9178,-4.5977,-4.5977,-4.5977,-4.5977,-4.5977,-4.5977,-4.5977,-4.5977,-4.5977,-4.5977,-4.5977,-4.5977,-4.5997,-4.5994,-4.596,-4.5925,-4.5874,-4.5827,-4.5805,-4.58,-4.5765,-4.5687,-4.5565,-4.487,-4.4477,-4.4247,-4.3574,-4.3107,-4.2845,-4.2784,-4.2261,-4.1331,-4.0443,-3.9976,-3.9908,-3.9701,-3.9626,-3.962,-3.962,-3.962,-3.9602,-3.8939,-3.8601,-3.8544,-3.7981,-3.7568,-3.7361,-3.7314,-3.7197,-3.7028,-3.6889,-3.6814,-3.6807,-3.6738,-3.6705,-3.6705,-3.6705,-3.666,-3.6607,-3.6509,-3.6426,-3.6417,-3.6342,-3.6313,-3.6193,-3.5062,-3.4118,-3.3925,-3.3704,-3.352,-3.3538,-3.3462,-3.3452,-3.3452,-3.3433,-3.3452,-3.3452,-3.3452,-3.3452,-3.3509,-3.352,-3.3549,-3.3577,-3.3605,-3.3587,-3.3605,-3.3615,-3.3633,-3.3661,-3.3716,-3.3698,-3.3689,-3.3661,-3.3671,-3.3726,-3.3726,-3.3753,-3.3807,-3.3823,-3.318,-3.2176,-3.1685,-3.1052,-2.9798,-2.9245,-2.9149,-2.9152,-2.9152,-2.9152,-2.913,-2.913,-2.9152,-2.9112,-2.9152,-2.9175,-4.5977,-4.5977,-4.6007,-4.5977,-4.6007,-4.6007,-4.6007,-4.6007,-4.5997,-4.5977,-4.5977,-4.5977,-4.5994,-4.5987,-4.5999,-4.5937,-4.5893,-4.5827,-4.5805,-4.58,-4.5671,-4.5622,-4.5586,-4.5381,-4.5285,-4.5186,-4.4906,-4.4395,-4.3748,-4.3545,-4.3018,-4.2114,-4.1278,-4.0877,-4.0783,-4.0104,-3.9717,-3.9695,-3.9707,-3.9669,-3.962,-3.9526,-3.9489,-3.9464,-3.9414,-3.8976,-3.8244,-3.8188,-3.7826,-3.7103,-3.6969,-3.6876,-3.6826,-3.6756,-3.6723,-3.6742,-3.6742,-3.666,-3.6644,-3.6581,-3.6574,-3.6398,-3.6472,-3.6481,-3.6405,-3.6174,-3.5659,-3.4924,-3.4071,-3.3678,-3.3623,-3.3595,-3.3577,-3.3549,-3.3577,-3.3577,-3.3577,-3.3577,-3.3577,-3.3577,-3.3605,-3.3605,-3.3605,-3.3633,-3.3615,-3.3671,-3.3698,-3.3698,-3.3753,-3.378,-3.3762,-3.378,-3.378,-3.378,-3.378,-3.3807,-3.3807,-3.3807,-3.3807,-3.3374,-3.2603,-3.1813,-3.1097,-3.0184,-2.9425,-2.9058,-2.9021,-2.8998,-2.904,-2.9062,-2.904,-2.9021,-2.904,-2.904,-2.9067,-4.6037,-4.6066,-4.6056,-4.6056,-4.6066,-4.6066,-4.6056,-4.6066,-4.6066,-4.6037,-4.5997,-4.5977,-4.5994,-4.5987,-4.5963,-4.5919,-4.5893,-4.5847,-4.5771,-4.5731,-4.5668,-4.5601,-4.5476,-4.5419,-4.5378,-4.5275,-4.5144,-4.4938,-4.4502,-4.3942,-4.344,-4.2994,-4.22,-4.1742,-4.1655,-4.0901,-4.0462,-4.0443,-3.9967,-3.9679,-3.9656,-3.9607,-3.962,-3.962,-3.962,-3.947,-3.9126,-3.9051,-3.8901,-3.8558,-3.8465,-3.839,-3.8357,-3.8242,-3.817,-3.8116,-3.8116,-3.8116,-3.8089,-3.8053,-3.7998,-3.796,-3.7903,-3.7845,-3.775,-3.7364,-3.6875,-3.6366,-3.5209,-3.4383,-3.4347,-3.3907,-3.3605,-3.3605,-3.3605,-3.3605,-3.3605,-3.3605,-3.3605,-3.3661,-3.3661,-3.3689,-3.3698,-3.3726,-3.3726,-3.3734,-3.3734,-3.378,-3.3807,-3.3807,-3.3807,-3.3807,-3.3807,-3.3807,-3.3807,-3.3807,-3.3807,-3.3807,-3.3807,-3.3513,-3.2779,-3.1953,-3.1127,-3.0356,-2.9567,-2.9049,-2.8998,-2.8975,-2.8975,-2.8975,-2.8975,-2.8975,-2.8975,-2.8975,-2.904,-4.6115,-4.6113,-4.6123,-4.6104,-4.6113,-4.6113,-4.6123,-4.6124,-4.6115,-4.6066,-4.5997,-4.5986,-4.5964,-4.5949,-4.5932,-4.5906,-4.586,-4.58,-4.5742,-4.57,-4.5632,-4.5547,-4.5419,-4.5361,-4.5298,-4.5211,-4.5122,-4.5048,-4.4919,-4.4364,-4.3999,-4.3842,-4.3104,-4.2659,-4.254,-4.1798,-4.1255,-4.1018,-4.0382,-3.9981,-3.9773,-3.9661,-3.9626,-3.9645,-3.962,-3.962,-3.962,-3.962,-3.962,-3.962,-3.9546,-3.9469,-3.9399,-3.9256,-3.9183,-3.9101,-3.9101,-3.9101,-3.9101,-3.9045,-3.9007,-3.8997,-3.8968,-3.8892,-3.8741,-3.8269,-3.7974,-3.7787,-3.6534,-3.5642,-3.5237,-3.4723,-3.4264,-3.4045,-3.399,-3.3917,-3.3698,-3.3643,-3.3689,-3.3726,-3.3726,-3.3753,-3.378,-3.3807,-3.3807,-3.3807,-3.3807,-3.3807,-3.3807,-3.3807,-3.3807,-3.3807,-3.3807,-3.3807,-3.3807,-3.3807,-3.3807,-3.3807,-3.3807,-3.3623,-3.2908,-3.2137,-3.1366,-3.0723,-2.9732,-2.9085,-2.8994,-2.8975,-2.8975,-2.8975,-2.8998,-2.8998,-2.8975,-2.8998,-2.9021,-4.6123,-4.6113,-4.6113,-4.6113,-4.6113,-4.6113,-4.6123,-4.6115,-4.6115,-4.6066,-4.5997,-4.5922,-4.5898,-4.5886,-4.5893,-4.5867,-4.5819,-4.5727,-4.5715,-4.5684,-4.5512,-4.5419,-4.5381,-4.5339,-4.5277,-4.5178,-4.5129,-4.5033,-4.4895,-4.4838,-4.4838,-4.4762,-4.4023,-4.3644,-4.3507,-4.2768,-4.1958,-4.1393,-4.1079,-4.064,-3.9943,-3.9758,-3.9684,-3.9693,-3.9645,-3.962,-3.962,-3.962,-3.962,-3.962,-3.9546,-3.9469,-3.9418,-3.9283,-3.9156,-3.9101,-3.9101,-3.9101,-3.9101,-3.9101,-3.9045,-3.9007,-3.9026,-3.895,-3.8892,-3.8799,-3.8744,-3.8789,-3.7958,-3.7145,-3.6442,-3.6064,-3.565,-3.5045,-3.4954,-3.4623,-3.3927,-3.3945,-3.3825,-3.3862,-3.3844,-3.3807,-3.3807,-3.3807,-3.3807,-3.3807,-3.3807,-3.3807,-3.3807,-3.3807,-3.3807,-3.3807,-3.3807,-3.3807,-3.3807,-3.3807,-3.3807,-3.3807,-3.3788,-3.377,-3.3238,-3.2632,-3.1843,-3.0999,-2.9843,-2.914,-2.903,-2.8975,-2.8975,-2.8998,-2.9017,-2.9017,-2.9021,-2.9044,-2.9067,-4.6169,-4.6174,-4.6166,-4.6158,-4.6158,-4.6122,-4.6123,-4.6124,-4.6115,-4.6056,-4.5994,-4.5991,-4.5925,-4.5841,-4.5841,-4.5814,-4.5791,-4.5731,-4.5684,-4.5637,-4.5568,-4.5476,-4.54,-4.5338,-4.5275,-4.5192,-4.5084,-4.501,-4.4895,-4.4895,-4.4895,-4.4876,-4.463,-4.4478,-4.4326,-4.3644,-4.3076,-4.273,-4.1783,-4.0988,-4.0653,-4.0091,-3.9754,-3.9703,-3.9674,-3.9645,-3.962,-3.962,-3.962,-3.962,-3.9596,-3.9546,-3.9469,-3.9283,-3.9156,-3.9101,-3.9101,-3.9101,-3.9101,-3.9101,-3.9101,-3.9092,-3.9064,-3.9036,-3.8979,-3.895,-3.895,-3.8847,-3.867,-3.8253,-3.7874,-3.7043,-3.625,-3.5917,-3.5826,-3.5716,-3.5367,-3.4945,-3.4596,-3.4504,-3.4156,-3.3807,-3.3807,-3.3807,-3.3807,-3.3807,-3.3807,-3.3807,-3.3807,-3.3807,-3.3807,-3.3807,-3.3807,-3.3807,-3.3807,-3.3807,-3.3807,-3.3807,-3.3807,-3.3788,-3.3458,-3.2401,-3.1519,-3.1189,-3.0044,-2.9145,-2.9017,-2.8975,-2.8975,-2.8998,-2.9017,-2.904,-2.9044,-2.9089,-2.9112,-4.6149,-4.6174,-4.6185,-4.6177,-4.6177,-4.6122,-4.6075,-4.6066,-4.6066,-4.6035,-4.5972,-4.5937,-4.5867,-4.578,-4.5791,-4.5761,-4.577,-4.5703,-4.5637,-4.5549,-4.5551,-4.5496,-4.5399,-4.5317,-4.5233,-4.5163,-4.5052,-4.4943,-4.4895,-4.4895,-4.4895,-4.4895,-4.4895,-4.4895,-4.48,-4.4345,-4.398,-4.3502,-4.2295,-4.1487,-4.1149,-4.0287,-3.9781,-3.9731,-3.9703,-3.9674,-3.962,-3.962,-3.962,-3.962,-3.962,-3.9552,-3.9476,-3.9283,-3.9165,-3.9101,-3.9101,-3.9101,-3.9101,-3.9101,-3.9101,-3.9101,-3.9101,-3.9092,-3.9036,-3.9036,-3.9007,-3.8979,-3.8979,-3.8931,-3.8736,-3.7913,-3.7108,-3.683,-3.6775,-3.6628,-3.6389,-3.5837,-3.5414,-3.5027,-3.4347,-3.3942,-3.3868,-3.3868,-3.386,-3.3842,-3.3815,-3.3834,-3.3807,-3.3807,-3.3834,-3.3815,-3.3842,-3.386,-3.3887,-3.3913,-3.386,-3.386,-3.386,-3.3834,-3.3466,-3.2334,-3.1489,-3.1158,-3.0436,-2.9475,-2.9017,-2.9017,-2.8975,-2.8975,-2.9017,-2.904,-2.9067,-2.9112,-2.9134,-4.6113,-4.6122,-4.6113,-4.6093,-4.6093,-4.6084,-4.6066,-4.5997,-4.5997,-4.5964,-4.5886,-4.5841,-4.5833,-4.5791,-4.5735,-4.569,-4.5673,-4.562,-4.5568,-4.5495,-4.5438,-4.5399,-4.5379,-4.5275,-4.5167,-4.5071,-4.4962,-4.4895,-4.4895,-4.4895,-4.4895,-4.4895,-4.4895,-4.4895,-4.4895,-4.4781,-4.4454,-4.3748,-4.2825,-4.198,-4.1225,-4.0366,-3.9845,-3.9731,-3.9708,-3.9661,-3.962,-3.962,-3.962,-3.962,-3.962,-3.9552,-3.9395,-3.9309,-3.9183,-3.9129,-3.9101,-3.9101,-3.9101,-3.9101,-3.9101,-3.9101,-3.9101,-3.9101,-3.9101,-3.9101,-3.9073,-3.9073,-3.9073,-3.9064,-3.9007,-3.883,-3.8469,-3.7876,-3.7681,-3.7405,-3.686,-3.6546,-3.6177,-3.5383,-3.4563,-3.4072,-3.3998,-3.3972,-3.3947,-3.3921,-3.3895,-3.3868,-3.386,-3.3834,-3.386,-3.3868,-3.3895,-3.3895,-3.3947,-3.3998,-3.3965,-3.3939,-3.3913,-3.385,-3.3482,-3.2606,-3.1697,-3.1176,-3.011,-2.9168,-2.9017,-2.8975,-2.8975,-2.8998,-2.9017,-2.904,-2.9085,-2.9089,-2.9112,-4.6113,-4.6114,-4.6114,-4.6056,-4.6047,-4.6046,-4.5994,-4.5941,-4.5937,-4.5899,-4.5822,-4.5805,-4.5781,-4.5719,-4.569,-4.564,-4.5549,-4.5495,-4.5438,-4.5438,-4.5419,-4.538,-4.5298,-4.5254,-4.5125,-4.5052,-4.4938,-4.4895,-4.4895,-4.4895,-4.4895,-4.4895,-4.4895,-4.4895,-4.4895,-4.4876,-4.4724,-4.4397,-4.3109,-4.2265,-4.1908,-4.0612,-3.9845,-3.9731,-3.9708,-3.9661,-3.962,-3.962,-3.962,-3.962,-3.962,-3.9539,-3.9414,-3.9369,-3.9256,-3.9129,-3.9101,-3.9101,-3.9101,-3.9101,-3.9101,-3.9101,-3.9101,-3.9101,-3.9101,-3.9101,-3.9101,-3.9101,-3.9101,-3.9101,-3.9073,-3.9092,-3.8887,-3.8541,-3.8522,-3.8393,-3.8052,-3.7599,-3.6713,-3.5576,-3.5032,-3.4663,-3.4183,-3.4016,-3.3998,-3.3991,-3.3972,-3.3947,-3.3947,-3.3921,-3.3947,-3.3972,-3.3954,-3.3928,-3.3972,-3.3972,-3.3947,-3.3913,-3.3913,-3.3895,-3.3534,-3.2889,-3.1998,-3.0937,-2.9829,-2.9182,-2.903,-2.8975,-2.8952,-2.8998,-2.9017,-2.904,-2.9085,-2.9085,-2.9067,-4.6007,-4.6016,-4.6035,-4.6005,-4.5983,-4.5972,-4.5917,-4.5867,-4.5874,-4.5833,-4.5757,-4.5765,-4.5738,-4.5709,-4.5676,-4.5586,-4.5495,-4.5457,-4.5438,-4.54,-4.538,-4.5339,-4.5297,-4.5192,-4.5106,-4.501,-4.4919,-4.4895,-4.4895,-4.4895,-4.4895,-4.4895,-4.4895,-4.4895,-4.4895,-4.4876,-4.48,-4.4308,-4.3095,-4.2242,-4.1734,-4.0612,-3.9845,-3.9758,-3.9712,-3.9684,-3.9626,-3.962,-3.962,-3.962,-3.962,-3.9564,-3.9427,-3.9395,-3.9301,-3.9129,-3.9101,-3.9101,-3.9101,-3.9101,-3.9101,-3.9101,-3.9101,-3.9101,-3.9101,-3.9101,-3.9101,-3.9101,-3.9101,-3.9101,-3.9101,-3.9101,-3.9045,-3.896,-3.8942,-3.8979,-3.8868,-3.8257,-3.7479,-3.647,-3.5784,-3.5166,-3.4722,-3.4203,-3.4111,-3.4049,-3.4049,-3.4005,-3.4023,-3.3998,-3.3998,-3.3998,-3.3998,-3.3972,-3.3947,-3.3921,-3.3921,-3.3895,-3.3887,-3.3895,-3.3755,-3.2944,-3.2078,-3.0803,-2.9654,-2.9088,-2.8881,-2.8905,-2.8905,-2.897,-2.897,-2.897,-2.8947,-2.897,-2.8975,-4.5893,-4.5899,-4.5905,-4.5917,-4.5886,-4.5905,-4.5867,-4.5814,-4.5786,-4.5776,-4.5719,-4.5706,-4.5693,-4.5657,-4.5603,-4.5568,-4.5495,-4.5495,-4.5458,-4.5399,-4.5338,-4.5317,-4.5297,-4.5192,-4.5084,-4.5033,-4.4943,-4.4914,-4.4895,-4.4895,-4.4895,-4.4895,-4.4895,-4.4895,-4.4895,-4.4895,-4.4516,-4.3801,-4.2867,-4.2056,-4.1282,-4.0388,-3.9867,-3.9804,-3.9735,-3.9684,-3.9674,-3.9645,-3.962,-3.962,-3.962,-3.9521,-3.9421,-3.9395,-3.9301,-3.9129,-3.9101,-3.9101,-3.9101,-3.9101,-3.9101,-3.9101,-3.9101,-3.9101,-3.9101,-3.9101,-3.9101,-3.9101,-3.9101,-3.9101,-3.9101,-3.9101,-3.9101,-3.9101,-3.9073,-3.9073,-3.9027,-3.8432,-3.7922,-3.7578,-3.6556,-3.5553,-3.546,-3.473,-3.4371,-3.4124,-3.4099,-3.4074,-3.403,-3.4005,-3.3998,-3.3998,-3.3998,-3.3947,-3.3921,-3.3895,-3.3868,-3.3762,-3.378,-3.3807,-3.364,-3.2831,-3.1881,-3.0607,-2.9631,-2.9101,-2.8785,-2.881,-2.8785,-2.8785,-2.8785,-2.8804,-2.8804,-2.8852,-2.8834,-4.5905,-4.5905,-4.5905,-4.5893,-4.5887,-4.5841,-4.5833,-4.5795,-4.5735,-4.5703,-4.569,-4.5637,-4.564,-4.5622,-4.5568,-4.5513,-4.5476,-4.5438,-4.5438,-4.5379,-4.5317,-4.5297,-4.5277,-4.5218,-4.5132,-4.5061,-4.4991,-4.4943,-4.4895,-4.4895,-4.4895,-4.4895,-4.4895,-4.4895,-4.4895,-4.4876,-4.4459,-4.3701,-4.2829,-4.1996,-4.1162,-4.0347,-3.987,-3.981,-3.9739,-3.9703,-3.9693,-3.9626,-3.962,-3.962,-3.962,-3.9564,-3.9483,-3.9413,-3.9339,-3.9184,-3.912,-3.9101,-3.9101,-3.9101,-3.9101,-3.9101,-3.9101,-3.9101,-3.9101,-3.9101,-3.9101,-3.9101,-3.9101,-3.9101,-3.9101,-3.9101,-3.9101,-3.9101,-3.9101,-3.9101,-3.9064,-3.8934,-3.8581,-3.7968,-3.7466,-3.6723,-3.5887,-3.5293,-3.4884,-3.4396,-3.4167,-3.4124,-3.4074,-3.403,-3.4023,-3.3998,-3.3972,-3.3921,-3.3868,-3.3842,-3.3807,-3.3671,-3.3643,-3.3643,-3.3232,-3.2501,-3.1404,-3.0227,-2.9562,-2.8996,-2.8796,-2.8687,-2.8687,-2.8637,-2.8637,-2.8612,-2.8637,-2.8662,-2.8662,-4.588,-4.5912,-4.588,-4.5841,-4.5852,-4.5805,-4.5776,-4.5754,-4.5726,-4.5673,-4.5657,-4.5622,-4.5586,-4.555,-4.5513,-4.5476,-4.5458,-4.5419,-4.5398,-4.5357,-4.5317,-4.5277,-4.5277,-4.5237,-4.5154,-4.5084,-4.5038,-4.4967,-4.4895,-4.4895,-4.4895,-4.4895,-4.4895,-4.4895,-4.4876,-4.4516,-4.3985,-4.3133,-4.2318,-4.1499,-4.0666,-4.0173,-3.9946,-3.9829,-3.9758,-3.9703,-3.965,-3.9602,-3.962,-3.962,-3.9602,-3.9583,-3.9502,-3.9413,-3.9339,-3.9203,-3.9138,-3.9101,-3.9101,-3.9101,-3.9101,-3.9101,-3.9101,-3.9101,-3.9101,-3.9101,-3.9101,-3.9101,-3.9101,-3.9101,-3.9101,-3.9101,-3.9101,-3.9101,-3.9101,-3.9101,-3.9101,-3.9082,-3.8878,-3.8469,-3.8061,-3.7615,-3.6538,-3.5936,-3.5305,-3.4779,-3.4328,-3.421,-3.4049,-3.4049,-3.4049,-3.3972,-3.3947,-3.3868,-3.3815,-3.378,-3.3698,-3.3587,-3.3473,-3.3491,-3.3073,-3.2383,-3.1502,-3.0539,-2.9663,-2.8977,-2.8815,-2.8626,-2.8484,-2.8458,-2.8458,-2.8414,-2.8458,-2.8458,-2.844,-4.5827,-4.5893,-4.5847,-4.5805,-4.5795,-4.5781,-4.577,-4.5706,-4.5693,-4.5657,-4.5622,-4.5586,-4.5568,-4.5495,-4.5476,-4.5477,-4.5418,-4.5398,-4.5338,-4.5317,-4.5277,-4.5277,-4.5277,-4.5275,-4.5192,-4.5103,-4.5038,-4.4967,-4.4919,-4.4895,-4.4895,-4.4838,-4.48,-4.4743,-4.4478,-4.3947,-4.3133,-4.2356,-4.1711,-4.0934,-4.023,-3.9927,-3.9889,-3.9889,-3.9758,-3.9679,-3.9626,-3.962,-3.962,-3.962,-3.962,-3.9583,-3.9521,-3.9432,-3.9339,-3.9249,-3.9157,-3.9101,-3.9101,-3.9101,-3.9101,-3.9101,-3.9101,-3.9101,-3.9101,-3.9101,-3.9101,-3.9101,-3.9101,-3.9101,-3.9101,-3.9101,-3.9101,-3.9101,-3.9101,-3.9101,-3.9101,-3.9101,-3.9101,-3.9064,-3.8432,-3.8098,-3.7522,-3.6615,-3.5495,-3.5087,-3.4617,-3.4141,-3.4023,-3.3998,-3.3947,-3.3913,-3.3887,-3.3815,-3.3753,-3.3716,-3.3605,-3.3491,-3.3345,-3.3268,-3.3135,-3.2509,-3.183,-3.1008,-3.0016,-2.9242,-2.8784,-2.8596,-2.8407,-2.8273,-2.8246,-2.8219,-2.8201,-2.8246,-2.8228,-4.5893,-4.5893,-4.5912,-4.5847,-4.5805,-4.5746,-4.57,-4.5703,-4.5637,-4.5603,-4.5586,-4.5531,-4.5513,-4.5495,-4.5438,-4.5418,-4.5398,-4.5357,-4.5298,-4.5277,-4.5277,-4.5277,-4.5277,-4.5275,-4.5233,-4.5125,-4.5103,-4.5014,-4.4919,-4.4895,-4.4876,-4.48,-4.4308,-4.3947,-4.3834,-4.3114,-4.228,-4.1579,-4.1256,-4.0726,-4.006,-3.9889,-3.9889,-3.9889,-3.9758,-3.9661,-3.9626,-3.962,-3.962,-3.962,-3.962,-3.9577,-3.9533,-3.9451,-3.9376,-3.9323,-3.9175,-3.9101,-3.9101,-3.9101,-3.9101,-3.9101,-3.9101,-3.9101,-3.9101,-3.9101,-3.9101,-3.9101,-3.9101,-3.9101,-3.9101,-3.9101,-3.9101,-3.9101,-3.9101,-3.9101,-3.9101,-3.9101,-3.9101,-3.9045,-3.8915,-3.8618,-3.7986,-3.7143,-3.6226,-3.5514,-3.4833,-3.4171,-3.3991,-3.3921,-3.3887,-3.3834,-3.3807,-3.378,-3.3671,-3.3577,-3.3462,-3.3345,-3.3226,-3.3122,-3.296,-3.2673,-3.2014,-3.1184,-3.0313,-2.963,-2.9066,-2.8482,-2.8258,-2.8159,-2.8053,-2.8025,-2.7996,-2.8025,-2.7996,-4.5932,-4.5944,-4.5906,-4.586,-4.58,-4.5746,-4.57,-4.5687,-4.564,-4.5586,-4.5586,-4.5513,-4.5495,-4.5438,-4.5419,-4.5379,-4.5357,-4.5317,-4.5277,-4.5277,-4.5277,-4.5277,-4.5277,-4.5277,-4.5233,-4.5125,-4.5103,-4.5033,-4.4919,-4.4838,-4.4687,-4.4345,-4.3872,-4.3474,-4.3019,-4.228,-4.1711,-4.1219,-4.0783,-4.0347,-3.9946,-3.9889,-3.9848,-3.9823,-3.9735,-3.9661,-3.962,-3.962,-3.962,-3.9596,-3.9552,-3.9552,-3.9552,-3.9495,-3.9394,-3.9361,-3.924,-3.9101,-3.9101,-3.9101,-3.9101,-3.9101,-3.9101,-3.9101,-3.9101,-3.9101,-3.9101,-3.9101,-3.9101,-3.9101,-3.9101,-3.9101,-3.9101,-3.9101,-3.9101,-3.9101,-3.9101,-3.9101,-3.9101,-3.9101,-3.9064,-3.8878,-3.8358,-3.758,-3.6848,-3.6065,-3.5164,-3.4502,-3.3913,-3.386,-3.3815,-3.378,-3.3753,-3.3716,-3.3577,-3.3462,-3.3334,-3.3196,-3.3055,-3.2997,-3.288,-3.2545,-3.2157,-3.1431,-3.0742,-3.0,-2.939,-2.8818,-2.82,-2.797,-2.7853,-2.7824,-2.7766,-2.7766,-2.7736,-4.5949,-4.5972,-4.5796,-4.5667,-4.5606,-4.5514,-4.5452,-4.5459,-4.5601,-4.5586,-4.5586,-4.5513,-4.5457,-4.54,-4.5419,-4.5359,-4.5317,-4.5297,-4.5277,-4.5277,-4.5277,-4.5277,-4.5258,-4.5105,-4.4908,-4.4954,-4.5045,-4.4976,-4.4711,-4.4649,-4.4175,-4.3606,-4.3303,-4.281,-4.2147,-4.1446,-4.0953,-4.0783,-4.0347,-4.0003,-3.9889,-3.9889,-3.9826,-3.9735,-3.9731,-3.9661,-3.9602,-3.9552,-3.9571,-3.9571,-3.9539,-3.952,-3.952,-3.9469,-3.9376,-3.9352,-3.9194,-3.9101,-3.9101,-3.9101,-3.9101,-3.9101,-3.9101,-3.9101,-3.9101,-3.9101,-3.9101,-3.9101,-3.9101,-3.9101,-3.9101,-3.9101,-3.9101,-3.9073,-3.9073,-3.9073,-3.9073,-3.9073,-3.9045,-3.9073,-3.9045,-3.8934,-3.8646,-3.8072,-3.7359,-3.6556,-3.5607,-3.4752,-3.4128,-3.378,-3.3726,-3.3698,-3.3671,-3.3605,-3.3481,-3.3327,-3.3196,-3.3073,-3.293,-3.2852,-3.2773,-3.2563,-3.2246,-3.1898,-3.1264,-3.0525,-2.9806,-2.9132,-2.8544,-2.8005,-2.7677,-2.7647,-2.7587,-2.7496,-2.7526,-4.5991,-4.5933,-4.5219,-4.4873,-4.4782,-4.4665,-4.4604,-4.4742,-4.5235,-4.5566,-4.5528,-4.5494,-4.5342,-4.5362,-4.54,-4.5359,-4.5279,-4.5277,-4.5258,-4.5201,-4.5182,-4.5163,-4.4914,-4.4475,-4.4183,-4.4325,-4.457,-4.452,-4.4028,-4.3853,-4.3436,-4.2678,-4.2071,-4.1616,-4.1275,-4.0631,-4.023,-4.0268,-4.0003,-3.9889,-3.9889,-3.9889,-3.9826,-3.9712,-3.9708,-3.9637,-3.9552,-3.952,-3.9495,-3.9444,-3.9418,-3.941,-3.9384,-3.9293,-3.9239,-3.9222,-3.9157,-3.9101,-3.9101,-3.9101,-3.9101,-3.9101,-3.9101,-3.9101,-3.9101,-3.9101,-3.9073,-3.9073,-3.9073,-3.9101,-3.9101,-3.9073,-3.9045,-3.9036,-3.9007,-3.9007,-3.895,-3.895,-3.895,-3.895,-3.8979,-3.896,-3.8709,-3.8282,-3.7487,-3.6656,-3.5771,-3.4751,-3.3899,-3.3689,-3.3615,-3.3587,-3.3577,-3.3481,-3.3352,-3.3226,-3.3086,-3.2979,-3.2834,-3.2737,-3.2657,-3.2557,-3.2329,-3.2049,-3.1683,-3.1105,-3.0337,-2.9522,-2.8862,-2.8307,-2.7927,-2.7531,-2.7483,-2.7434,-2.7465,-4.5121,-4.4663,-4.4222,-4.4013,-4.3969,-4.383,-4.379,-4.3813,-4.4155,-4.4316,-4.4299,-4.4245,-4.4459,-4.4691,-4.4729,-4.4899,-4.5203,-4.5277,-4.5048,-4.4781,-4.4628,-4.4341,-4.4112,-4.3577,-4.3365,-4.3361,-4.3583,-4.3589,-4.3076,-4.3038,-4.2564,-4.1901,-4.1351,-4.101,-4.0574,-4.0176,-3.9908,-3.9889,-3.9889,-3.9889,-3.9889,-3.9889,-3.9804,-3.9735,-3.9708,-3.9631,-3.9527,-3.9495,-3.9469,-3.9418,-3.932,-3.9266,-3.9212,-3.9157,-3.9082,-3.9175,-3.9138,-3.9101,-3.9101,-3.9073,-3.9036,-3.9054,-3.9007,-3.8997,-3.8997,-3.8997,-3.9007,-3.9007,-3.8989,-3.9007,-3.9007,-3.9007,-3.8979,-3.895,-3.895,-3.891,-3.8881,-3.8851,-3.8803,-3.8803,-3.8862,-3.8844,-3.8826,-3.8287,-3.7518,-3.6725,-3.5886,-3.4895,-3.3806,-3.3549,-3.3491,-3.3433,-3.3375,-3.3286,-3.3183,-3.3073,-3.2961,-3.2834,-3.2755,-3.2657,-3.2523,-3.2456,-3.2387,-3.2196,-3.1846,-3.1462,-3.08,-2.9948,-2.929,-2.8598,-2.799,-2.7508,-2.7425,-2.739,-2.7421,-4.4102,-4.347,-4.3233,-4.3133,-4.3129,-4.3013,-4.2922,-4.2965,-4.3099,-4.3201,-4.3085,-4.3129,-4.3422,-4.379,-4.3944,-4.4172,-4.48,-4.4723,-4.4303,-4.3902,-4.3768,-4.3405,-4.2985,-4.2584,-4.2468,-4.2352,-4.2081,-4.2145,-4.2208,-4.2185,-4.1711,-4.1143,-4.0934,-4.065,-4.0022,-3.9946,-3.9889,-3.9889,-3.9889,-3.9889,-3.9889,-3.9867,-3.9823,-3.9708,-3.9708,-3.965,-3.952,-3.9469,-3.9418,-3.932,-3.9193,-3.9073,-3.9045,-3.895,-3.8987,-3.9091,-3.9082,-3.9045,-3.9045,-3.9007,-3.8997,-3.8968,-3.8939,-3.8929,-3.8899,-3.8929,-3.891,-3.891,-3.891,-3.8892,-3.8892,-3.8881,-3.8862,-3.8803,-3.8803,-3.8792,-3.8713,-3.8652,-3.859,-3.8621,-3.8683,-3.8664,-3.8615,-3.8475,-3.7778,-3.6894,-3.6036,-3.5157,-3.4141,-3.3513,-3.3345,-3.3244,-3.3152,-3.3073,-3.2979,-3.2898,-3.2802,-3.2722,-3.2623,-3.2541,-3.2422,-3.2318,-3.2249,-3.2161,-3.2091,-3.169,-3.1011,-3.0352,-2.9555,-2.8778,-2.7982,-2.7514,-2.7379,-2.7345,-2.7345,-4.3548,-4.3333,-4.2574,-4.2249,-4.2233,-4.2097,-4.2054,-4.2136,-4.2714,-4.3085,-4.2854,-4.2992,-4.294,-4.3061,-4.3044,-4.3042,-4.3176,-4.331,-4.3214,-4.2966,-4.2928,-4.2813,-4.2584,-4.1972,-4.1666,-4.1455,-4.088,-4.0836,-4.1187,-4.1332,-4.0934,-4.0328,-4.0214,-4.0006,-3.9927,-3.9889,-3.9889,-3.9889,-3.9889,-3.9867,-3.9823,-3.9823,-3.9773,-3.9722,-3.9674,-3.9626,-3.9495,-3.9444,-3.9346,-3.9166,-3.9064,-3.8979,-3.8921,-3.8939,-3.8881,-3.8881,-3.8892,-3.8921,-3.8921,-3.8892,-3.8862,-3.8862,-3.8881,-3.891,-3.8851,-3.8851,-3.8833,-3.891,-3.8881,-3.8833,-3.8773,-3.8773,-3.8713,-3.8634,-3.859,-3.8528,-3.8446,-3.8433,-3.8368,-3.8322,-3.8368,-3.8401,-3.8364,-3.8227,-3.7994,-3.7076,-3.6177,-3.5263,-3.4375,-3.3646,-3.3135,-3.3011,-3.2979,-3.2866,-3.282,-3.2737,-3.2672,-3.259,-3.2507,-3.2439,-3.2318,-3.2214,-3.2091,-3.2055,-3.1984,-3.1966,-3.1497,-3.075,-2.9817,-2.904,-2.8297,-2.7762,-2.7348,-2.7299,-2.7299,-4.2004,-4.1953,-4.1535,-4.1358,-4.135,-4.1208,-4.1166,-4.1229,-4.1482,-4.1623,-4.1623,-4.1629,-4.181,-4.2162,-4.2546,-4.2794,-4.2794,-4.2717,-4.2469,-4.2125,-4.2049,-4.1839,-4.1361,-4.1036,-4.0788,-4.0653,-4.0346,-4.0283,-4.0466,-4.046,-4.0195,-3.9984,-3.9889,-3.9927,-3.987,-3.9889,-3.9889,-3.9826,-3.9804,-3.9758,-3.9735,-3.9735,-3.9731,-3.9693,-3.9631,-3.9533,-3.9451,-3.9328,-3.9221,-3.9064,-3.8997,-3.891,-3.8773,-3.8713,-3.8634,-3.859,-3.859,-3.8652,-3.8713,-3.8695,-3.8664,-3.8664,-3.8652,-3.8621,-3.8621,-3.8621,-3.8603,-3.8621,-3.8621,-3.8621,-3.8572,-3.8572,-3.8496,-3.8433,-3.8368,-3.8303,-3.8219,-3.8153,-3.8104,-3.8088,-3.802,-3.807,-3.8086,-3.805,-3.7781,-3.7079,-3.611,-3.5127,-3.4225,-3.338,-3.2977,-3.277,-3.2737,-3.2705,-3.2672,-3.2606,-3.259,-3.2489,-3.2353,-3.2284,-3.2214,-3.2126,-3.202,-3.1948,-3.1893,-3.1858,-3.1752,-3.1077,-3.0145,-2.9368,-2.8661,-2.804,-2.7454,-2.7299,-2.7282,-4.0898,-4.0865,-4.0826,-4.0804,-4.0745,-4.0648,-4.0607,-4.0593,-4.0577,-4.0527,-4.0492,-4.0575,-4.0837,-4.1264,-4.1801,-4.1991,-4.2106,-4.2183,-4.182,-4.138,-4.1151,-4.0883,-4.0635,-4.0349,-4.0292,-4.01,-4.0156,-4.0093,-3.997,-3.9927,-3.9965,-3.9889,-3.987,-3.9848,-3.9848,-3.9826,-3.9804,-3.9781,-3.9735,-3.9684,-3.9656,-3.9661,-3.9613,-3.9583,-3.9533,-3.942,-3.9335,-3.9229,-3.912,-3.8979,-3.891,-3.8822,-3.8652,-3.859,-3.8478,-3.8382,-3.835,-3.835,-3.8415,-3.8415,-3.8446,-3.8415,-3.8382,-3.835,-3.835,-3.83,-3.8318,-3.835,-3.8332,-3.83,-3.8285,-3.8285,-3.8238,-3.8223,-3.8189,-3.8088,-3.8002,-3.7949,-3.788,-3.7828,-3.781,-3.7739,-3.7757,-3.7774,-3.7487,-3.6949,-3.6038,-3.4986,-3.4046,-3.3097,-3.2867,-3.2639,-3.2606,-3.2606,-3.2557,-3.2523,-3.2489,-3.2422,-3.2284,-3.2179,-3.2091,-3.202,-3.1948,-3.1893,-3.1819,-3.1819,-3.1785,-3.1129,-3.0437,-2.9592,-2.8799,-2.8127,-2.7627,-2.742,-2.725,-4.0868,-4.0812,-4.0796,-4.0761,-4.0713,-4.0635,-4.0593,-4.0588,-4.0539,-4.0489,-4.0473,-4.0447,-4.0436,-4.0517,-4.0654,-4.075,-4.0597,-4.0482,-4.0578,-4.054,-4.0368,-4.0425,-4.031,-4.0272,-4.0234,-4.0138,-4.0098,-4.0015,-3.9911,-3.9845,-3.9867,-3.9889,-3.9826,-3.9804,-3.9781,-3.9735,-3.9717,-3.9693,-3.9689,-3.9583,-3.9546,-3.9527,-3.9489,-3.9432,-3.9399,-3.9328,-3.9229,-3.9129,-3.9036,-3.8892,-3.8803,-3.8713,-3.8541,-3.8496,-3.8382,-3.8201,-3.8135,-3.8119,-3.8104,-3.8171,-3.8289,-3.8289,-3.8204,-3.8119,-3.8135,-3.8101,-3.8101,-3.8153,-3.8153,-3.8119,-3.8086,-3.8036,-3.8054,-3.7985,-3.7951,-3.7881,-3.781,-3.7757,-3.7685,-3.7631,-3.7558,-3.7521,-3.7466,-3.7485,-3.7577,-3.7095,-3.5794,-3.4746,-3.3734,-3.2855,-3.2714,-3.259,-3.2523,-3.2523,-3.2489,-3.2422,-3.2353,-3.2284,-3.2161,-3.2055,-3.1984,-3.1912,-3.1893,-3.1856,-3.18,-3.18,-3.1748,-3.1282,-3.0679,-2.973,-2.8937,-2.8351,-2.7698,-2.727,-2.712,-4.0826,-4.08,-4.0812,-4.0776,-4.072,-4.0621,-4.0593,-4.0588,-4.0523,-4.0473,-4.0441,-4.0394,-4.0363,-4.0309,-4.0329,-4.0329,-4.0329,-4.0329,-4.0329,-4.0329,-4.0329,-4.0329,-4.0291,-4.0253,-4.0196,-4.0118,-4.0057,-3.9975,-3.9867,-3.9823,-3.9781,-3.9781,-3.9735,-3.9735,-3.9712,-3.9642,-3.9604,-3.9566,-3.9551,-3.9469,-3.9469,-3.9444,-3.9406,-3.9283,-3.9229,-3.9175,-3.9064,-3.8979,-3.8881,-3.8792,-3.8683,-3.8541,-3.8382,-3.8368,-3.8252,-3.8034,-3.8034,-3.7967,-3.7934,-3.8003,-3.8038,-3.802,-3.802,-3.7985,-3.7967,-3.7967,-3.7967,-3.7967,-3.7967,-3.7933,-3.7951,-3.7916,-3.7916,-3.7775,-3.7703,-3.7685,-3.7594,-3.754,-3.7503,-3.7429,-3.741,-3.7372,-3.7279,-3.7223,-3.7317,-3.7195,-3.581,-3.4518,-3.3547,-3.2841,-3.2683,-3.2525,-3.2473,-3.2457,-3.2457,-3.2371,-3.2249,-3.2179,-3.2091,-3.1984,-3.1912,-3.1856,-3.1837,-3.18,-3.18,-3.18,-3.1714,-3.1541,-3.0869,-2.9799,-2.9127,-2.8645,-2.7975,-2.7156,-2.7006,-4.0804,-4.08,-4.08,-4.0752,-4.0687,-4.0621,-4.0579,-4.0573,-4.0504,-4.0457,-4.0408,-4.0396,-4.0345,-4.0329,-4.0329,-4.0329,-4.0329,-4.0329,-4.0329,-4.0329,-4.0329,-4.0329,-4.0291,-4.0234,-4.0176,-4.0077,-4.0015,-3.9911,-3.9804,-3.9758,-3.9712,-3.9665,-3.9637,-3.9637,-3.9599,-3.9526,-3.9483,-3.9427,-3.9383,-3.9312,-3.9285,-3.9266,-3.9239,-3.912,-3.9064,-3.8979,-3.8892,-3.8773,-3.8683,-3.859,-3.8528,-3.8382,-3.8303,-3.8223,-3.8104,-3.7984,-3.7915,-3.7898,-3.7846,-3.7828,-3.781,-3.781,-3.7828,-3.7828,-3.7828,-3.7775,-3.7775,-3.7739,-3.7739,-3.7757,-3.7739,-3.7667,-3.7631,-3.7521,-3.7521,-3.7484,-3.7447,-3.7354,-3.7317,-3.7279,-3.7241,-3.7259,-3.7182,-3.7091,-3.6879,-3.6867,-3.605,-3.4798,-3.3724,-3.309,-3.2792,-3.2598,-3.244,-3.2406,-3.2406,-3.2319,-3.2214,-3.2144,-3.2055,-3.1948,-3.1875,-3.1819,-3.18,-3.18,-3.18,-3.18,-3.1731,-3.1627,-3.0817,-2.9782,-2.9041,-2.8183,-2.7723,-2.6957,-2.6842,-4.0804,-4.08,-4.08,-4.072,-4.0621,-4.0588,-4.0545,-4.0523,-4.0489,-4.0438,-4.0392,-4.0323,-4.0327,-4.031,-4.0329,-4.0329,-4.0329,-4.0329,-4.0329,-4.0329,-4.0329,-4.0329,-4.0291,-4.0234,-4.0138,-4.0096,-3.9973,-3.9867,-3.9781,-3.9708,-3.9613,-3.9521,-3.9489,-3.9483,-3.9477,-3.9432,-3.9343,-3.9242,-3.92,-3.9138,-3.91,-3.9063,-3.8997,-3.8939,-3.8862,-3.8773,-3.8701,-3.859,-3.8478,-3.8415,-3.8368,-3.8252,-3.8119,-3.8086,-3.7984,-3.7774,-3.7739,-3.7703,-3.7613,-3.7667,-3.7685,-3.7667,-3.7667,-3.7667,-3.7631,-3.7613,-3.7577,-3.754,-3.7485,-3.7429,-3.7372,-3.7352,-3.7352,-3.7334,-3.7334,-3.7297,-3.7259,-3.722,-3.7164,-3.7126,-3.7108,-3.7069,-3.7048,-3.6921,-3.6587,-3.6324,-3.5952,-3.5144,-3.4127,-3.3354,-3.3055,-3.2809,-3.2581,-3.2354,-3.2319,-3.2232,-3.2144,-3.2091,-3.1984,-3.1875,-3.1856,-3.1837,-3.18,-3.18,-3.1763,-3.1746,-3.1746,-3.1765,-3.0676,-2.9522,-2.8253,-2.7449,-2.7044,-2.6809,-2.6691,-4.0796,-4.0803,-4.0803,-4.0726,-4.0602,-4.0588,-4.0564,-4.0504,-4.0476,-4.0444,-4.0358,-4.0306,-4.0309,-4.031,-4.0329,-4.0329,-4.0329,-4.0329,-4.0329,-4.0329,-4.0329,-4.0329,-4.0273,-4.0176,-4.0098,-4.0015,-3.9911,-3.9819,-3.9722,-3.9631,-3.9558,-3.9483,-3.9335,-3.9264,-3.9264,-3.9237,-3.9154,-3.9069,-3.9027,-3.8976,-3.8939,-3.8895,-3.8822,-3.878,-3.8652,-3.8559,-3.8515,-3.8401,-3.8303,-3.8219,-3.8186,-3.8086,-3.7984,-3.7967,-3.7898,-3.7739,-3.7703,-3.7667,-3.7613,-3.7613,-3.7631,-3.7631,-3.7577,-3.7577,-3.7577,-3.7577,-3.754,-3.7429,-3.7374,-3.7372,-3.7334,-3.7314,-3.7297,-3.7203,-3.7164,-3.7126,-3.7087,-3.7087,-3.7048,-3.7048,-3.7009,-3.7009,-3.697,-3.6948,-3.6628,-3.6439,-3.6155,-3.5878,-3.5039,-3.3968,-3.3336,-3.3055,-3.2809,-3.2477,-3.2232,-3.2144,-3.2055,-3.1984,-3.1912,-3.1819,-3.18,-3.1763,-3.1763,-3.1763,-3.1709,-3.1671,-3.1637,-3.1394,-3.0409,-2.9278,-2.8236,-2.7284,-2.6809,-2.664,-2.6503,-4.079,-4.081,-4.0778,-4.07,-4.0602,-4.0588,-4.0545,-4.0511,-4.0447,-4.0358,-4.0321,-4.0307,-4.031,-4.031,-4.0329,-4.0329,-4.0329,-4.0329,-4.0329,-4.0329,-4.0329,-4.0291,-4.0234,-4.0138,-4.0057,-3.9954,-3.9845,-3.9731,-3.9631,-3.9539,-3.9439,-3.9309,-3.9147,-3.9064,-3.9064,-3.9027,-3.899,-3.8962,-3.8894,-3.8829,-3.8775,-3.8695,-3.8652,-3.8559,-3.8446,-3.835,-3.8303,-3.8204,-3.8122,-3.8036,-3.7967,-3.7898,-3.7846,-3.781,-3.7757,-3.7685,-3.7631,-3.7649,-3.7613,-3.7577,-3.7631,-3.7577,-3.7577,-3.7577,-3.7577,-3.7577,-3.7521,-3.7447,-3.741,-3.7297,-3.722,-3.722,-3.7182,-3.7069,-3.7087,-3.7048,-3.7009,-3.7009,-3.7027,-3.697,-3.6948,-3.6948,-3.6908,-3.6886,-3.6759,-3.6624,-3.6449,-3.6155,-3.5826,-3.4756,-3.3685,-3.3335,-3.2879,-3.2406,-3.2161,-3.202,-3.1966,-3.1894,-3.1839,-3.1763,-3.1726,-3.1671,-3.1688,-3.1688,-3.1614,-3.1542,-3.1435,-3.1039,-3.0377,-2.96,-2.8696,-2.775,-2.679,-2.6417,-2.631,-4.079,-4.079,-4.0713,-4.0654,-4.0607,-4.0574,-4.0554,-4.0502,-4.0379,-4.0306,-4.0304,-4.0328,-4.031,-4.0329,-4.0329,-4.0329,-4.0329,-4.0329,-4.0329,-4.0291,-4.0291,-4.0253,-4.0196,-4.0098,-3.9996,-3.9889,-3.9777,-3.9618,-3.9521,-3.9439,-3.9309,-3.912,-3.8979,-3.8892,-3.8862,-3.8815,-3.8807,-3.877,-3.8748,-3.8689,-3.8583,-3.8515,-3.8465,-3.8382,-3.8252,-3.8153,-3.8086,-3.802,-3.7934,-3.7881,-3.7899,-3.781,-3.7757,-3.7703,-3.7631,-3.7613,-3.7613,-3.7613,-3.7577,-3.7577,-3.7577,-3.7577,-3.7594,-3.7577,-3.7577,-3.7577,-3.7521,-3.741,-3.7334,-3.7182,-3.7048,-3.7048,-3.7009,-3.7009,-3.7009,-3.7009,-3.7009,-3.697,-3.6987,-3.6948,-3.6869,-3.6846,-3.6783,-3.6783,-3.6766,-3.6713,-3.6579,-3.6387,-3.6007,-3.5308,-3.4329,-3.3577,-3.3069,-3.2335,-3.2089,-3.1912,-3.1821,-3.1785,-3.1691,-3.1596,-3.1559,-3.1559,-3.1576,-3.1576,-3.15,-3.1406,-3.1278,-3.1082,-3.0768,-2.9921,-2.8875,-2.8002,-2.7,-2.6322,-2.6079,-4.079,-4.079,-4.0713,-4.0654,-4.0593,-4.0508,-4.0447,-4.0415,-4.0325,-4.0326,-4.0328,-4.031,-4.0329,-4.0329,-4.0329,-4.0329,-4.0329,-4.0329,-4.0329,-4.0291,-4.0253,-4.0234,-4.0157,-4.0036,-3.9914,-3.9804,-3.9665,-3.9545,-3.9439,-3.9354,-3.912,-3.8892,-3.8833,-3.8725,-3.8634,-3.8603,-3.8597,-3.8609,-3.8566,-3.8528,-3.8437,-3.8387,-3.8303,-3.8186,-3.8086,-3.8018,-3.7933,-3.7916,-3.7846,-3.7775,-3.7757,-3.7703,-3.7649,-3.7613,-3.7613,-3.7613,-3.7613,-3.7577,-3.7577,-3.7577,-3.754,-3.7503,-3.7466,-3.7503,-3.754,-3.7558,-3.7484,-3.7372,-3.7259,-3.7126,-3.7009,-3.6987,-3.6948,-3.6948,-3.6948,-3.6948,-3.6948,-3.6948,-3.6908,-3.6829,-3.6748,-3.6725,-3.6661,-3.6661,-3.6684,-3.6702,-3.665,-3.6516,-3.6185,-3.5488,-3.4756,-3.3972,-3.3202,-3.2505,-3.1996,-3.1802,-3.1728,-3.1654,-3.1559,-3.15,-3.15,-3.1462,-3.15,-3.1423,-3.1346,-3.119,-3.1055,-3.0858,-3.07,-2.9855,-2.8865,-2.8047,-2.7263,-2.6517,-2.5909,-4.0268,-4.0282,-4.0565,-4.0626,-4.0554,-4.0447,-4.0379,-4.0362,-4.0308,-4.031,-4.0329,-4.0329,-4.0329,-4.0329,-4.0329,-4.031,-4.0291,-4.0253,-4.0253,-4.0234,-4.0176,-4.0157,-4.0077,-3.9975,-3.9867,-3.9735,-3.9618,-3.9514,-3.938,-3.9166,-3.8921,-3.8803,-3.8743,-3.8603,-3.8541,-3.8491,-3.8423,-3.8387,-3.8373,-3.8368,-3.8307,-3.8241,-3.8138,-3.8036,-3.7967,-3.7863,-3.7846,-3.781,-3.7721,-3.7685,-3.7631,-3.7649,-3.7577,-3.754,-3.7503,-3.7503,-3.7466,-3.7484,-3.7447,-3.7484,-3.7447,-3.7392,-3.7354,-3.741,-3.7447,-3.7447,-3.7372,-3.7241,-3.7203,-3.7126,-3.7009,-3.6908,-3.6908,-3.6869,-3.6869,-3.6869,-3.6886,-3.6886,-3.6788,-3.6708,-3.6626,-3.6602,-3.6561,-3.6544,-3.6544,-3.6502,-3.6502,-3.6451,-3.618,-3.5717,-3.4953,-3.4189,-3.3401,-3.2668,-3.2214,-3.1743,-3.1617,-3.1542,-3.1406,-3.1385,-3.1385,-3.1269,-3.119,-3.1151,-3.1151,-3.0992,-3.0831,-3.0773,-3.0508,-2.9715,-2.9107,-2.846,-2.7601,-2.6575,-2.5978,-3.9366,-3.9367,-4.01,-4.0318,-4.0367,-4.026,-4.0247,-4.0326,-4.031,-4.0329,-4.0329,-4.0329,-4.0329,-4.0329,-4.0329,-4.0291,-4.0272,-4.0215,-4.0196,-4.0176,-4.0137,-4.0077,-3.9996,-3.9911,-3.9781,-3.9647,-3.9545,-3.9413,-3.9275,-3.9054,-3.8862,-3.8792,-3.8621,-3.851,-3.8446,-3.8364,-3.8296,-3.8172,-3.8212,-3.8223,-3.8126,-3.8074,-3.8018,-3.7881,-3.7792,-3.7703,-3.7667,-3.7649,-3.7577,-3.7577,-3.7577,-3.7577,-3.7503,-3.7466,-3.7429,-3.7392,-3.7372,-3.7372,-3.7334,-3.7334,-3.7297,-3.7297,-3.7259,-3.722,-3.722,-3.7334,-3.7297,-3.7203,-3.7164,-3.7087,-3.697,-3.6908,-3.6829,-3.6788,-3.6806,-3.6806,-3.6783,-3.6766,-3.6667,-3.6585,-3.6485,-3.6461,-3.6377,-3.6377,-3.6318,-3.6318,-3.6276,-3.6318,-3.6146,-3.5773,-3.5227,-3.4466,-3.3736,-3.2986,-3.22,-3.1781,-3.1555,-3.1406,-3.1269,-3.1151,-3.1112,-3.0992,-3.0871,-3.0871,-3.0814,-3.0773,-3.0651,-3.051,-3.0351,-2.9995,-2.9417,-2.8897,-2.802,-2.6929,-2.6342,-3.8504,-3.8498,-3.8639,-3.8999,-3.9484,-3.9435,-3.9749,-4.0307,-4.031,-4.0234,-4.031,-4.0291,-4.031,-4.0291,-4.0291,-4.0272,-4.0215,-4.0196,-4.0176,-4.0098,-4.0057,-3.9975,-3.9911,-3.98,-3.967,-3.9551,-3.942,-3.9283,-3.9082,-3.8892,-3.8743,-3.8621,-3.8478,-3.8446,-3.8336,-3.8252,-3.8132,-3.8008,-3.7998,-3.802,-3.7935,-3.7935,-3.7881,-3.7792,-3.7703,-3.7649,-3.7613,-3.7577,-3.7577,-3.7577,-3.7503,-3.7429,-3.7354,-3.7317,-3.7334,-3.7334,-3.7276,-3.7259,-3.722,-3.722,-3.72,-3.7105,-3.7048,-3.6948,-3.6987,-3.7182,-3.7259,-3.7164,-3.7069,-3.7009,-3.693,-3.6869,-3.6788,-3.6766,-3.6702,-3.6702,-3.6678,-3.6602,-3.6502,-3.6444,-3.6385,-3.6318,-3.6233,-3.6191,-3.6148,-3.6105,-3.6105,-3.6062,-3.6062,-3.5848,-3.5505,-3.4844,-3.4186,-3.3402,-3.2496,-3.1769,-3.1453,-3.1252,-3.1095,-3.0975,-3.0871,-3.0708,-3.0584,-3.0543,-3.0501,-3.0443,-3.0359,-3.0231,-3.0054,-2.9903,-2.9518,-2.8914,-2.8375,-2.7429,-2.7005,-3.7622,-3.763,-3.7877,-3.8247,-3.8569,-3.8558,-3.8774,-3.9085,-3.9144,-3.9145,-3.9336,-3.989,-4.0253,-4.0234,-4.0253,-4.0215,-4.0157,-4.0118,-4.0057,-3.9996,-3.9933,-3.987,-3.9781,-3.9689,-3.9604,-3.9483,-3.9317,-3.912,-3.8862,-3.8762,-3.867,-3.8528,-3.8446,-3.8336,-3.8223,-3.8119,-3.7982,-3.7877,-3.7828,-3.7739,-3.7721,-3.7757,-3.7775,-3.7667,-3.7595,-3.7577,-3.7503,-3.7466,-3.7466,-3.7447,-3.7392,-3.7354,-3.7279,-3.7241,-3.7203,-3.7143,-3.7105,-3.7083,-3.7027,-3.7027,-3.7005,-3.6869,-3.6869,-3.6766,-3.6766,-3.6908,-3.6926,-3.6829,-3.6869,-3.6829,-3.6748,-3.6667,-3.6568,-3.6527,-3.6461,-3.6395,-3.6353,-3.6293,-3.6251,-3.6233,-3.6191,-3.6148,-3.6105,-3.6105,-3.6062,-3.6019,-3.5975,-3.5905,-3.5905,-3.58,-3.5538,-3.5112,-3.4354,-3.3492,-3.2491,-3.1783,-3.1263,-3.1095,-3.0895,-3.0692,-3.0526,-3.0401,-3.0274,-3.0248,-3.0146,-3.006,-2.9973,-2.9886,-2.9814,-2.9677,-2.9291,-2.8857,-2.8347,-2.7978,-2.7639,-3.6702,-3.6742,-3.73,-3.7644,-3.7731,-3.7663,-3.7725,-3.775,-3.7731,-3.7769,-3.7981,-3.9299,-3.9872,-4.0043,-4.0176,-4.0118,-4.0077,-4.0017,-3.9954,-3.9867,-3.9804,-3.9735,-3.9665,-3.9551,-3.9464,-3.9338,-3.9165,-3.8989,-3.8792,-3.8701,-3.8609,-3.8465,-3.8368,-3.8256,-3.8119,-3.7966,-3.7862,-3.7721,-3.7595,-3.7521,-3.7521,-3.7558,-3.7577,-3.754,-3.7449,-3.7374,-3.7354,-3.7317,-3.7297,-3.7259,-3.7259,-3.7203,-3.7126,-3.7048,-3.7009,-3.6948,-3.6869,-3.6788,-3.6708,-3.6667,-3.6643,-3.6602,-3.6661,-3.6602,-3.6602,-3.6561,-3.6561,-3.6561,-3.6602,-3.6602,-3.6502,-3.6461,-3.636,-3.6301,-3.6233,-3.6122,-3.6079,-3.5993,-3.5993,-3.5975,-3.5932,-3.5932,-3.5932,-3.5932,-3.5888,-3.5888,-3.5844,-3.5773,-3.5701,-3.5594,-3.5352,-3.4931,-3.4385,-3.344,-3.2587,-3.1888,-3.1318,-3.0855,-3.0651,-3.0401,-3.0189,-3.0033,-2.9946,-2.9946,-2.9858,-2.9754,-2.9665,-2.9576,-2.9547,-2.9457,-2.9164,-2.8823,-2.8622,-2.828,-2.8213,-3.5794,-3.5779,-3.5858,-3.6247,-3.6773,-3.6782,-3.7113,-3.7636,-3.7636,-3.7695,-3.7677,-3.7907,-3.8498,-3.9185,-3.987,-3.9924,-3.9575,-3.9683,-3.9788,-3.9717,-3.9628,-3.9599,-3.9526,-3.9427,-3.9305,-3.9165,-3.8989,-3.8833,-3.867,-3.859,-3.8465,-3.8354,-3.8322,-3.8189,-3.8036,-3.788,-3.7703,-3.7595,-3.7429,-3.7297,-3.7332,-3.737,-3.7372,-3.7334,-3.7334,-3.7317,-3.7279,-3.7297,-3.7297,-3.7259,-3.7143,-3.7009,-3.693,-3.6829,-3.6788,-3.6708,-3.6643,-3.6544,-3.6502,-3.6419,-3.6419,-3.6335,-3.6335,-3.6293,-3.6251,-3.6208,-3.6208,-3.6191,-3.6233,-3.6318,-3.6276,-3.6251,-3.6208,-3.6148,-3.6062,-3.5932,-3.5861,-3.5817,-3.5773,-3.5711,-3.565,-3.5605,-3.5532,-3.5532,-3.5487,-3.5487,-3.5441,-3.5367,-3.5367,-3.5274,-3.5165,-3.4781,-3.4301,-3.374,-3.2998,-3.2085,-3.145,-3.0883,-3.0401,-3.0146,-2.9886,-2.9681,-2.9608,-2.9576,-2.9547,-2.9502,-2.9412,-2.9321,-2.9213,-2.9075,-2.8967,-2.8748,-2.8636,-2.8429,-2.8186]}]]